<?xml version="1.0" encoding="UTF-8" standalone="no" ?>
<gpx xmlns="http://www.topografix.com/GPX/1/1" xmlns:xsi="http://www.w3.org/2001/XMLSchema-instance" xsi:schemaLocation="http://www.topografix.com/GPX/1/1 http://www.topografix.com/GPX/1/1/gpx.xsd" version="1.1" creator="VisuGPX - https://www.visugpx.com">
  <metadata>
    <name>Etape 3, Lalouvesc, St Bonnet le Froid .gpx</name>
  </metadata>
  <trk>
    <name><![CDATA[Lalouvesc, St Bonnet le Froid ]]></name>
    <extensions>
      <line xmlns="http://www.topografix.com/GPX/gpx_style/0/2">
        <color>0000FF</color>
        <width>4</width>
      </line>
    </extensions>
    <trkseg>
      <trkpt lat="45.11813" lon="4.53505">
        <ele>1089</ele>
        <time>2024-05-22T06:27:36Z</time>
      </trkpt>
      <trkpt lat="45.11813" lon="4.53507">
        <ele>1089</ele>
        <time>2024-05-22T06:27:36Z</time>
      </trkpt>
      <trkpt lat="45.11818" lon="4.53525">
        <ele>1089</ele>
        <time>2024-05-22T06:27:47Z</time>
      </trkpt>
      <trkpt lat="45.11821" lon="4.53543">
        <ele>1088</ele>
        <time>2024-05-22T06:28:00Z</time>
      </trkpt>
      <trkpt lat="45.11824" lon="4.5355">
        <ele>1087</ele>
        <time>2024-05-22T06:28:05Z</time>
      </trkpt>
      <trkpt lat="45.11827" lon="4.53555">
        <ele>1087</ele>
        <time>2024-05-22T06:28:08Z</time>
      </trkpt>
      <trkpt lat="45.11832" lon="4.53575">
        <ele>1085</ele>
        <time>2024-05-22T06:28:21Z</time>
      </trkpt>
      <trkpt lat="45.1183" lon="4.53565">
        <ele>1084</ele>
        <time>2024-05-22T06:28:34Z</time>
      </trkpt>
      <trkpt lat="45.11827" lon="4.5356">
        <ele>1084</ele>
        <time>2024-05-22T06:28:38Z</time>
      </trkpt>
      <trkpt lat="45.11825" lon="4.53552">
        <ele>1085</ele>
        <time>2024-05-22T06:28:42Z</time>
      </trkpt>
      <trkpt lat="45.11822" lon="4.53544">
        <ele>1085</ele>
        <time>2024-05-22T06:28:49Z</time>
      </trkpt>
      <trkpt lat="45.1182" lon="4.53537">
        <ele>1085</ele>
        <time>2024-05-22T06:28:52Z</time>
      </trkpt>
      <trkpt lat="45.11827" lon="4.53537">
        <ele>1085</ele>
        <time>2024-05-22T06:28:59Z</time>
      </trkpt>
      <trkpt lat="45.11832" lon="4.53534">
        <ele>1085</ele>
        <time>2024-05-22T06:29:03Z</time>
      </trkpt>
      <trkpt lat="45.11838" lon="4.53534">
        <ele>1085</ele>
        <time>2024-05-22T06:29:12Z</time>
      </trkpt>
      <trkpt lat="45.11842" lon="4.5353">
        <ele>1085</ele>
        <time>2024-05-22T06:29:16Z</time>
      </trkpt>
      <trkpt lat="45.11851" lon="4.53526">
        <ele>1085</ele>
        <time>2024-05-22T06:29:22Z</time>
      </trkpt>
      <trkpt lat="45.11856" lon="4.53527">
        <ele>1085</ele>
        <time>2024-05-22T06:29:33Z</time>
      </trkpt>
      <trkpt lat="45.11851" lon="4.53535">
        <ele>1085</ele>
        <time>2024-05-22T06:29:41Z</time>
      </trkpt>
      <trkpt lat="45.11852" lon="4.5354">
        <ele>1085</ele>
        <time>2024-05-22T06:29:44Z</time>
      </trkpt>
      <trkpt lat="45.11847" lon="4.53554">
        <ele>1085</ele>
        <time>2024-05-22T06:29:55Z</time>
      </trkpt>
      <trkpt lat="45.11851" lon="4.53561">
        <ele>1085</ele>
        <time>2024-05-22T06:30:05Z</time>
      </trkpt>
      <trkpt lat="45.11856" lon="4.53558">
        <ele>1085</ele>
        <time>2024-05-22T06:30:10Z</time>
      </trkpt>
      <trkpt lat="45.1186" lon="4.53556">
        <ele>1085</ele>
        <time>2024-05-22T06:30:14Z</time>
      </trkpt>
      <trkpt lat="45.11868" lon="4.53565">
        <ele>1084</ele>
        <time>2024-05-22T06:30:21Z</time>
      </trkpt>
      <trkpt lat="45.11874" lon="4.53566">
        <ele>1083</ele>
        <time>2024-05-22T06:30:30Z</time>
      </trkpt>
      <trkpt lat="45.11882" lon="4.53567">
        <ele>1084</ele>
        <time>2024-05-22T06:30:35Z</time>
      </trkpt>
      <trkpt lat="45.11874" lon="4.5355">
        <ele>1083</ele>
        <time>2024-05-22T06:33:20Z</time>
      </trkpt>
      <trkpt lat="45.11873" lon="4.53553">
        <ele>1083</ele>
        <time>2024-05-22T06:33:22Z</time>
      </trkpt>
      <trkpt lat="45.11864" lon="4.53583">
        <ele>1082</ele>
        <time>2024-05-22T06:33:39Z</time>
      </trkpt>
      <trkpt lat="45.11861" lon="4.5357">
        <ele>1082</ele>
        <time>2024-05-22T06:33:49Z</time>
      </trkpt>
      <trkpt lat="45.11863" lon="4.53555">
        <ele>1083</ele>
        <time>2024-05-22T06:34:08Z</time>
      </trkpt>
      <trkpt lat="45.1186" lon="4.53561">
        <ele>1083</ele>
        <time>2024-05-22T06:34:16Z</time>
      </trkpt>
      <trkpt lat="45.11862" lon="4.53568">
        <ele>1083</ele>
        <time>2024-05-22T06:34:19Z</time>
      </trkpt>
      <trkpt lat="45.11862" lon="4.53571">
        <ele>1083</ele>
        <time>2024-05-22T06:35:45Z</time>
      </trkpt>
      <trkpt lat="45.11858" lon="4.53558">
        <ele>1083</ele>
        <time>2024-05-22T06:35:49Z</time>
      </trkpt>
      <trkpt lat="45.11866" lon="4.53564">
        <ele>1082</ele>
        <time>2024-05-22T06:35:56Z</time>
      </trkpt>
      <trkpt lat="45.1187" lon="4.53562">
        <ele>1082</ele>
        <time>2024-05-22T06:36:01Z</time>
      </trkpt>
      <trkpt lat="45.11875" lon="4.53567">
        <ele>1082</ele>
        <time>2024-05-22T06:36:07Z</time>
      </trkpt>
      <trkpt lat="45.1187" lon="4.53585">
        <ele>1082</ele>
        <time>2024-05-22T06:36:11Z</time>
      </trkpt>
      <trkpt lat="45.11877" lon="4.53586">
        <ele>1082</ele>
        <time>2024-05-22T06:36:17Z</time>
      </trkpt>
      <trkpt lat="45.11882" lon="4.53586">
        <ele>1082</ele>
        <time>2024-05-22T06:36:20Z</time>
      </trkpt>
      <trkpt lat="45.11897" lon="4.53587">
        <ele>1082</ele>
        <time>2024-05-22T06:36:28Z</time>
      </trkpt>
      <trkpt lat="45.11905" lon="4.53579">
        <ele>1082</ele>
        <time>2024-05-22T06:36:34Z</time>
      </trkpt>
      <trkpt lat="45.11909" lon="4.53574">
        <ele>1082</ele>
        <time>2024-05-22T06:36:37Z</time>
      </trkpt>
      <trkpt lat="45.11911" lon="4.53569">
        <ele>1082</ele>
        <time>2024-05-22T06:36:41Z</time>
      </trkpt>
      <trkpt lat="45.1192" lon="4.53568">
        <ele>1082</ele>
        <time>2024-05-22T06:36:44Z</time>
      </trkpt>
      <trkpt lat="45.11923" lon="4.53563">
        <ele>1082</ele>
        <time>2024-05-22T06:36:47Z</time>
      </trkpt>
      <trkpt lat="45.11924" lon="4.53554">
        <ele>1082</ele>
        <time>2024-05-22T06:37:07Z</time>
      </trkpt>
      <trkpt lat="45.11928" lon="4.53547">
        <ele>1082</ele>
        <time>2024-05-22T06:37:13Z</time>
      </trkpt>
      <trkpt lat="45.11932" lon="4.53544">
        <ele>1082</ele>
        <time>2024-05-22T06:37:16Z</time>
      </trkpt>
      <trkpt lat="45.11936" lon="4.53543">
        <ele>1082</ele>
        <time>2024-05-22T06:37:19Z</time>
      </trkpt>
      <trkpt lat="45.11936" lon="4.53536">
        <ele>1081</ele>
        <time>2024-05-22T06:37:23Z</time>
      </trkpt>
      <trkpt lat="45.11938" lon="4.5353">
        <ele>1080</ele>
        <time>2024-05-22T06:37:27Z</time>
      </trkpt>
      <trkpt lat="45.11942" lon="4.53526">
        <ele>1080</ele>
        <time>2024-05-22T06:37:31Z</time>
      </trkpt>
      <trkpt lat="45.11945" lon="4.53521">
        <ele>1081</ele>
        <time>2024-05-22T06:37:43Z</time>
      </trkpt>
      <trkpt lat="45.1195" lon="4.5352">
        <ele>1081</ele>
        <time>2024-05-22T06:37:51Z</time>
      </trkpt>
      <trkpt lat="45.11955" lon="4.5352">
        <ele>1081</ele>
        <time>2024-05-22T06:37:54Z</time>
      </trkpt>
      <trkpt lat="45.11958" lon="4.53516">
        <ele>1081</ele>
        <time>2024-05-22T06:37:57Z</time>
      </trkpt>
      <trkpt lat="45.11961" lon="4.53512">
        <ele>1081</ele>
        <time>2024-05-22T06:38:01Z</time>
      </trkpt>
      <trkpt lat="45.11966" lon="4.5351">
        <ele>1081</ele>
        <time>2024-05-22T06:38:06Z</time>
      </trkpt>
      <trkpt lat="45.11971" lon="4.53512">
        <ele>1081</ele>
        <time>2024-05-22T06:38:09Z</time>
      </trkpt>
      <trkpt lat="45.11976" lon="4.53511">
        <ele>1081</ele>
        <time>2024-05-22T06:38:13Z</time>
      </trkpt>
      <trkpt lat="45.11981" lon="4.53506">
        <ele>1081</ele>
        <time>2024-05-22T06:38:18Z</time>
      </trkpt>
      <trkpt lat="45.11977" lon="4.53491">
        <ele>1081</ele>
        <time>2024-05-22T06:38:24Z</time>
      </trkpt>
      <trkpt lat="45.1197" lon="4.53498">
        <ele>1082</ele>
        <time>2024-05-22T06:38:39Z</time>
      </trkpt>
      <trkpt lat="45.11977" lon="4.53503">
        <ele>1082</ele>
        <time>2024-05-22T06:38:46Z</time>
      </trkpt>
      <trkpt lat="45.11976" lon="4.53494">
        <ele>1082</ele>
        <time>2024-05-22T06:38:56Z</time>
      </trkpt>
      <trkpt lat="45.11981" lon="4.53494">
        <ele>1082</ele>
        <time>2024-05-22T06:38:58Z</time>
      </trkpt>
      <trkpt lat="45.11983" lon="4.53487">
        <ele>1082</ele>
        <time>2024-05-22T06:39:01Z</time>
      </trkpt>
      <trkpt lat="45.11991" lon="4.53479">
        <ele>1082</ele>
        <time>2024-05-22T06:39:07Z</time>
      </trkpt>
      <trkpt lat="45.1201" lon="4.53478">
        <ele>1082</ele>
        <time>2024-05-22T06:39:22Z</time>
      </trkpt>
      <trkpt lat="45.12023" lon="4.53486">
        <ele>1083</ele>
        <time>2024-05-22T06:39:31Z</time>
      </trkpt>
      <trkpt lat="45.12027" lon="4.53485">
        <ele>1083</ele>
        <time>2024-05-22T06:39:35Z</time>
      </trkpt>
      <trkpt lat="45.12035" lon="4.53478">
        <ele>1083</ele>
        <time>2024-05-22T06:39:42Z</time>
      </trkpt>
      <trkpt lat="45.12036" lon="4.53464">
        <ele>1083</ele>
        <time>2024-05-22T06:39:50Z</time>
      </trkpt>
      <trkpt lat="45.12043" lon="4.53465">
        <ele>1084</ele>
        <time>2024-05-22T06:39:58Z</time>
      </trkpt>
      <trkpt lat="45.12046" lon="4.5347">
        <ele>1084</ele>
        <time>2024-05-22T06:40:02Z</time>
      </trkpt>
      <trkpt lat="45.12053" lon="4.53468">
        <ele>1084</ele>
        <time>2024-05-22T06:40:06Z</time>
      </trkpt>
      <trkpt lat="45.12057" lon="4.53471">
        <ele>1085</ele>
        <time>2024-05-22T06:40:10Z</time>
      </trkpt>
      <trkpt lat="45.12071" lon="4.53468">
        <ele>1087</ele>
        <time>2024-05-22T06:40:22Z</time>
      </trkpt>
      <trkpt lat="45.12077" lon="4.5347">
        <ele>1088</ele>
        <time>2024-05-22T06:40:29Z</time>
      </trkpt>
      <trkpt lat="45.12081" lon="4.53467">
        <ele>1088</ele>
        <time>2024-05-22T06:40:33Z</time>
      </trkpt>
      <trkpt lat="45.12084" lon="4.53464">
        <ele>1088</ele>
        <time>2024-05-22T06:40:37Z</time>
      </trkpt>
      <trkpt lat="45.12089" lon="4.53464">
        <ele>1089</ele>
        <time>2024-05-22T06:40:41Z</time>
      </trkpt>
      <trkpt lat="45.12093" lon="4.53461">
        <ele>1089</ele>
        <time>2024-05-22T06:40:46Z</time>
      </trkpt>
      <trkpt lat="45.12099" lon="4.5346">
        <ele>1089</ele>
        <time>2024-05-22T06:40:54Z</time>
      </trkpt>
      <trkpt lat="45.12111" lon="4.53449">
        <ele>1090</ele>
        <time>2024-05-22T06:41:05Z</time>
      </trkpt>
      <trkpt lat="45.12116" lon="4.53447">
        <ele>1091</ele>
        <time>2024-05-22T06:41:09Z</time>
      </trkpt>
      <trkpt lat="45.12121" lon="4.53446">
        <ele>1091</ele>
        <time>2024-05-22T06:41:13Z</time>
      </trkpt>
      <trkpt lat="45.12125" lon="4.53444">
        <ele>1091</ele>
        <time>2024-05-22T06:41:17Z</time>
      </trkpt>
      <trkpt lat="45.1213" lon="4.53443">
        <ele>1091</ele>
        <time>2024-05-22T06:41:21Z</time>
      </trkpt>
      <trkpt lat="45.12134" lon="4.53444">
        <ele>1091</ele>
        <time>2024-05-22T06:41:25Z</time>
      </trkpt>
      <trkpt lat="45.12139" lon="4.53443">
        <ele>1092</ele>
        <time>2024-05-22T06:41:29Z</time>
      </trkpt>
      <trkpt lat="45.12147" lon="4.53438">
        <ele>1092</ele>
        <time>2024-05-22T06:41:37Z</time>
      </trkpt>
      <trkpt lat="45.12153" lon="4.53433">
        <ele>1093</ele>
        <time>2024-05-22T06:41:45Z</time>
      </trkpt>
      <trkpt lat="45.12166" lon="4.53431">
        <ele>1093</ele>
        <time>2024-05-22T06:41:57Z</time>
      </trkpt>
      <trkpt lat="45.12201" lon="4.53433">
        <ele>1097</ele>
        <time>2024-05-22T06:42:29Z</time>
      </trkpt>
      <trkpt lat="45.12211" lon="4.53433">
        <ele>1097</ele>
        <time>2024-05-22T06:42:38Z</time>
      </trkpt>
      <trkpt lat="45.12215" lon="4.53434">
        <ele>1098</ele>
        <time>2024-05-22T06:42:42Z</time>
      </trkpt>
      <trkpt lat="45.12243" lon="4.53426">
        <ele>1100</ele>
        <time>2024-05-22T06:43:06Z</time>
      </trkpt>
      <trkpt lat="45.12253" lon="4.53426">
        <ele>1100</ele>
        <time>2024-05-22T06:43:15Z</time>
      </trkpt>
      <trkpt lat="45.12262" lon="4.53421">
        <ele>1100</ele>
        <time>2024-05-22T06:43:23Z</time>
      </trkpt>
      <trkpt lat="45.12283" lon="4.53419">
        <ele>1100</ele>
        <time>2024-05-22T06:43:40Z</time>
      </trkpt>
      <trkpt lat="45.12306" lon="4.53431">
        <ele>1101</ele>
        <time>2024-05-22T06:44:01Z</time>
      </trkpt>
      <trkpt lat="45.12329" lon="4.53447">
        <ele>1102</ele>
        <time>2024-05-22T06:44:22Z</time>
      </trkpt>
      <trkpt lat="45.12333" lon="4.53448">
        <ele>1102</ele>
        <time>2024-05-22T06:44:26Z</time>
      </trkpt>
      <trkpt lat="45.12366" lon="4.53476">
        <ele>1103</ele>
        <time>2024-05-22T06:44:58Z</time>
      </trkpt>
      <trkpt lat="45.12385" lon="4.53496">
        <ele>1105</ele>
        <time>2024-05-22T06:45:20Z</time>
      </trkpt>
      <trkpt lat="45.12384" lon="4.53502">
        <ele>1105</ele>
        <time>2024-05-22T06:45:23Z</time>
      </trkpt>
      <trkpt lat="45.12388" lon="4.53509">
        <ele>1105</ele>
        <time>2024-05-22T06:45:27Z</time>
      </trkpt>
      <trkpt lat="45.1239" lon="4.53515">
        <ele>1105</ele>
        <time>2024-05-22T06:45:31Z</time>
      </trkpt>
      <trkpt lat="45.1239" lon="4.53523">
        <ele>1106</ele>
        <time>2024-05-22T06:45:36Z</time>
      </trkpt>
      <trkpt lat="45.12392" lon="4.53528">
        <ele>1106</ele>
        <time>2024-05-22T06:45:40Z</time>
      </trkpt>
      <trkpt lat="45.12394" lon="4.53541">
        <ele>1106</ele>
        <time>2024-05-22T06:45:48Z</time>
      </trkpt>
      <trkpt lat="45.12396" lon="4.53563">
        <ele>1108</ele>
        <time>2024-05-22T06:46:03Z</time>
      </trkpt>
      <trkpt lat="45.12393" lon="4.53567">
        <ele>1109</ele>
        <time>2024-05-22T06:46:23Z</time>
      </trkpt>
      <trkpt lat="45.1242" lon="4.53579">
        <ele>1109</ele>
        <time>2024-05-22T06:48:36Z</time>
      </trkpt>
      <trkpt lat="45.1242" lon="4.5358">
        <ele>1109</ele>
        <time>2024-05-22T06:48:37Z</time>
      </trkpt>
      <trkpt lat="45.12437" lon="4.53585">
        <ele>1109</ele>
        <time>2024-05-22T06:48:52Z</time>
      </trkpt>
      <trkpt lat="45.1244" lon="4.53589">
        <ele>1110</ele>
        <time>2024-05-22T06:48:56Z</time>
      </trkpt>
      <trkpt lat="45.12445" lon="4.5359">
        <ele>1110</ele>
        <time>2024-05-22T06:48:59Z</time>
      </trkpt>
      <trkpt lat="45.1247" lon="4.5359">
        <ele>1112</ele>
        <time>2024-05-22T06:49:25Z</time>
      </trkpt>
      <trkpt lat="45.12502" lon="4.53592">
        <ele>1118</ele>
        <time>2024-05-22T06:50:00Z</time>
      </trkpt>
      <trkpt lat="45.12506" lon="4.53593">
        <ele>1119</ele>
        <time>2024-05-22T06:50:05Z</time>
      </trkpt>
      <trkpt lat="45.12479" lon="4.53598">
        <ele>1116</ele>
        <time>2024-05-22T06:50:39Z</time>
      </trkpt>
      <trkpt lat="45.12474" lon="4.53599">
        <ele>1115</ele>
        <time>2024-05-22T06:50:42Z</time>
      </trkpt>
      <trkpt lat="45.12469" lon="4.53598">
        <ele>1114</ele>
        <time>2024-05-22T06:50:47Z</time>
      </trkpt>
      <trkpt lat="45.12465" lon="4.53595">
        <ele>1114</ele>
        <time>2024-05-22T06:51:38Z</time>
      </trkpt>
      <trkpt lat="45.12499" lon="4.53592">
        <ele>1119</ele>
        <time>2024-05-22T06:54:03Z</time>
      </trkpt>
      <trkpt lat="45.125" lon="4.53592">
        <ele>1119</ele>
        <time>2024-05-22T06:54:04Z</time>
      </trkpt>
      <trkpt lat="45.12516" lon="4.53595">
        <ele>1122</ele>
        <time>2024-05-22T06:54:23Z</time>
      </trkpt>
      <trkpt lat="45.12521" lon="4.53597">
        <ele>1123</ele>
        <time>2024-05-22T06:54:28Z</time>
      </trkpt>
      <trkpt lat="45.12526" lon="4.536">
        <ele>1124</ele>
        <time>2024-05-22T06:54:37Z</time>
      </trkpt>
      <trkpt lat="45.1253" lon="4.53602">
        <ele>1124</ele>
        <time>2024-05-22T06:54:41Z</time>
      </trkpt>
      <trkpt lat="45.12542" lon="4.53606">
        <ele>1126</ele>
        <time>2024-05-22T06:54:54Z</time>
      </trkpt>
      <trkpt lat="45.12557" lon="4.53614">
        <ele>1128</ele>
        <time>2024-05-22T06:55:12Z</time>
      </trkpt>
      <trkpt lat="45.12571" lon="4.53618">
        <ele>1129</ele>
        <time>2024-05-22T06:55:28Z</time>
      </trkpt>
      <trkpt lat="45.1258" lon="4.53617">
        <ele>1130</ele>
        <time>2024-05-22T06:55:47Z</time>
      </trkpt>
      <trkpt lat="45.12586" lon="4.53616">
        <ele>1130</ele>
        <time>2024-05-22T06:55:51Z</time>
      </trkpt>
      <trkpt lat="45.1259" lon="4.53616">
        <ele>1131</ele>
        <time>2024-05-22T06:55:54Z</time>
      </trkpt>
      <trkpt lat="45.12595" lon="4.53616">
        <ele>1131</ele>
        <time>2024-05-22T06:55:58Z</time>
      </trkpt>
      <trkpt lat="45.12599" lon="4.53615">
        <ele>1132</ele>
        <time>2024-05-22T06:56:02Z</time>
      </trkpt>
      <trkpt lat="45.12615" lon="4.53617">
        <ele>1133</ele>
        <time>2024-05-22T06:56:15Z</time>
      </trkpt>
      <trkpt lat="45.12619" lon="4.53615">
        <ele>1133</ele>
        <time>2024-05-22T06:56:19Z</time>
      </trkpt>
      <trkpt lat="45.12629" lon="4.53617">
        <ele>1134</ele>
        <time>2024-05-22T06:56:28Z</time>
      </trkpt>
      <trkpt lat="45.12634" lon="4.5362">
        <ele>1134</ele>
        <time>2024-05-22T06:56:32Z</time>
      </trkpt>
      <trkpt lat="45.12637" lon="4.53616">
        <ele>1135</ele>
        <time>2024-05-22T06:56:37Z</time>
      </trkpt>
      <trkpt lat="45.12642" lon="4.53616">
        <ele>1136</ele>
        <time>2024-05-22T06:56:41Z</time>
      </trkpt>
      <trkpt lat="45.12649" lon="4.53615">
        <ele>1137</ele>
        <time>2024-05-22T06:56:49Z</time>
      </trkpt>
      <trkpt lat="45.12655" lon="4.53619">
        <ele>1138</ele>
        <time>2024-05-22T06:56:55Z</time>
      </trkpt>
      <trkpt lat="45.12681" lon="4.53612">
        <ele>1143</ele>
        <time>2024-05-22T06:57:21Z</time>
      </trkpt>
      <trkpt lat="45.12687" lon="4.53614">
        <ele>1144</ele>
        <time>2024-05-22T06:57:27Z</time>
      </trkpt>
      <trkpt lat="45.12691" lon="4.5361">
        <ele>1144</ele>
        <time>2024-05-22T06:57:32Z</time>
      </trkpt>
      <trkpt lat="45.12703" lon="4.53614">
        <ele>1146</ele>
        <time>2024-05-22T06:57:44Z</time>
      </trkpt>
      <trkpt lat="45.1271" lon="4.53614">
        <ele>1147</ele>
        <time>2024-05-22T06:57:52Z</time>
      </trkpt>
      <trkpt lat="45.12714" lon="4.53616">
        <ele>1147</ele>
        <time>2024-05-22T06:57:57Z</time>
      </trkpt>
      <trkpt lat="45.12719" lon="4.53616">
        <ele>1148</ele>
        <time>2024-05-22T06:58:03Z</time>
      </trkpt>
      <trkpt lat="45.12723" lon="4.53617">
        <ele>1149</ele>
        <time>2024-05-22T06:58:07Z</time>
      </trkpt>
      <trkpt lat="45.12729" lon="4.53616">
        <ele>1149</ele>
        <time>2024-05-22T06:58:15Z</time>
      </trkpt>
      <trkpt lat="45.12733" lon="4.53618">
        <ele>1150</ele>
        <time>2024-05-22T06:58:19Z</time>
      </trkpt>
      <trkpt lat="45.12741" lon="4.53612">
        <ele>1151</ele>
        <time>2024-05-22T06:58:27Z</time>
      </trkpt>
      <trkpt lat="45.1275" lon="4.53609">
        <ele>1152</ele>
        <time>2024-05-22T06:58:40Z</time>
      </trkpt>
      <trkpt lat="45.12767" lon="4.53601">
        <ele>1154</ele>
        <time>2024-05-22T06:59:01Z</time>
      </trkpt>
      <trkpt lat="45.12776" lon="4.53598">
        <ele>1156</ele>
        <time>2024-05-22T06:59:12Z</time>
      </trkpt>
      <trkpt lat="45.12799" lon="4.53587">
        <ele>1159</ele>
        <time>2024-05-22T06:59:39Z</time>
      </trkpt>
      <trkpt lat="45.128" lon="4.53582">
        <ele>1159</ele>
        <time>2024-05-22T06:59:45Z</time>
      </trkpt>
      <trkpt lat="45.1282" lon="4.53573">
        <ele>1161</ele>
        <time>2024-05-22T07:00:05Z</time>
      </trkpt>
      <trkpt lat="45.12824" lon="4.53567">
        <ele>1162</ele>
        <time>2024-05-22T07:00:14Z</time>
      </trkpt>
      <trkpt lat="45.12826" lon="4.53563">
        <ele>1162</ele>
        <time>2024-05-22T07:00:18Z</time>
      </trkpt>
      <trkpt lat="45.1283" lon="4.53557">
        <ele>1163</ele>
        <time>2024-05-22T07:00:26Z</time>
      </trkpt>
      <trkpt lat="45.12835" lon="4.53556">
        <ele>1164</ele>
        <time>2024-05-22T07:00:32Z</time>
      </trkpt>
      <trkpt lat="45.12843" lon="4.53549">
        <ele>1166</ele>
        <time>2024-05-22T07:00:41Z</time>
      </trkpt>
      <trkpt lat="45.1285" lon="4.53548">
        <ele>1166</ele>
        <time>2024-05-22T07:00:49Z</time>
      </trkpt>
      <trkpt lat="45.12853" lon="4.53544">
        <ele>1167</ele>
        <time>2024-05-22T07:00:52Z</time>
      </trkpt>
      <trkpt lat="45.12861" lon="4.5354">
        <ele>1168</ele>
        <time>2024-05-22T07:01:00Z</time>
      </trkpt>
      <trkpt lat="45.12865" lon="4.53537">
        <ele>1169</ele>
        <time>2024-05-22T07:01:05Z</time>
      </trkpt>
      <trkpt lat="45.1287" lon="4.5354">
        <ele>1169</ele>
        <time>2024-05-22T07:01:09Z</time>
      </trkpt>
      <trkpt lat="45.12883" lon="4.53534">
        <ele>1171</ele>
        <time>2024-05-22T07:01:22Z</time>
      </trkpt>
      <trkpt lat="45.12888" lon="4.53535">
        <ele>1171</ele>
        <time>2024-05-22T07:01:26Z</time>
      </trkpt>
      <trkpt lat="45.12891" lon="4.53537">
        <ele>1172</ele>
        <time>2024-05-22T07:01:46Z</time>
      </trkpt>
      <trkpt lat="45.12896" lon="4.53543">
        <ele>1172</ele>
        <time>2024-05-22T07:02:04Z</time>
      </trkpt>
      <trkpt lat="45.12897" lon="4.53548">
        <ele>1172</ele>
        <time>2024-05-22T07:02:42Z</time>
      </trkpt>
      <trkpt lat="45.12901" lon="4.53543">
        <ele>1173</ele>
        <time>2024-05-22T07:03:07Z</time>
      </trkpt>
      <trkpt lat="45.12906" lon="4.53541">
        <ele>1173</ele>
        <time>2024-05-22T07:03:12Z</time>
      </trkpt>
      <trkpt lat="45.12912" lon="4.53546">
        <ele>1173</ele>
        <time>2024-05-22T07:03:15Z</time>
      </trkpt>
      <trkpt lat="45.12916" lon="4.53538">
        <ele>1174</ele>
        <time>2024-05-22T07:03:28Z</time>
      </trkpt>
      <trkpt lat="45.12921" lon="4.53537">
        <ele>1174</ele>
        <time>2024-05-22T07:03:32Z</time>
      </trkpt>
      <trkpt lat="45.12926" lon="4.53536">
        <ele>1175</ele>
        <time>2024-05-22T07:03:39Z</time>
      </trkpt>
      <trkpt lat="45.12933" lon="4.53532">
        <ele>1175</ele>
        <time>2024-05-22T07:03:46Z</time>
      </trkpt>
      <trkpt lat="45.12937" lon="4.53534">
        <ele>1175</ele>
        <time>2024-05-22T07:03:50Z</time>
      </trkpt>
      <trkpt lat="45.12946" lon="4.53531">
        <ele>1176</ele>
        <time>2024-05-22T07:04:00Z</time>
      </trkpt>
      <trkpt lat="45.12955" lon="4.53532">
        <ele>1177</ele>
        <time>2024-05-22T07:04:10Z</time>
      </trkpt>
      <trkpt lat="45.1296" lon="4.5353">
        <ele>1177</ele>
        <time>2024-05-22T07:04:14Z</time>
      </trkpt>
      <trkpt lat="45.12963" lon="4.53528">
        <ele>1177</ele>
        <time>2024-05-22T07:04:18Z</time>
      </trkpt>
      <trkpt lat="45.12968" lon="4.53526">
        <ele>1178</ele>
        <time>2024-05-22T07:04:26Z</time>
      </trkpt>
      <trkpt lat="45.12974" lon="4.53526">
        <ele>1178</ele>
        <time>2024-05-22T07:04:29Z</time>
      </trkpt>
      <trkpt lat="45.12977" lon="4.53524">
        <ele>1178</ele>
        <time>2024-05-22T07:04:49Z</time>
      </trkpt>
      <trkpt lat="45.1298" lon="4.53516">
        <ele>1178</ele>
        <time>2024-05-22T07:04:55Z</time>
      </trkpt>
      <trkpt lat="45.12981" lon="4.53511">
        <ele>1178</ele>
        <time>2024-05-22T07:04:59Z</time>
      </trkpt>
      <trkpt lat="45.12985" lon="4.53506">
        <ele>1178</ele>
        <time>2024-05-22T07:05:03Z</time>
      </trkpt>
      <trkpt lat="45.12989" lon="4.53503">
        <ele>1179</ele>
        <time>2024-05-22T07:05:07Z</time>
      </trkpt>
      <trkpt lat="45.12992" lon="4.53497">
        <ele>1179</ele>
        <time>2024-05-22T07:05:11Z</time>
      </trkpt>
      <trkpt lat="45.13" lon="4.5349">
        <ele>1180</ele>
        <time>2024-05-22T07:05:19Z</time>
      </trkpt>
      <trkpt lat="45.13014" lon="4.53475">
        <ele>1182</ele>
        <time>2024-05-22T07:05:38Z</time>
      </trkpt>
      <trkpt lat="45.13019" lon="4.53476">
        <ele>1182</ele>
        <time>2024-05-22T07:05:42Z</time>
      </trkpt>
      <trkpt lat="45.13022" lon="4.53471">
        <ele>1182</ele>
        <time>2024-05-22T07:05:46Z</time>
      </trkpt>
      <trkpt lat="45.13026" lon="4.53469">
        <ele>1183</ele>
        <time>2024-05-22T07:05:51Z</time>
      </trkpt>
      <trkpt lat="45.13044" lon="4.5345">
        <ele>1185</ele>
        <time>2024-05-22T07:06:16Z</time>
      </trkpt>
      <trkpt lat="45.13047" lon="4.53445">
        <ele>1185</ele>
        <time>2024-05-22T07:06:21Z</time>
      </trkpt>
      <trkpt lat="45.13051" lon="4.5344">
        <ele>1186</ele>
        <time>2024-05-22T07:06:26Z</time>
      </trkpt>
      <trkpt lat="45.13055" lon="4.53437">
        <ele>1186</ele>
        <time>2024-05-22T07:06:30Z</time>
      </trkpt>
      <trkpt lat="45.13071" lon="4.53418">
        <ele>1188</ele>
        <time>2024-05-22T07:06:52Z</time>
      </trkpt>
      <trkpt lat="45.13073" lon="4.53401">
        <ele>1189</ele>
        <time>2024-05-22T07:07:05Z</time>
      </trkpt>
      <trkpt lat="45.13079" lon="4.53391">
        <ele>1190</ele>
        <time>2024-05-22T07:07:13Z</time>
      </trkpt>
      <trkpt lat="45.13081" lon="4.53385">
        <ele>1190</ele>
        <time>2024-05-22T07:07:19Z</time>
      </trkpt>
      <trkpt lat="45.13083" lon="4.53366">
        <ele>1192</ele>
        <time>2024-05-22T07:07:35Z</time>
      </trkpt>
      <trkpt lat="45.13082" lon="4.53358">
        <ele>1192</ele>
        <time>2024-05-22T07:07:42Z</time>
      </trkpt>
      <trkpt lat="45.13083" lon="4.53352">
        <ele>1193</ele>
        <time>2024-05-22T07:07:46Z</time>
      </trkpt>
      <trkpt lat="45.13083" lon="4.53324">
        <ele>1194</ele>
        <time>2024-05-22T07:08:06Z</time>
      </trkpt>
      <trkpt lat="45.13083" lon="4.53318">
        <ele>1195</ele>
        <time>2024-05-22T07:08:11Z</time>
      </trkpt>
      <trkpt lat="45.13083" lon="4.53311">
        <ele>1195</ele>
        <time>2024-05-22T07:08:18Z</time>
      </trkpt>
      <trkpt lat="45.13081" lon="4.53304">
        <ele>1196</ele>
        <time>2024-05-22T07:08:25Z</time>
      </trkpt>
      <trkpt lat="45.13082" lon="4.53283">
        <ele>1197</ele>
        <time>2024-05-22T07:08:41Z</time>
      </trkpt>
      <trkpt lat="45.13082" lon="4.53266">
        <ele>1199</ele>
        <time>2024-05-22T07:08:54Z</time>
      </trkpt>
      <trkpt lat="45.13083" lon="4.53257">
        <ele>1199</ele>
        <time>2024-05-22T07:09:02Z</time>
      </trkpt>
      <trkpt lat="45.13079" lon="4.53241">
        <ele>1200</ele>
        <time>2024-05-22T07:09:16Z</time>
      </trkpt>
      <trkpt lat="45.13079" lon="4.5321">
        <ele>1202</ele>
        <time>2024-05-22T07:09:36Z</time>
      </trkpt>
      <trkpt lat="45.13078" lon="4.53201">
        <ele>1202</ele>
        <time>2024-05-22T07:09:42Z</time>
      </trkpt>
      <trkpt lat="45.13076" lon="4.53192">
        <ele>1202</ele>
        <time>2024-05-22T07:09:49Z</time>
      </trkpt>
      <trkpt lat="45.13081" lon="4.53171">
        <ele>1203</ele>
        <time>2024-05-22T07:10:03Z</time>
      </trkpt>
      <trkpt lat="45.1308" lon="4.53153">
        <ele>1204</ele>
        <time>2024-05-22T07:10:17Z</time>
      </trkpt>
      <trkpt lat="45.13082" lon="4.53146">
        <ele>1204</ele>
        <time>2024-05-22T07:10:27Z</time>
      </trkpt>
      <trkpt lat="45.13079" lon="4.53139">
        <ele>1204</ele>
        <time>2024-05-22T07:10:31Z</time>
      </trkpt>
      <trkpt lat="45.13079" lon="4.53132">
        <ele>1204</ele>
        <time>2024-05-22T07:10:35Z</time>
      </trkpt>
      <trkpt lat="45.13082" lon="4.5312">
        <ele>1204</ele>
        <time>2024-05-22T07:10:43Z</time>
      </trkpt>
      <trkpt lat="45.13082" lon="4.53114">
        <ele>1204</ele>
        <time>2024-05-22T07:10:47Z</time>
      </trkpt>
      <trkpt lat="45.13083" lon="4.53107">
        <ele>1204</ele>
        <time>2024-05-22T07:10:51Z</time>
      </trkpt>
      <trkpt lat="45.13083" lon="4.53101">
        <ele>1204</ele>
        <time>2024-05-22T07:10:55Z</time>
      </trkpt>
      <trkpt lat="45.13088" lon="4.53074">
        <ele>1204</ele>
        <time>2024-05-22T07:11:15Z</time>
      </trkpt>
      <trkpt lat="45.13088" lon="4.53054">
        <ele>1203</ele>
        <time>2024-05-22T07:11:26Z</time>
      </trkpt>
      <trkpt lat="45.13089" lon="4.53047">
        <ele>1203</ele>
        <time>2024-05-22T07:11:31Z</time>
      </trkpt>
      <trkpt lat="45.1309" lon="4.53035">
        <ele>1202</ele>
        <time>2024-05-22T07:11:42Z</time>
      </trkpt>
      <trkpt lat="45.1309" lon="4.53026">
        <ele>1202</ele>
        <time>2024-05-22T07:11:48Z</time>
      </trkpt>
      <trkpt lat="45.13091" lon="4.53021">
        <ele>1202</ele>
        <time>2024-05-22T07:11:53Z</time>
      </trkpt>
      <trkpt lat="45.13092" lon="4.53014">
        <ele>1201</ele>
        <time>2024-05-22T07:11:57Z</time>
      </trkpt>
      <trkpt lat="45.13095" lon="4.5301">
        <ele>1200</ele>
        <time>2024-05-22T07:12:08Z</time>
      </trkpt>
      <trkpt lat="45.13095" lon="4.52994">
        <ele>1199</ele>
        <time>2024-05-22T07:12:16Z</time>
      </trkpt>
      <trkpt lat="45.13098" lon="4.52984">
        <ele>1197</ele>
        <time>2024-05-22T07:12:27Z</time>
      </trkpt>
      <trkpt lat="45.131" lon="4.52979">
        <ele>1196</ele>
        <time>2024-05-22T07:12:32Z</time>
      </trkpt>
      <trkpt lat="45.13101" lon="4.52971">
        <ele>1196</ele>
        <time>2024-05-22T07:12:35Z</time>
      </trkpt>
      <trkpt lat="45.13106" lon="4.52966">
        <ele>1195</ele>
        <time>2024-05-22T07:12:42Z</time>
      </trkpt>
      <trkpt lat="45.13107" lon="4.52947">
        <ele>1192</ele>
        <time>2024-05-22T07:12:55Z</time>
      </trkpt>
      <trkpt lat="45.1311" lon="4.5294">
        <ele>1191</ele>
        <time>2024-05-22T07:13:01Z</time>
      </trkpt>
      <trkpt lat="45.13109" lon="4.52933">
        <ele>1191</ele>
        <time>2024-05-22T07:13:05Z</time>
      </trkpt>
      <trkpt lat="45.13115" lon="4.52921">
        <ele>1189</ele>
        <time>2024-05-22T07:13:16Z</time>
      </trkpt>
      <trkpt lat="45.13116" lon="4.5291">
        <ele>1188</ele>
        <time>2024-05-22T07:13:25Z</time>
      </trkpt>
      <trkpt lat="45.13121" lon="4.52905">
        <ele>1188</ele>
        <time>2024-05-22T07:13:30Z</time>
      </trkpt>
      <trkpt lat="45.13122" lon="4.52896">
        <ele>1187</ele>
        <time>2024-05-22T07:13:39Z</time>
      </trkpt>
      <trkpt lat="45.13125" lon="4.52889">
        <ele>1186</ele>
        <time>2024-05-22T07:13:43Z</time>
      </trkpt>
      <trkpt lat="45.13129" lon="4.52886">
        <ele>1186</ele>
        <time>2024-05-22T07:13:51Z</time>
      </trkpt>
      <trkpt lat="45.13128" lon="4.52878">
        <ele>1186</ele>
        <time>2024-05-22T07:13:54Z</time>
      </trkpt>
      <trkpt lat="45.13133" lon="4.52857">
        <ele>1184</ele>
        <time>2024-05-22T07:14:10Z</time>
      </trkpt>
      <trkpt lat="45.13136" lon="4.52852">
        <ele>1184</ele>
        <time>2024-05-22T07:14:14Z</time>
      </trkpt>
      <trkpt lat="45.13138" lon="4.52842">
        <ele>1183</ele>
        <time>2024-05-22T07:14:22Z</time>
      </trkpt>
      <trkpt lat="45.13141" lon="4.52837">
        <ele>1183</ele>
        <time>2024-05-22T07:14:28Z</time>
      </trkpt>
      <trkpt lat="45.13145" lon="4.52823">
        <ele>1185</ele>
        <time>2024-05-22T07:14:41Z</time>
      </trkpt>
      <trkpt lat="45.13149" lon="4.52817">
        <ele>1185</ele>
        <time>2024-05-22T07:14:49Z</time>
      </trkpt>
      <trkpt lat="45.13156" lon="4.52814">
        <ele>1186</ele>
        <time>2024-05-22T07:15:01Z</time>
      </trkpt>
      <trkpt lat="45.13154" lon="4.528">
        <ele>1187</ele>
        <time>2024-05-22T07:15:10Z</time>
      </trkpt>
      <trkpt lat="45.13152" lon="4.52794">
        <ele>1187</ele>
        <time>2024-05-22T07:15:14Z</time>
      </trkpt>
      <trkpt lat="45.13152" lon="4.52786">
        <ele>1187</ele>
        <time>2024-05-22T07:15:18Z</time>
      </trkpt>
      <trkpt lat="45.13158" lon="4.52775">
        <ele>1187</ele>
        <time>2024-05-22T07:15:26Z</time>
      </trkpt>
      <trkpt lat="45.13157" lon="4.52761">
        <ele>1187</ele>
        <time>2024-05-22T07:15:33Z</time>
      </trkpt>
      <trkpt lat="45.13155" lon="4.52756">
        <ele>1188</ele>
        <time>2024-05-22T07:15:37Z</time>
      </trkpt>
      <trkpt lat="45.13158" lon="4.5275">
        <ele>1188</ele>
        <time>2024-05-22T07:15:41Z</time>
      </trkpt>
      <trkpt lat="45.13166" lon="4.52738">
        <ele>1189</ele>
        <time>2024-05-22T07:15:55Z</time>
      </trkpt>
      <trkpt lat="45.1318" lon="4.52704">
        <ele>1191</ele>
        <time>2024-05-22T07:16:23Z</time>
      </trkpt>
      <trkpt lat="45.13184" lon="4.52698">
        <ele>1192</ele>
        <time>2024-05-22T07:16:28Z</time>
      </trkpt>
      <trkpt lat="45.13186" lon="4.52692">
        <ele>1192</ele>
        <time>2024-05-22T07:16:33Z</time>
      </trkpt>
      <trkpt lat="45.1319" lon="4.52689">
        <ele>1192</ele>
        <time>2024-05-22T07:16:37Z</time>
      </trkpt>
      <trkpt lat="45.1319" lon="4.52683">
        <ele>1193</ele>
        <time>2024-05-22T07:16:41Z</time>
      </trkpt>
      <trkpt lat="45.13199" lon="4.52677">
        <ele>1193</ele>
        <time>2024-05-22T07:16:50Z</time>
      </trkpt>
      <trkpt lat="45.13208" lon="4.52667">
        <ele>1193</ele>
        <time>2024-05-22T07:16:59Z</time>
      </trkpt>
      <trkpt lat="45.13212" lon="4.52664">
        <ele>1193</ele>
        <time>2024-05-22T07:17:02Z</time>
      </trkpt>
      <trkpt lat="45.13216" lon="4.5266">
        <ele>1193</ele>
        <time>2024-05-22T07:17:07Z</time>
      </trkpt>
      <trkpt lat="45.13221" lon="4.5266">
        <ele>1193</ele>
        <time>2024-05-22T07:17:10Z</time>
      </trkpt>
      <trkpt lat="45.13225" lon="4.52657">
        <ele>1192</ele>
        <time>2024-05-22T07:17:14Z</time>
      </trkpt>
      <trkpt lat="45.13235" lon="4.52656">
        <ele>1192</ele>
        <time>2024-05-22T07:17:22Z</time>
      </trkpt>
      <trkpt lat="45.13245" lon="4.52658">
        <ele>1192</ele>
        <time>2024-05-22T07:17:31Z</time>
      </trkpt>
      <trkpt lat="45.13255" lon="4.52654">
        <ele>1192</ele>
        <time>2024-05-22T07:17:40Z</time>
      </trkpt>
      <trkpt lat="45.1326" lon="4.52654">
        <ele>1192</ele>
        <time>2024-05-22T07:17:44Z</time>
      </trkpt>
      <trkpt lat="45.13264" lon="4.52658">
        <ele>1192</ele>
        <time>2024-05-22T07:17:47Z</time>
      </trkpt>
      <trkpt lat="45.13266" lon="4.52648">
        <ele>1192</ele>
        <time>2024-05-22T07:18:00Z</time>
      </trkpt>
      <trkpt lat="45.13266" lon="4.52641">
        <ele>1192</ele>
        <time>2024-05-22T07:18:05Z</time>
      </trkpt>
      <trkpt lat="45.13269" lon="4.52635">
        <ele>1192</ele>
        <time>2024-05-22T07:18:09Z</time>
      </trkpt>
      <trkpt lat="45.13271" lon="4.5263">
        <ele>1192</ele>
        <time>2024-05-22T07:18:13Z</time>
      </trkpt>
      <trkpt lat="45.13275" lon="4.52628">
        <ele>1192</ele>
        <time>2024-05-22T07:18:18Z</time>
      </trkpt>
      <trkpt lat="45.13279" lon="4.52623">
        <ele>1192</ele>
        <time>2024-05-22T07:18:30Z</time>
      </trkpt>
      <trkpt lat="45.13262" lon="4.52585">
        <ele>1189</ele>
        <time>2024-05-22T07:23:19Z</time>
      </trkpt>
      <trkpt lat="45.13261" lon="4.52586">
        <ele>1189</ele>
        <time>2024-05-22T07:23:20Z</time>
      </trkpt>
      <trkpt lat="45.13256" lon="4.52573">
        <ele>1188</ele>
        <time>2024-05-22T07:23:29Z</time>
      </trkpt>
      <trkpt lat="45.13256" lon="4.52566">
        <ele>1188</ele>
        <time>2024-05-22T07:23:33Z</time>
      </trkpt>
      <trkpt lat="45.13253" lon="4.52557">
        <ele>1187</ele>
        <time>2024-05-22T07:23:40Z</time>
      </trkpt>
      <trkpt lat="45.13252" lon="4.52549">
        <ele>1187</ele>
        <time>2024-05-22T07:23:44Z</time>
      </trkpt>
      <trkpt lat="45.13249" lon="4.52543">
        <ele>1187</ele>
        <time>2024-05-22T07:23:48Z</time>
      </trkpt>
      <trkpt lat="45.13249" lon="4.52534">
        <ele>1186</ele>
        <time>2024-05-22T07:23:54Z</time>
      </trkpt>
      <trkpt lat="45.13245" lon="4.52528">
        <ele>1186</ele>
        <time>2024-05-22T07:23:58Z</time>
      </trkpt>
      <trkpt lat="45.13245" lon="4.52522">
        <ele>1185</ele>
        <time>2024-05-22T07:24:02Z</time>
      </trkpt>
      <trkpt lat="45.13242" lon="4.52514">
        <ele>1185</ele>
        <time>2024-05-22T07:24:10Z</time>
      </trkpt>
      <trkpt lat="45.1324" lon="4.5251">
        <ele>1184</ele>
        <time>2024-05-22T07:24:13Z</time>
      </trkpt>
      <trkpt lat="45.13238" lon="4.52502">
        <ele>1184</ele>
        <time>2024-05-22T07:24:19Z</time>
      </trkpt>
      <trkpt lat="45.13237" lon="4.52496">
        <ele>1183</ele>
        <time>2024-05-22T07:24:23Z</time>
      </trkpt>
      <trkpt lat="45.13234" lon="4.5249">
        <ele>1183</ele>
        <time>2024-05-22T07:24:27Z</time>
      </trkpt>
      <trkpt lat="45.1323" lon="4.52486">
        <ele>1183</ele>
        <time>2024-05-22T07:24:31Z</time>
      </trkpt>
      <trkpt lat="45.13224" lon="4.52466">
        <ele>1181</ele>
        <time>2024-05-22T07:24:42Z</time>
      </trkpt>
      <trkpt lat="45.13224" lon="4.5246">
        <ele>1181</ele>
        <time>2024-05-22T07:24:45Z</time>
      </trkpt>
      <trkpt lat="45.1322" lon="4.52455">
        <ele>1180</ele>
        <time>2024-05-22T07:24:51Z</time>
      </trkpt>
      <trkpt lat="45.13217" lon="4.52449">
        <ele>1180</ele>
        <time>2024-05-22T07:24:54Z</time>
      </trkpt>
      <trkpt lat="45.13216" lon="4.52442">
        <ele>1179</ele>
        <time>2024-05-22T07:24:59Z</time>
      </trkpt>
      <trkpt lat="45.13214" lon="4.52436">
        <ele>1179</ele>
        <time>2024-05-22T07:25:02Z</time>
      </trkpt>
      <trkpt lat="45.13207" lon="4.52415">
        <ele>1177</ele>
        <time>2024-05-22T07:25:17Z</time>
      </trkpt>
      <trkpt lat="45.13198" lon="4.52408">
        <ele>1176</ele>
        <time>2024-05-22T07:25:24Z</time>
      </trkpt>
      <trkpt lat="45.13195" lon="4.52403">
        <ele>1175</ele>
        <time>2024-05-22T07:25:28Z</time>
      </trkpt>
      <trkpt lat="45.13194" lon="4.52397">
        <ele>1174</ele>
        <time>2024-05-22T07:25:32Z</time>
      </trkpt>
      <trkpt lat="45.13191" lon="4.52393">
        <ele>1174</ele>
        <time>2024-05-22T07:25:36Z</time>
      </trkpt>
      <trkpt lat="45.1319" lon="4.52388">
        <ele>1172</ele>
        <time>2024-05-22T07:25:50Z</time>
      </trkpt>
      <trkpt lat="45.13185" lon="4.52375">
        <ele>1170</ele>
        <time>2024-05-22T07:26:16Z</time>
      </trkpt>
      <trkpt lat="45.13182" lon="4.52366">
        <ele>1169</ele>
        <time>2024-05-22T07:26:21Z</time>
      </trkpt>
      <trkpt lat="45.13181" lon="4.52352">
        <ele>1168</ele>
        <time>2024-05-22T07:26:29Z</time>
      </trkpt>
      <trkpt lat="45.13189" lon="4.52326">
        <ele>1166</ele>
        <time>2024-05-22T07:26:44Z</time>
      </trkpt>
      <trkpt lat="45.1319" lon="4.5232">
        <ele>1166</ele>
        <time>2024-05-22T07:26:59Z</time>
      </trkpt>
      <trkpt lat="45.13201" lon="4.52303">
        <ele>1165</ele>
        <time>2024-05-22T07:27:27Z</time>
      </trkpt>
      <trkpt lat="45.13212" lon="4.5229">
        <ele>1164</ele>
        <time>2024-05-22T07:27:38Z</time>
      </trkpt>
      <trkpt lat="45.13226" lon="4.52269">
        <ele>1163</ele>
        <time>2024-05-22T07:27:54Z</time>
      </trkpt>
      <trkpt lat="45.13229" lon="4.52263">
        <ele>1163</ele>
        <time>2024-05-22T07:27:58Z</time>
      </trkpt>
      <trkpt lat="45.13233" lon="4.52262">
        <ele>1163</ele>
        <time>2024-05-22T07:28:01Z</time>
      </trkpt>
      <trkpt lat="45.13258" lon="4.52237">
        <ele>1160</ele>
        <time>2024-05-22T07:28:34Z</time>
      </trkpt>
      <trkpt lat="45.13293" lon="4.5221">
        <ele>1156</ele>
        <time>2024-05-22T07:29:05Z</time>
      </trkpt>
      <trkpt lat="45.13302" lon="4.52207">
        <ele>1156</ele>
        <time>2024-05-22T07:29:19Z</time>
      </trkpt>
      <trkpt lat="45.13306" lon="4.52209">
        <ele>1155</ele>
        <time>2024-05-22T07:29:23Z</time>
      </trkpt>
      <trkpt lat="45.13311" lon="4.52212">
        <ele>1155</ele>
        <time>2024-05-22T07:29:27Z</time>
      </trkpt>
      <trkpt lat="45.13316" lon="4.52212">
        <ele>1156</ele>
        <time>2024-05-22T07:29:31Z</time>
      </trkpt>
      <trkpt lat="45.13326" lon="4.52225">
        <ele>1157</ele>
        <time>2024-05-22T07:29:46Z</time>
      </trkpt>
      <trkpt lat="45.13351" lon="4.52246">
        <ele>1157</ele>
        <time>2024-05-22T07:30:11Z</time>
      </trkpt>
      <trkpt lat="45.13365" lon="4.52265">
        <ele>1157</ele>
        <time>2024-05-22T07:30:27Z</time>
      </trkpt>
      <trkpt lat="45.13369" lon="4.52268">
        <ele>1157</ele>
        <time>2024-05-22T07:30:31Z</time>
      </trkpt>
      <trkpt lat="45.13376" lon="4.52277">
        <ele>1158</ele>
        <time>2024-05-22T07:30:40Z</time>
      </trkpt>
      <trkpt lat="45.1338" lon="4.52281">
        <ele>1158</ele>
        <time>2024-05-22T07:30:44Z</time>
      </trkpt>
      <trkpt lat="45.13383" lon="4.52287">
        <ele>1159</ele>
        <time>2024-05-22T07:30:49Z</time>
      </trkpt>
      <trkpt lat="45.13385" lon="4.52295">
        <ele>1160</ele>
        <time>2024-05-22T07:30:57Z</time>
      </trkpt>
      <trkpt lat="45.13406" lon="4.52333">
        <ele>1163</ele>
        <time>2024-05-22T07:31:32Z</time>
      </trkpt>
      <trkpt lat="45.13419" lon="4.52357">
        <ele>1166</ele>
        <time>2024-05-22T07:31:54Z</time>
      </trkpt>
      <trkpt lat="45.1342" lon="4.52362">
        <ele>1166</ele>
        <time>2024-05-22T07:31:58Z</time>
      </trkpt>
      <trkpt lat="45.1342" lon="4.52369">
        <ele>1167</ele>
        <time>2024-05-22T07:32:02Z</time>
      </trkpt>
      <trkpt lat="45.13429" lon="4.52376">
        <ele>1168</ele>
        <time>2024-05-22T07:32:25Z</time>
      </trkpt>
      <trkpt lat="45.13432" lon="4.52379">
        <ele>1168</ele>
        <time>2024-05-22T07:32:27Z</time>
      </trkpt>
      <trkpt lat="45.13442" lon="4.52384">
        <ele>1168</ele>
        <time>2024-05-22T07:32:34Z</time>
      </trkpt>
      <trkpt lat="45.13456" lon="4.52386">
        <ele>1167</ele>
        <time>2024-05-22T07:32:45Z</time>
      </trkpt>
      <trkpt lat="45.1346" lon="4.52388">
        <ele>1167</ele>
        <time>2024-05-22T07:32:47Z</time>
      </trkpt>
      <trkpt lat="45.13465" lon="4.52389">
        <ele>1167</ele>
        <time>2024-05-22T07:32:52Z</time>
      </trkpt>
      <trkpt lat="45.13479" lon="4.52396">
        <ele>1167</ele>
        <time>2024-05-22T07:33:05Z</time>
      </trkpt>
      <trkpt lat="45.13493" lon="4.52399">
        <ele>1167</ele>
        <time>2024-05-22T07:33:15Z</time>
      </trkpt>
      <trkpt lat="45.13519" lon="4.52419">
        <ele>1166</ele>
        <time>2024-05-22T07:33:37Z</time>
      </trkpt>
      <trkpt lat="45.13524" lon="4.52419">
        <ele>1166</ele>
        <time>2024-05-22T07:33:41Z</time>
      </trkpt>
      <trkpt lat="45.13533" lon="4.52414">
        <ele>1165</ele>
        <time>2024-05-22T07:33:49Z</time>
      </trkpt>
      <trkpt lat="45.13537" lon="4.52417">
        <ele>1165</ele>
        <time>2024-05-22T07:33:53Z</time>
      </trkpt>
      <trkpt lat="45.1354" lon="4.52421">
        <ele>1165</ele>
        <time>2024-05-22T07:33:56Z</time>
      </trkpt>
      <trkpt lat="45.13549" lon="4.52422">
        <ele>1165</ele>
        <time>2024-05-22T07:34:03Z</time>
      </trkpt>
      <trkpt lat="45.13554" lon="4.52418">
        <ele>1165</ele>
        <time>2024-05-22T07:34:06Z</time>
      </trkpt>
      <trkpt lat="45.13558" lon="4.52417">
        <ele>1165</ele>
        <time>2024-05-22T07:34:10Z</time>
      </trkpt>
      <trkpt lat="45.13563" lon="4.52417">
        <ele>1164</ele>
        <time>2024-05-22T07:34:16Z</time>
      </trkpt>
      <trkpt lat="45.13572" lon="4.52423">
        <ele>1164</ele>
        <time>2024-05-22T07:34:23Z</time>
      </trkpt>
      <trkpt lat="45.13577" lon="4.52423">
        <ele>1164</ele>
        <time>2024-05-22T07:34:27Z</time>
      </trkpt>
      <trkpt lat="45.13586" lon="4.52416">
        <ele>1163</ele>
        <time>2024-05-22T07:34:37Z</time>
      </trkpt>
      <trkpt lat="45.13594" lon="4.52416">
        <ele>1163</ele>
        <time>2024-05-22T07:34:43Z</time>
      </trkpt>
      <trkpt lat="45.13599" lon="4.52418">
        <ele>1163</ele>
        <time>2024-05-22T07:34:47Z</time>
      </trkpt>
      <trkpt lat="45.13604" lon="4.52419">
        <ele>1163</ele>
        <time>2024-05-22T07:34:50Z</time>
      </trkpt>
      <trkpt lat="45.13628" lon="4.52408">
        <ele>1161</ele>
        <time>2024-05-22T07:35:10Z</time>
      </trkpt>
      <trkpt lat="45.1364" lon="4.52398">
        <ele>1161</ele>
        <time>2024-05-22T07:35:20Z</time>
      </trkpt>
      <trkpt lat="45.13641" lon="4.52392">
        <ele>1161</ele>
        <time>2024-05-22T07:35:23Z</time>
      </trkpt>
      <trkpt lat="45.13642" lon="4.52385">
        <ele>1161</ele>
        <time>2024-05-22T07:35:27Z</time>
      </trkpt>
      <trkpt lat="45.13645" lon="4.5238">
        <ele>1161</ele>
        <time>2024-05-22T07:35:31Z</time>
      </trkpt>
      <trkpt lat="45.13644" lon="4.52373">
        <ele>1161</ele>
        <time>2024-05-22T07:35:35Z</time>
      </trkpt>
      <trkpt lat="45.13643" lon="4.52366">
        <ele>1161</ele>
        <time>2024-05-22T07:35:39Z</time>
      </trkpt>
      <trkpt lat="45.1364" lon="4.52353">
        <ele>1160</ele>
        <time>2024-05-22T07:35:47Z</time>
      </trkpt>
      <trkpt lat="45.13638" lon="4.52347">
        <ele>1160</ele>
        <time>2024-05-22T07:35:51Z</time>
      </trkpt>
      <trkpt lat="45.13637" lon="4.5234">
        <ele>1160</ele>
        <time>2024-05-22T07:35:55Z</time>
      </trkpt>
      <trkpt lat="45.13634" lon="4.52334">
        <ele>1160</ele>
        <time>2024-05-22T07:35:59Z</time>
      </trkpt>
      <trkpt lat="45.13635" lon="4.52327">
        <ele>1160</ele>
        <time>2024-05-22T07:36:04Z</time>
      </trkpt>
      <trkpt lat="45.1363" lon="4.52323">
        <ele>1160</ele>
        <time>2024-05-22T07:36:23Z</time>
      </trkpt>
      <trkpt lat="45.13627" lon="4.52318">
        <ele>1160</ele>
        <time>2024-05-22T07:36:28Z</time>
      </trkpt>
      <trkpt lat="45.13595" lon="4.52286">
        <ele>1159</ele>
        <time>2024-05-22T07:36:58Z</time>
      </trkpt>
      <trkpt lat="45.13591" lon="4.52282">
        <ele>1159</ele>
        <time>2024-05-22T07:37:02Z</time>
      </trkpt>
      <trkpt lat="45.13587" lon="4.52276">
        <ele>1159</ele>
        <time>2024-05-22T07:37:06Z</time>
      </trkpt>
      <trkpt lat="45.13575" lon="4.52265">
        <ele>1159</ele>
        <time>2024-05-22T07:37:18Z</time>
      </trkpt>
      <trkpt lat="45.13572" lon="4.52259">
        <ele>1159</ele>
        <time>2024-05-22T07:37:22Z</time>
      </trkpt>
      <trkpt lat="45.13571" lon="4.52253">
        <ele>1159</ele>
        <time>2024-05-22T07:37:26Z</time>
      </trkpt>
      <trkpt lat="45.13563" lon="4.52243">
        <ele>1159</ele>
        <time>2024-05-22T07:37:35Z</time>
      </trkpt>
      <trkpt lat="45.13558" lon="4.52232">
        <ele>1159</ele>
        <time>2024-05-22T07:37:43Z</time>
      </trkpt>
      <trkpt lat="45.13556" lon="4.52225">
        <ele>1159</ele>
        <time>2024-05-22T07:37:47Z</time>
      </trkpt>
      <trkpt lat="45.13549" lon="4.52214">
        <ele>1159</ele>
        <time>2024-05-22T07:37:55Z</time>
      </trkpt>
      <trkpt lat="45.13537" lon="4.52177">
        <ele>1159</ele>
        <time>2024-05-22T07:38:19Z</time>
      </trkpt>
      <trkpt lat="45.13529" lon="4.52167">
        <ele>1159</ele>
        <time>2024-05-22T07:38:27Z</time>
      </trkpt>
      <trkpt lat="45.13526" lon="4.52161">
        <ele>1158</ele>
        <time>2024-05-22T07:38:31Z</time>
      </trkpt>
      <trkpt lat="45.13524" lon="4.52154">
        <ele>1158</ele>
        <time>2024-05-22T07:38:35Z</time>
      </trkpt>
      <trkpt lat="45.1352" lon="4.52149">
        <ele>1158</ele>
        <time>2024-05-22T07:38:39Z</time>
      </trkpt>
      <trkpt lat="45.13518" lon="4.52135">
        <ele>1158</ele>
        <time>2024-05-22T07:38:47Z</time>
      </trkpt>
      <trkpt lat="45.13513" lon="4.52124">
        <ele>1158</ele>
        <time>2024-05-22T07:38:55Z</time>
      </trkpt>
      <trkpt lat="45.135" lon="4.52072">
        <ele>1157</ele>
        <time>2024-05-22T07:39:25Z</time>
      </trkpt>
      <trkpt lat="45.13498" lon="4.52066">
        <ele>1157</ele>
        <time>2024-05-22T07:39:29Z</time>
      </trkpt>
      <trkpt lat="45.13495" lon="4.5206">
        <ele>1157</ele>
        <time>2024-05-22T07:39:33Z</time>
      </trkpt>
      <trkpt lat="45.13495" lon="4.52053">
        <ele>1156</ele>
        <time>2024-05-22T07:39:38Z</time>
      </trkpt>
      <trkpt lat="45.13497" lon="4.5204">
        <ele>1156</ele>
        <time>2024-05-22T07:39:45Z</time>
      </trkpt>
      <trkpt lat="45.13498" lon="4.52032">
        <ele>1156</ele>
        <time>2024-05-22T07:39:49Z</time>
      </trkpt>
      <trkpt lat="45.13504" lon="4.52014">
        <ele>1155</ele>
        <time>2024-05-22T07:40:01Z</time>
      </trkpt>
      <trkpt lat="45.13507" lon="4.52009">
        <ele>1155</ele>
        <time>2024-05-22T07:40:05Z</time>
      </trkpt>
      <trkpt lat="45.13512" lon="4.52">
        <ele>1155</ele>
        <time>2024-05-22T07:40:15Z</time>
      </trkpt>
      <trkpt lat="45.13514" lon="4.51993">
        <ele>1155</ele>
        <time>2024-05-22T07:40:20Z</time>
      </trkpt>
      <trkpt lat="45.13516" lon="4.51987">
        <ele>1155</ele>
        <time>2024-05-22T07:40:48Z</time>
      </trkpt>
      <trkpt lat="45.13526" lon="4.51971">
        <ele>1154</ele>
        <time>2024-05-22T07:40:59Z</time>
      </trkpt>
      <trkpt lat="45.13529" lon="4.51965">
        <ele>1154</ele>
        <time>2024-05-22T07:41:03Z</time>
      </trkpt>
      <trkpt lat="45.13535" lon="4.51956">
        <ele>1154</ele>
        <time>2024-05-22T07:41:09Z</time>
      </trkpt>
      <trkpt lat="45.13541" lon="4.51945">
        <ele>1153</ele>
        <time>2024-05-22T07:41:16Z</time>
      </trkpt>
      <trkpt lat="45.13545" lon="4.51934">
        <ele>1153</ele>
        <time>2024-05-22T07:41:22Z</time>
      </trkpt>
      <trkpt lat="45.13547" lon="4.51927">
        <ele>1152</ele>
        <time>2024-05-22T07:41:26Z</time>
      </trkpt>
      <trkpt lat="45.13547" lon="4.51912">
        <ele>1152</ele>
        <time>2024-05-22T07:41:34Z</time>
      </trkpt>
      <trkpt lat="45.13548" lon="4.51899">
        <ele>1152</ele>
        <time>2024-05-22T07:41:41Z</time>
      </trkpt>
      <trkpt lat="45.13547" lon="4.51893">
        <ele>1152</ele>
        <time>2024-05-22T07:41:46Z</time>
      </trkpt>
      <trkpt lat="45.13545" lon="4.51886">
        <ele>1152</ele>
        <time>2024-05-22T07:41:50Z</time>
      </trkpt>
      <trkpt lat="45.13541" lon="4.5186">
        <ele>1152</ele>
        <time>2024-05-22T07:42:05Z</time>
      </trkpt>
      <trkpt lat="45.13538" lon="4.51854">
        <ele>1152</ele>
        <time>2024-05-22T07:42:09Z</time>
      </trkpt>
      <trkpt lat="45.13531" lon="4.51836">
        <ele>1151</ele>
        <time>2024-05-22T07:42:21Z</time>
      </trkpt>
      <trkpt lat="45.13522" lon="4.51827">
        <ele>1151</ele>
        <time>2024-05-22T07:42:29Z</time>
      </trkpt>
      <trkpt lat="45.13514" lon="4.51818">
        <ele>1150</ele>
        <time>2024-05-22T07:42:37Z</time>
      </trkpt>
      <trkpt lat="45.13501" lon="4.51808">
        <ele>1150</ele>
        <time>2024-05-22T07:42:48Z</time>
      </trkpt>
      <trkpt lat="45.13491" lon="4.51803">
        <ele>1149</ele>
        <time>2024-05-22T07:42:56Z</time>
      </trkpt>
      <trkpt lat="45.13482" lon="4.51796">
        <ele>1149</ele>
        <time>2024-05-22T07:43:03Z</time>
      </trkpt>
      <trkpt lat="45.13472" lon="4.51792">
        <ele>1149</ele>
        <time>2024-05-22T07:43:11Z</time>
      </trkpt>
      <trkpt lat="45.13454" lon="4.51787">
        <ele>1148</ele>
        <time>2024-05-22T07:43:26Z</time>
      </trkpt>
      <trkpt lat="45.13449" lon="4.51788">
        <ele>1148</ele>
        <time>2024-05-22T07:43:30Z</time>
      </trkpt>
      <trkpt lat="45.13436" lon="4.51779">
        <ele>1148</ele>
        <time>2024-05-22T07:43:41Z</time>
      </trkpt>
      <trkpt lat="45.13432" lon="4.51776">
        <ele>1148</ele>
        <time>2024-05-22T07:43:45Z</time>
      </trkpt>
      <trkpt lat="45.13428" lon="4.51772">
        <ele>1147</ele>
        <time>2024-05-22T07:43:50Z</time>
      </trkpt>
      <trkpt lat="45.13422" lon="4.51761">
        <ele>1148</ele>
        <time>2024-05-22T07:43:58Z</time>
      </trkpt>
      <trkpt lat="45.1342" lon="4.51747">
        <ele>1147</ele>
        <time>2024-05-22T07:44:06Z</time>
      </trkpt>
      <trkpt lat="45.13416" lon="4.51714">
        <ele>1146</ele>
        <time>2024-05-22T07:44:25Z</time>
      </trkpt>
      <trkpt lat="45.13416" lon="4.51706">
        <ele>1146</ele>
        <time>2024-05-22T07:44:29Z</time>
      </trkpt>
      <trkpt lat="45.13415" lon="4.51699">
        <ele>1145</ele>
        <time>2024-05-22T07:44:33Z</time>
      </trkpt>
      <trkpt lat="45.13411" lon="4.51665">
        <ele>1145</ele>
        <time>2024-05-22T07:44:53Z</time>
      </trkpt>
      <trkpt lat="45.13408" lon="4.51659">
        <ele>1145</ele>
        <time>2024-05-22T07:44:57Z</time>
      </trkpt>
      <trkpt lat="45.13408" lon="4.51652">
        <ele>1145</ele>
        <time>2024-05-22T07:45:01Z</time>
      </trkpt>
      <trkpt lat="45.13408" lon="4.51645">
        <ele>1145</ele>
        <time>2024-05-22T07:45:05Z</time>
      </trkpt>
      <trkpt lat="45.13406" lon="4.51634">
        <ele>1145</ele>
        <time>2024-05-22T07:45:41Z</time>
      </trkpt>
      <trkpt lat="45.13403" lon="4.51629">
        <ele>1145</ele>
        <time>2024-05-22T07:45:45Z</time>
      </trkpt>
      <trkpt lat="45.13393" lon="4.51587">
        <ele>1144</ele>
        <time>2024-05-22T07:46:16Z</time>
      </trkpt>
      <trkpt lat="45.13389" lon="4.51578">
        <ele>1144</ele>
        <time>2024-05-22T07:46:25Z</time>
      </trkpt>
      <trkpt lat="45.13387" lon="4.51571">
        <ele>1143</ele>
        <time>2024-05-22T07:46:29Z</time>
      </trkpt>
      <trkpt lat="45.13379" lon="4.51562">
        <ele>1143</ele>
        <time>2024-05-22T07:46:37Z</time>
      </trkpt>
      <trkpt lat="45.13376" lon="4.51556">
        <ele>1143</ele>
        <time>2024-05-22T07:46:41Z</time>
      </trkpt>
      <trkpt lat="45.13352" lon="4.51534">
        <ele>1142</ele>
        <time>2024-05-22T07:47:12Z</time>
      </trkpt>
      <trkpt lat="45.13321" lon="4.51503">
        <ele>1140</ele>
        <time>2024-05-22T07:47:42Z</time>
      </trkpt>
      <trkpt lat="45.13293" lon="4.51467">
        <ele>1139</ele>
        <time>2024-05-22T07:48:13Z</time>
      </trkpt>
      <trkpt lat="45.1329" lon="4.51462">
        <ele>1139</ele>
        <time>2024-05-22T07:48:17Z</time>
      </trkpt>
      <trkpt lat="45.13287" lon="4.51456">
        <ele>1139</ele>
        <time>2024-05-22T07:48:21Z</time>
      </trkpt>
      <trkpt lat="45.13283" lon="4.51452">
        <ele>1139</ele>
        <time>2024-05-22T07:48:25Z</time>
      </trkpt>
      <trkpt lat="45.1326" lon="4.5141">
        <ele>1138</ele>
        <time>2024-05-22T07:48:57Z</time>
      </trkpt>
      <trkpt lat="45.13256" lon="4.51404">
        <ele>1138</ele>
        <time>2024-05-22T07:49:01Z</time>
      </trkpt>
      <trkpt lat="45.1325" lon="4.51395">
        <ele>1138</ele>
        <time>2024-05-22T07:49:08Z</time>
      </trkpt>
      <trkpt lat="45.13244" lon="4.51392">
        <ele>1137</ele>
        <time>2024-05-22T07:49:12Z</time>
      </trkpt>
      <trkpt lat="45.13235" lon="4.51387">
        <ele>1137</ele>
        <time>2024-05-22T07:49:20Z</time>
      </trkpt>
      <trkpt lat="45.13207" lon="4.51358">
        <ele>1137</ele>
        <time>2024-05-22T07:49:50Z</time>
      </trkpt>
      <trkpt lat="45.1319" lon="4.51342">
        <ele>1136</ele>
        <time>2024-05-22T07:50:06Z</time>
      </trkpt>
      <trkpt lat="45.13186" lon="4.51337">
        <ele>1136</ele>
        <time>2024-05-22T07:50:11Z</time>
      </trkpt>
      <trkpt lat="45.13157" lon="4.5131">
        <ele>1136</ele>
        <time>2024-05-22T07:50:39Z</time>
      </trkpt>
      <trkpt lat="45.13146" lon="4.51297">
        <ele>1136</ele>
        <time>2024-05-22T07:50:51Z</time>
      </trkpt>
      <trkpt lat="45.13138" lon="4.51291">
        <ele>1136</ele>
        <time>2024-05-22T07:50:58Z</time>
      </trkpt>
      <trkpt lat="45.13125" lon="4.51281">
        <ele>1135</ele>
        <time>2024-05-22T07:51:10Z</time>
      </trkpt>
      <trkpt lat="45.13114" lon="4.51267">
        <ele>1135</ele>
        <time>2024-05-22T07:51:22Z</time>
      </trkpt>
      <trkpt lat="45.13106" lon="4.51259">
        <ele>1135</ele>
        <time>2024-05-22T07:51:30Z</time>
      </trkpt>
      <trkpt lat="45.13103" lon="4.51253">
        <ele>1135</ele>
        <time>2024-05-22T07:51:34Z</time>
      </trkpt>
      <trkpt lat="45.13098" lon="4.51248">
        <ele>1135</ele>
        <time>2024-05-22T07:51:39Z</time>
      </trkpt>
      <trkpt lat="45.13092" lon="4.51239">
        <ele>1135</ele>
        <time>2024-05-22T07:51:47Z</time>
      </trkpt>
      <trkpt lat="45.13082" lon="4.51215">
        <ele>1135</ele>
        <time>2024-05-22T07:52:07Z</time>
      </trkpt>
      <trkpt lat="45.1308" lon="4.51206">
        <ele>1135</ele>
        <time>2024-05-22T07:52:16Z</time>
      </trkpt>
      <trkpt lat="45.13073" lon="4.51182">
        <ele>1134</ele>
        <time>2024-05-22T07:52:31Z</time>
      </trkpt>
      <trkpt lat="45.13063" lon="4.51128">
        <ele>1133</ele>
        <time>2024-05-22T07:53:04Z</time>
      </trkpt>
      <trkpt lat="45.1306" lon="4.51122">
        <ele>1133</ele>
        <time>2024-05-22T07:53:08Z</time>
      </trkpt>
      <trkpt lat="45.13059" lon="4.51115">
        <ele>1133</ele>
        <time>2024-05-22T07:53:13Z</time>
      </trkpt>
      <trkpt lat="45.13056" lon="4.51104">
        <ele>1133</ele>
        <time>2024-05-22T07:53:20Z</time>
      </trkpt>
      <trkpt lat="45.13043" lon="4.51085">
        <ele>1133</ele>
        <time>2024-05-22T07:53:32Z</time>
      </trkpt>
      <trkpt lat="45.1304" lon="4.51082">
        <ele>1133</ele>
        <time>2024-05-22T07:53:35Z</time>
      </trkpt>
      <trkpt lat="45.1303" lon="4.51079">
        <ele>1133</ele>
        <time>2024-05-22T07:53:41Z</time>
      </trkpt>
      <trkpt lat="45.1302" lon="4.51081">
        <ele>1132</ele>
        <time>2024-05-22T07:53:49Z</time>
      </trkpt>
      <trkpt lat="45.13006" lon="4.51088">
        <ele>1132</ele>
        <time>2024-05-22T07:54:01Z</time>
      </trkpt>
      <trkpt lat="45.12971" lon="4.51091">
        <ele>1130</ele>
        <time>2024-05-22T07:54:32Z</time>
      </trkpt>
      <trkpt lat="45.12961" lon="4.51096">
        <ele>1130</ele>
        <time>2024-05-22T07:54:40Z</time>
      </trkpt>
      <trkpt lat="45.12956" lon="4.51093">
        <ele>1130</ele>
        <time>2024-05-22T07:54:44Z</time>
      </trkpt>
      <trkpt lat="45.12948" lon="4.51097">
        <ele>1130</ele>
        <time>2024-05-22T07:54:55Z</time>
      </trkpt>
      <trkpt lat="45.12908" lon="4.51105">
        <ele>1129</ele>
        <time>2024-05-22T07:55:27Z</time>
      </trkpt>
      <trkpt lat="45.12898" lon="4.51103">
        <ele>1129</ele>
        <time>2024-05-22T07:55:35Z</time>
      </trkpt>
      <trkpt lat="45.12873" lon="4.51093">
        <ele>1129</ele>
        <time>2024-05-22T07:55:56Z</time>
      </trkpt>
      <trkpt lat="45.1287" lon="4.5109">
        <ele>1129</ele>
        <time>2024-05-22T07:55:59Z</time>
      </trkpt>
      <trkpt lat="45.12861" lon="4.51083">
        <ele>1128</ele>
        <time>2024-05-22T07:56:07Z</time>
      </trkpt>
      <trkpt lat="45.12858" lon="4.51077">
        <ele>1128</ele>
        <time>2024-05-22T07:56:11Z</time>
      </trkpt>
      <trkpt lat="45.12853" lon="4.51073">
        <ele>1127</ele>
        <time>2024-05-22T07:56:15Z</time>
      </trkpt>
      <trkpt lat="45.12851" lon="4.51067">
        <ele>1127</ele>
        <time>2024-05-22T07:56:19Z</time>
      </trkpt>
      <trkpt lat="45.12827" lon="4.51028">
        <ele>1127</ele>
        <time>2024-05-22T07:56:50Z</time>
      </trkpt>
      <trkpt lat="45.12816" lon="4.51004">
        <ele>1125</ele>
        <time>2024-05-22T07:57:07Z</time>
      </trkpt>
      <trkpt lat="45.12806" lon="4.50981">
        <ele>1125</ele>
        <time>2024-05-22T07:57:22Z</time>
      </trkpt>
      <trkpt lat="45.12802" lon="4.50969">
        <ele>1125</ele>
        <time>2024-05-22T07:57:29Z</time>
      </trkpt>
      <trkpt lat="45.12797" lon="4.50959">
        <ele>1125</ele>
        <time>2024-05-22T07:57:36Z</time>
      </trkpt>
      <trkpt lat="45.12794" lon="4.50955">
        <ele>1125</ele>
        <time>2024-05-22T07:57:40Z</time>
      </trkpt>
      <trkpt lat="45.12784" lon="4.50942">
        <ele>1123</ele>
        <time>2024-05-22T07:57:53Z</time>
      </trkpt>
      <trkpt lat="45.1278" lon="4.50939">
        <ele>1123</ele>
        <time>2024-05-22T07:57:57Z</time>
      </trkpt>
      <trkpt lat="45.12771" lon="4.50937">
        <ele>1122</ele>
        <time>2024-05-22T07:58:05Z</time>
      </trkpt>
      <trkpt lat="45.12767" lon="4.50937">
        <ele>1121</ele>
        <time>2024-05-22T07:58:09Z</time>
      </trkpt>
      <trkpt lat="45.12763" lon="4.50934">
        <ele>1120</ele>
        <time>2024-05-22T07:58:13Z</time>
      </trkpt>
      <trkpt lat="45.12758" lon="4.50937">
        <ele>1120</ele>
        <time>2024-05-22T07:58:17Z</time>
      </trkpt>
      <trkpt lat="45.12754" lon="4.50938">
        <ele>1119</ele>
        <time>2024-05-22T07:58:20Z</time>
      </trkpt>
      <trkpt lat="45.12749" lon="4.50937">
        <ele>1119</ele>
        <time>2024-05-22T07:58:25Z</time>
      </trkpt>
      <trkpt lat="45.12731" lon="4.50933">
        <ele>1118</ele>
        <time>2024-05-22T07:58:46Z</time>
      </trkpt>
      <trkpt lat="45.12726" lon="4.50935">
        <ele>1118</ele>
        <time>2024-05-22T07:58:51Z</time>
      </trkpt>
      <trkpt lat="45.12722" lon="4.50934">
        <ele>1118</ele>
        <time>2024-05-22T07:58:54Z</time>
      </trkpt>
      <trkpt lat="45.12715" lon="4.50935">
        <ele>1117</ele>
        <time>2024-05-22T07:59:01Z</time>
      </trkpt>
      <trkpt lat="45.12707" lon="4.50929">
        <ele>1117</ele>
        <time>2024-05-22T07:59:11Z</time>
      </trkpt>
      <trkpt lat="45.12703" lon="4.50932">
        <ele>1117</ele>
        <time>2024-05-22T07:59:15Z</time>
      </trkpt>
      <trkpt lat="45.12699" lon="4.50929">
        <ele>1116</ele>
        <time>2024-05-22T07:59:19Z</time>
      </trkpt>
      <trkpt lat="45.12694" lon="4.5093">
        <ele>1116</ele>
        <time>2024-05-22T07:59:23Z</time>
      </trkpt>
      <trkpt lat="45.12689" lon="4.5093">
        <ele>1116</ele>
        <time>2024-05-22T07:59:26Z</time>
      </trkpt>
      <trkpt lat="45.12663" lon="4.50932">
        <ele>1113</ele>
        <time>2024-05-22T07:59:47Z</time>
      </trkpt>
      <trkpt lat="45.12659" lon="4.50935">
        <ele>1112</ele>
        <time>2024-05-22T07:59:50Z</time>
      </trkpt>
      <trkpt lat="45.12651" lon="4.5093">
        <ele>1112</ele>
        <time>2024-05-22T07:59:56Z</time>
      </trkpt>
      <trkpt lat="45.12632" lon="4.50913">
        <ele>1111</ele>
        <time>2024-05-22T08:00:12Z</time>
      </trkpt>
      <trkpt lat="45.12629" lon="4.50906">
        <ele>1110</ele>
        <time>2024-05-22T08:00:16Z</time>
      </trkpt>
      <trkpt lat="45.12625" lon="4.50903">
        <ele>1110</ele>
        <time>2024-05-22T08:00:20Z</time>
      </trkpt>
      <trkpt lat="45.12622" lon="4.50896">
        <ele>1109</ele>
        <time>2024-05-22T08:00:28Z</time>
      </trkpt>
      <trkpt lat="45.12617" lon="4.50893">
        <ele>1109</ele>
        <time>2024-05-22T08:00:32Z</time>
      </trkpt>
      <trkpt lat="45.12612" lon="4.50888">
        <ele>1109</ele>
        <time>2024-05-22T08:00:40Z</time>
      </trkpt>
      <trkpt lat="45.12607" lon="4.50885">
        <ele>1109</ele>
        <time>2024-05-22T08:00:42Z</time>
      </trkpt>
      <trkpt lat="45.12604" lon="4.50881">
        <ele>1108</ele>
        <time>2024-05-22T08:00:48Z</time>
      </trkpt>
      <trkpt lat="45.12599" lon="4.50878">
        <ele>1108</ele>
        <time>2024-05-22T08:00:53Z</time>
      </trkpt>
      <trkpt lat="45.12578" lon="4.50859">
        <ele>1108</ele>
        <time>2024-05-22T08:01:15Z</time>
      </trkpt>
      <trkpt lat="45.12564" lon="4.50853">
        <ele>1107</ele>
        <time>2024-05-22T08:01:27Z</time>
      </trkpt>
      <trkpt lat="45.12559" lon="4.5085">
        <ele>1107</ele>
        <time>2024-05-22T08:01:31Z</time>
      </trkpt>
      <trkpt lat="45.1255" lon="4.50848">
        <ele>1107</ele>
        <time>2024-05-22T08:01:38Z</time>
      </trkpt>
      <trkpt lat="45.12536" lon="4.50853">
        <ele>1106</ele>
        <time>2024-05-22T08:01:49Z</time>
      </trkpt>
      <trkpt lat="45.12532" lon="4.5085">
        <ele>1105</ele>
        <time>2024-05-22T08:01:52Z</time>
      </trkpt>
      <trkpt lat="45.12518" lon="4.50852">
        <ele>1103</ele>
        <time>2024-05-22T08:02:05Z</time>
      </trkpt>
      <trkpt lat="45.12514" lon="4.5085">
        <ele>1103</ele>
        <time>2024-05-22T08:02:09Z</time>
      </trkpt>
      <trkpt lat="45.125" lon="4.5085">
        <ele>1102</ele>
        <time>2024-05-22T08:02:20Z</time>
      </trkpt>
      <trkpt lat="45.12496" lon="4.50847">
        <ele>1102</ele>
        <time>2024-05-22T08:02:26Z</time>
      </trkpt>
      <trkpt lat="45.12477" lon="4.50844">
        <ele>1102</ele>
        <time>2024-05-22T08:02:38Z</time>
      </trkpt>
      <trkpt lat="45.12474" lon="4.50838">
        <ele>1102</ele>
        <time>2024-05-22T08:02:44Z</time>
      </trkpt>
      <trkpt lat="45.12469" lon="4.50837">
        <ele>1102</ele>
        <time>2024-05-22T08:02:48Z</time>
      </trkpt>
      <trkpt lat="45.12462" lon="4.50831">
        <ele>1102</ele>
        <time>2024-05-22T08:02:55Z</time>
      </trkpt>
      <trkpt lat="45.12455" lon="4.50828">
        <ele>1103</ele>
        <time>2024-05-22T08:03:01Z</time>
      </trkpt>
      <trkpt lat="45.1245" lon="4.50821">
        <ele>1103</ele>
        <time>2024-05-22T08:03:09Z</time>
      </trkpt>
      <trkpt lat="45.12445" lon="4.50817">
        <ele>1104</ele>
        <time>2024-05-22T08:03:13Z</time>
      </trkpt>
      <trkpt lat="45.1244" lon="4.50815">
        <ele>1104</ele>
        <time>2024-05-22T08:03:17Z</time>
      </trkpt>
      <trkpt lat="45.12418" lon="4.50801">
        <ele>1106</ele>
        <time>2024-05-22T08:03:39Z</time>
      </trkpt>
      <trkpt lat="45.12413" lon="4.50795">
        <ele>1107</ele>
        <time>2024-05-22T08:03:46Z</time>
      </trkpt>
      <trkpt lat="45.12408" lon="4.50791">
        <ele>1108</ele>
        <time>2024-05-22T08:03:53Z</time>
      </trkpt>
      <trkpt lat="45.12404" lon="4.50789">
        <ele>1109</ele>
        <time>2024-05-22T08:03:58Z</time>
      </trkpt>
      <trkpt lat="45.12396" lon="4.50782">
        <ele>1111</ele>
        <time>2024-05-22T08:04:08Z</time>
      </trkpt>
      <trkpt lat="45.12393" lon="4.50772">
        <ele>1111</ele>
        <time>2024-05-22T08:04:17Z</time>
      </trkpt>
      <trkpt lat="45.12382" lon="4.50759">
        <ele>1110</ele>
        <time>2024-05-22T08:04:29Z</time>
      </trkpt>
      <trkpt lat="45.12368" lon="4.50743">
        <ele>1110</ele>
        <time>2024-05-22T08:04:55Z</time>
      </trkpt>
      <trkpt lat="45.12354" lon="4.50723">
        <ele>1108</ele>
        <time>2024-05-22T08:05:14Z</time>
      </trkpt>
      <trkpt lat="45.12347" lon="4.50718">
        <ele>1107</ele>
        <time>2024-05-22T08:05:22Z</time>
      </trkpt>
      <trkpt lat="45.12323" lon="4.50678">
        <ele>1100</ele>
        <time>2024-05-22T08:05:54Z</time>
      </trkpt>
      <trkpt lat="45.12322" lon="4.5067">
        <ele>1100</ele>
        <time>2024-05-22T08:05:58Z</time>
      </trkpt>
      <trkpt lat="45.12317" lon="4.50664">
        <ele>1099</ele>
        <time>2024-05-22T08:06:02Z</time>
      </trkpt>
      <trkpt lat="45.12317" lon="4.50657">
        <ele>1098</ele>
        <time>2024-05-22T08:06:06Z</time>
      </trkpt>
      <trkpt lat="45.12314" lon="4.50651">
        <ele>1098</ele>
        <time>2024-05-22T08:06:10Z</time>
      </trkpt>
      <trkpt lat="45.12311" lon="4.50646">
        <ele>1097</ele>
        <time>2024-05-22T08:06:13Z</time>
      </trkpt>
      <trkpt lat="45.1231" lon="4.50639">
        <ele>1096</ele>
        <time>2024-05-22T08:06:17Z</time>
      </trkpt>
      <trkpt lat="45.12306" lon="4.50636">
        <ele>1096</ele>
        <time>2024-05-22T08:06:20Z</time>
      </trkpt>
      <trkpt lat="45.12302" lon="4.50623">
        <ele>1094</ele>
        <time>2024-05-22T08:06:28Z</time>
      </trkpt>
      <trkpt lat="45.12298" lon="4.50621">
        <ele>1093</ele>
        <time>2024-05-22T08:06:33Z</time>
      </trkpt>
      <trkpt lat="45.12296" lon="4.50615">
        <ele>1093</ele>
        <time>2024-05-22T08:06:38Z</time>
      </trkpt>
      <trkpt lat="45.12296" lon="4.50607">
        <ele>1092</ele>
        <time>2024-05-22T08:06:42Z</time>
      </trkpt>
      <trkpt lat="45.12294" lon="4.50601">
        <ele>1091</ele>
        <time>2024-05-22T08:06:46Z</time>
      </trkpt>
      <trkpt lat="45.12286" lon="4.50593">
        <ele>1089</ele>
        <time>2024-05-22T08:06:59Z</time>
      </trkpt>
      <trkpt lat="45.12275" lon="4.50556">
        <ele>1084</ele>
        <time>2024-05-22T08:07:36Z</time>
      </trkpt>
      <trkpt lat="45.12274" lon="4.50546">
        <ele>1082</ele>
        <time>2024-05-22T08:07:44Z</time>
      </trkpt>
      <trkpt lat="45.12271" lon="4.5054">
        <ele>1081</ele>
        <time>2024-05-22T08:07:52Z</time>
      </trkpt>
      <trkpt lat="45.12269" lon="4.50534">
        <ele>1080</ele>
        <time>2024-05-22T08:08:10Z</time>
      </trkpt>
      <trkpt lat="45.12264" lon="4.50528">
        <ele>1080</ele>
        <time>2024-05-22T08:08:22Z</time>
      </trkpt>
      <trkpt lat="45.12257" lon="4.50519">
        <ele>1079</ele>
        <time>2024-05-22T08:08:30Z</time>
      </trkpt>
      <trkpt lat="45.12243" lon="4.50489">
        <ele>1076</ele>
        <time>2024-05-22T08:08:50Z</time>
      </trkpt>
      <trkpt lat="45.12235" lon="4.5048">
        <ele>1075</ele>
        <time>2024-05-22T08:08:58Z</time>
      </trkpt>
      <trkpt lat="45.12233" lon="4.50474">
        <ele>1075</ele>
        <time>2024-05-22T08:09:03Z</time>
      </trkpt>
      <trkpt lat="45.12222" lon="4.50451">
        <ele>1074</ele>
        <time>2024-05-22T08:09:19Z</time>
      </trkpt>
      <trkpt lat="45.12221" lon="4.50437">
        <ele>1072</ele>
        <time>2024-05-22T08:09:29Z</time>
      </trkpt>
      <trkpt lat="45.12221" lon="4.50431">
        <ele>1072</ele>
        <time>2024-05-22T08:09:33Z</time>
      </trkpt>
      <trkpt lat="45.12217" lon="4.5042">
        <ele>1070</ele>
        <time>2024-05-22T08:09:52Z</time>
      </trkpt>
      <trkpt lat="45.12194" lon="4.50399">
        <ele>1068</ele>
        <time>2024-05-22T08:10:27Z</time>
      </trkpt>
      <trkpt lat="45.12192" lon="4.50394">
        <ele>1067</ele>
        <time>2024-05-22T08:10:29Z</time>
      </trkpt>
      <trkpt lat="45.12179" lon="4.50385">
        <ele>1066</ele>
        <time>2024-05-22T08:10:39Z</time>
      </trkpt>
      <trkpt lat="45.12175" lon="4.50381">
        <ele>1066</ele>
        <time>2024-05-22T08:10:43Z</time>
      </trkpt>
      <trkpt lat="45.1217" lon="4.50379">
        <ele>1066</ele>
        <time>2024-05-22T08:10:47Z</time>
      </trkpt>
      <trkpt lat="45.12154" lon="4.50361">
        <ele>1066</ele>
        <time>2024-05-22T08:11:02Z</time>
      </trkpt>
      <trkpt lat="45.12153" lon="4.50355">
        <ele>1066</ele>
        <time>2024-05-22T08:11:05Z</time>
      </trkpt>
      <trkpt lat="45.1215" lon="4.50349">
        <ele>1066</ele>
        <time>2024-05-22T08:11:10Z</time>
      </trkpt>
      <trkpt lat="45.12146" lon="4.50345">
        <ele>1066</ele>
        <time>2024-05-22T08:11:14Z</time>
      </trkpt>
      <trkpt lat="45.12145" lon="4.50339">
        <ele>1066</ele>
        <time>2024-05-22T08:11:18Z</time>
      </trkpt>
      <trkpt lat="45.12142" lon="4.50334">
        <ele>1066</ele>
        <time>2024-05-22T08:11:22Z</time>
      </trkpt>
      <trkpt lat="45.12138" lon="4.5033">
        <ele>1065</ele>
        <time>2024-05-22T08:11:26Z</time>
      </trkpt>
      <trkpt lat="45.12129" lon="4.50323">
        <ele>1064</ele>
        <time>2024-05-22T08:11:35Z</time>
      </trkpt>
      <trkpt lat="45.12125" lon="4.50318">
        <ele>1063</ele>
        <time>2024-05-22T08:11:40Z</time>
      </trkpt>
      <trkpt lat="45.12122" lon="4.50314">
        <ele>1063</ele>
        <time>2024-05-22T08:11:44Z</time>
      </trkpt>
      <trkpt lat="45.12117" lon="4.50311">
        <ele>1061</ele>
        <time>2024-05-22T08:11:50Z</time>
      </trkpt>
      <trkpt lat="45.12112" lon="4.50311">
        <ele>1061</ele>
        <time>2024-05-22T08:11:54Z</time>
      </trkpt>
      <trkpt lat="45.12103" lon="4.50305">
        <ele>1059</ele>
        <time>2024-05-22T08:12:02Z</time>
      </trkpt>
      <trkpt lat="45.121" lon="4.503">
        <ele>1059</ele>
        <time>2024-05-22T08:12:06Z</time>
      </trkpt>
      <trkpt lat="45.12094" lon="4.50288">
        <ele>1057</ele>
        <time>2024-05-22T08:12:14Z</time>
      </trkpt>
      <trkpt lat="45.1209" lon="4.50285">
        <ele>1056</ele>
        <time>2024-05-22T08:12:18Z</time>
      </trkpt>
      <trkpt lat="45.12087" lon="4.50276">
        <ele>1055</ele>
        <time>2024-05-22T08:12:25Z</time>
      </trkpt>
      <trkpt lat="45.1208" lon="4.50267">
        <ele>1053</ele>
        <time>2024-05-22T08:12:33Z</time>
      </trkpt>
      <trkpt lat="45.12076" lon="4.50264">
        <ele>1052</ele>
        <time>2024-05-22T08:12:37Z</time>
      </trkpt>
      <trkpt lat="45.12075" lon="4.50256">
        <ele>1052</ele>
        <time>2024-05-22T08:12:41Z</time>
      </trkpt>
      <trkpt lat="45.12069" lon="4.50245">
        <ele>1050</ele>
        <time>2024-05-22T08:12:48Z</time>
      </trkpt>
      <trkpt lat="45.12065" lon="4.50241">
        <ele>1049</ele>
        <time>2024-05-22T08:12:52Z</time>
      </trkpt>
      <trkpt lat="45.12062" lon="4.50236">
        <ele>1049</ele>
        <time>2024-05-22T08:12:56Z</time>
      </trkpt>
      <trkpt lat="45.12044" lon="4.50224">
        <ele>1047</ele>
        <time>2024-05-22T08:13:12Z</time>
      </trkpt>
      <trkpt lat="45.12041" lon="4.50219">
        <ele>1047</ele>
        <time>2024-05-22T08:13:16Z</time>
      </trkpt>
      <trkpt lat="45.12036" lon="4.50216">
        <ele>1046</ele>
        <time>2024-05-22T08:13:20Z</time>
      </trkpt>
      <trkpt lat="45.12032" lon="4.50216">
        <ele>1046</ele>
        <time>2024-05-22T08:13:24Z</time>
      </trkpt>
      <trkpt lat="45.12027" lon="4.50214">
        <ele>1045</ele>
        <time>2024-05-22T08:13:29Z</time>
      </trkpt>
      <trkpt lat="45.1202" lon="4.50207">
        <ele>1044</ele>
        <time>2024-05-22T08:13:36Z</time>
      </trkpt>
      <trkpt lat="45.12008" lon="4.502">
        <ele>1040</ele>
        <time>2024-05-22T08:13:51Z</time>
      </trkpt>
      <trkpt lat="45.12006" lon="4.50193">
        <ele>1040</ele>
        <time>2024-05-22T08:13:54Z</time>
      </trkpt>
      <trkpt lat="45.12001" lon="4.50191">
        <ele>1039</ele>
        <time>2024-05-22T08:13:57Z</time>
      </trkpt>
      <trkpt lat="45.11994" lon="4.50186">
        <ele>1038</ele>
        <time>2024-05-22T08:14:02Z</time>
      </trkpt>
      <trkpt lat="45.11987" lon="4.50179">
        <ele>1038</ele>
        <time>2024-05-22T08:14:08Z</time>
      </trkpt>
      <trkpt lat="45.11985" lon="4.50173">
        <ele>1038</ele>
        <time>2024-05-22T08:14:12Z</time>
      </trkpt>
      <trkpt lat="45.11981" lon="4.50168">
        <ele>1037</ele>
        <time>2024-05-22T08:14:16Z</time>
      </trkpt>
      <trkpt lat="45.11971" lon="4.50164">
        <ele>1037</ele>
        <time>2024-05-22T08:14:24Z</time>
      </trkpt>
      <trkpt lat="45.11967" lon="4.50158">
        <ele>1036</ele>
        <time>2024-05-22T08:14:28Z</time>
      </trkpt>
      <trkpt lat="45.11964" lon="4.50152">
        <ele>1035</ele>
        <time>2024-05-22T08:14:32Z</time>
      </trkpt>
      <trkpt lat="45.1196" lon="4.5015">
        <ele>1035</ele>
        <time>2024-05-22T08:14:36Z</time>
      </trkpt>
      <trkpt lat="45.11959" lon="4.50142">
        <ele>1035</ele>
        <time>2024-05-22T08:14:42Z</time>
      </trkpt>
      <trkpt lat="45.11955" lon="4.50138">
        <ele>1035</ele>
        <time>2024-05-22T08:14:44Z</time>
      </trkpt>
      <trkpt lat="45.11945" lon="4.50127">
        <ele>1034</ele>
        <time>2024-05-22T08:14:56Z</time>
      </trkpt>
      <trkpt lat="45.11941" lon="4.50119">
        <ele>1033</ele>
        <time>2024-05-22T08:15:03Z</time>
      </trkpt>
      <trkpt lat="45.11932" lon="4.50113">
        <ele>1031</ele>
        <time>2024-05-22T08:15:10Z</time>
      </trkpt>
      <trkpt lat="45.11923" lon="4.5009">
        <ele>1029</ele>
        <time>2024-05-22T08:15:26Z</time>
      </trkpt>
      <trkpt lat="45.11919" lon="4.50076">
        <ele>1028</ele>
        <time>2024-05-22T08:15:34Z</time>
      </trkpt>
      <trkpt lat="45.1192" lon="4.50049">
        <ele>1026</ele>
        <time>2024-05-22T08:15:51Z</time>
      </trkpt>
      <trkpt lat="45.11927" lon="4.50022">
        <ele>1023</ele>
        <time>2024-05-22T08:16:07Z</time>
      </trkpt>
      <trkpt lat="45.11927" lon="4.50015">
        <ele>1023</ele>
        <time>2024-05-22T08:16:11Z</time>
      </trkpt>
      <trkpt lat="45.11928" lon="4.50002">
        <ele>1022</ele>
        <time>2024-05-22T08:16:18Z</time>
      </trkpt>
      <trkpt lat="45.11929" lon="4.49995">
        <ele>1021</ele>
        <time>2024-05-22T08:16:22Z</time>
      </trkpt>
      <trkpt lat="45.1193" lon="4.49988">
        <ele>1021</ele>
        <time>2024-05-22T08:16:26Z</time>
      </trkpt>
      <trkpt lat="45.1194" lon="4.49965">
        <ele>1018</ele>
        <time>2024-05-22T08:16:43Z</time>
      </trkpt>
      <trkpt lat="45.11941" lon="4.49952">
        <ele>1016</ele>
        <time>2024-05-22T08:16:54Z</time>
      </trkpt>
      <trkpt lat="45.11942" lon="4.49934">
        <ele>1012</ele>
        <time>2024-05-22T08:17:15Z</time>
      </trkpt>
      <trkpt lat="45.11942" lon="4.4992">
        <ele>1011</ele>
        <time>2024-05-22T08:17:22Z</time>
      </trkpt>
      <trkpt lat="45.11945" lon="4.49915">
        <ele>1010</ele>
        <time>2024-05-22T08:17:27Z</time>
      </trkpt>
      <trkpt lat="45.1194" lon="4.49913">
        <ele>1009</ele>
        <time>2024-05-22T08:17:29Z</time>
      </trkpt>
      <trkpt lat="45.1194" lon="4.49901">
        <ele>1007</ele>
        <time>2024-05-22T08:17:37Z</time>
      </trkpt>
      <trkpt lat="45.11935" lon="4.499">
        <ele>1006</ele>
        <time>2024-05-22T08:17:41Z</time>
      </trkpt>
      <trkpt lat="45.11929" lon="4.49895">
        <ele>1005</ele>
        <time>2024-05-22T08:17:48Z</time>
      </trkpt>
      <trkpt lat="45.11926" lon="4.49889">
        <ele>1004</ele>
        <time>2024-05-22T08:17:52Z</time>
      </trkpt>
      <trkpt lat="45.11921" lon="4.49888">
        <ele>1004</ele>
        <time>2024-05-22T08:17:56Z</time>
      </trkpt>
      <trkpt lat="45.11919" lon="4.49881">
        <ele>1003</ele>
        <time>2024-05-22T08:18:01Z</time>
      </trkpt>
      <trkpt lat="45.11907" lon="4.49869">
        <ele>1001</ele>
        <time>2024-05-22T08:18:13Z</time>
      </trkpt>
      <trkpt lat="45.11903" lon="4.49863">
        <ele>1000</ele>
        <time>2024-05-22T08:18:17Z</time>
      </trkpt>
      <trkpt lat="45.11899" lon="4.49861">
        <ele>1000</ele>
        <time>2024-05-22T08:18:20Z</time>
      </trkpt>
      <trkpt lat="45.11896" lon="4.49856">
        <ele>999</ele>
        <time>2024-05-22T08:18:23Z</time>
      </trkpt>
      <trkpt lat="45.11895" lon="4.4985">
        <ele>999</ele>
        <time>2024-05-22T08:18:26Z</time>
      </trkpt>
      <trkpt lat="45.11892" lon="4.49845">
        <ele>999</ele>
        <time>2024-05-22T08:18:30Z</time>
      </trkpt>
      <trkpt lat="45.11876" lon="4.49829">
        <ele>997</ele>
        <time>2024-05-22T08:18:46Z</time>
      </trkpt>
      <trkpt lat="45.11871" lon="4.49826">
        <ele>997</ele>
        <time>2024-05-22T08:18:50Z</time>
      </trkpt>
      <trkpt lat="45.11868" lon="4.49821">
        <ele>996</ele>
        <time>2024-05-22T08:18:54Z</time>
      </trkpt>
      <trkpt lat="45.11863" lon="4.49818">
        <ele>996</ele>
        <time>2024-05-22T08:18:59Z</time>
      </trkpt>
      <trkpt lat="45.11858" lon="4.49816">
        <ele>996</ele>
        <time>2024-05-22T08:19:04Z</time>
      </trkpt>
      <trkpt lat="45.1185" lon="4.49808">
        <ele>996</ele>
        <time>2024-05-22T08:19:11Z</time>
      </trkpt>
      <trkpt lat="45.11846" lon="4.49805">
        <ele>995</ele>
        <time>2024-05-22T08:19:15Z</time>
      </trkpt>
      <trkpt lat="45.11838" lon="4.49793">
        <ele>995</ele>
        <time>2024-05-22T08:19:24Z</time>
      </trkpt>
      <trkpt lat="45.1183" lon="4.49773">
        <ele>995</ele>
        <time>2024-05-22T08:19:41Z</time>
      </trkpt>
      <trkpt lat="45.11832" lon="4.49766">
        <ele>995</ele>
        <time>2024-05-22T08:19:51Z</time>
      </trkpt>
      <trkpt lat="45.11832" lon="4.49769">
        <ele>995</ele>
        <time>2024-05-22T08:20:52Z</time>
      </trkpt>
      <trkpt lat="45.11833" lon="4.49768">
        <ele>995</ele>
        <time>2024-05-22T08:22:02Z</time>
      </trkpt>
      <trkpt lat="45.11861" lon="4.49775">
        <ele>995</ele>
        <time>2024-05-22T08:28:52Z</time>
      </trkpt>
      <trkpt lat="45.11863" lon="4.49775">
        <ele>995</ele>
        <time>2024-05-22T08:28:53Z</time>
      </trkpt>
      <trkpt lat="45.11869" lon="4.4978">
        <ele>994</ele>
        <time>2024-05-22T08:28:58Z</time>
      </trkpt>
      <trkpt lat="45.11883" lon="4.49783">
        <ele>993</ele>
        <time>2024-05-22T08:29:10Z</time>
      </trkpt>
      <trkpt lat="45.11886" lon="4.49787">
        <ele>993</ele>
        <time>2024-05-22T08:29:13Z</time>
      </trkpt>
      <trkpt lat="45.11908" lon="4.49793">
        <ele>992</ele>
        <time>2024-05-22T08:29:40Z</time>
      </trkpt>
      <trkpt lat="45.11924" lon="4.49804">
        <ele>990</ele>
        <time>2024-05-22T08:29:53Z</time>
      </trkpt>
      <trkpt lat="45.11929" lon="4.49805">
        <ele>989</ele>
        <time>2024-05-22T08:29:56Z</time>
      </trkpt>
      <trkpt lat="45.11957" lon="4.49823">
        <ele>987</ele>
        <time>2024-05-22T08:30:20Z</time>
      </trkpt>
      <trkpt lat="45.11966" lon="4.49827">
        <ele>987</ele>
        <time>2024-05-22T08:30:28Z</time>
      </trkpt>
      <trkpt lat="45.11972" lon="4.49837">
        <ele>986</ele>
        <time>2024-05-22T08:30:34Z</time>
      </trkpt>
      <trkpt lat="45.11983" lon="4.49841">
        <ele>985</ele>
        <time>2024-05-22T08:30:41Z</time>
      </trkpt>
      <trkpt lat="45.11987" lon="4.49841">
        <ele>985</ele>
        <time>2024-05-22T08:30:44Z</time>
      </trkpt>
      <trkpt lat="45.11989" lon="4.49848">
        <ele>985</ele>
        <time>2024-05-22T08:30:52Z</time>
      </trkpt>
      <trkpt lat="45.11994" lon="4.49847">
        <ele>984</ele>
        <time>2024-05-22T08:30:58Z</time>
      </trkpt>
      <trkpt lat="45.11998" lon="4.49851">
        <ele>984</ele>
        <time>2024-05-22T08:31:02Z</time>
      </trkpt>
      <trkpt lat="45.12008" lon="4.49855">
        <ele>983</ele>
        <time>2024-05-22T08:31:10Z</time>
      </trkpt>
      <trkpt lat="45.1201" lon="4.4986">
        <ele>983</ele>
        <time>2024-05-22T08:31:13Z</time>
      </trkpt>
      <trkpt lat="45.12014" lon="4.49863">
        <ele>983</ele>
        <time>2024-05-22T08:31:16Z</time>
      </trkpt>
      <trkpt lat="45.12021" lon="4.4987">
        <ele>983</ele>
        <time>2024-05-22T08:31:24Z</time>
      </trkpt>
      <trkpt lat="45.12025" lon="4.49876">
        <ele>983</ele>
        <time>2024-05-22T08:31:27Z</time>
      </trkpt>
      <trkpt lat="45.12029" lon="4.49877">
        <ele>983</ele>
        <time>2024-05-22T08:31:31Z</time>
      </trkpt>
      <trkpt lat="45.12039" lon="4.49869">
        <ele>982</ele>
        <time>2024-05-22T08:31:44Z</time>
      </trkpt>
      <trkpt lat="45.12043" lon="4.4987">
        <ele>981</ele>
        <time>2024-05-22T08:31:51Z</time>
      </trkpt>
      <trkpt lat="45.12051" lon="4.49861">
        <ele>979</ele>
        <time>2024-05-22T08:31:58Z</time>
      </trkpt>
      <trkpt lat="45.12065" lon="4.49859">
        <ele>976</ele>
        <time>2024-05-22T08:32:13Z</time>
      </trkpt>
      <trkpt lat="45.12079" lon="4.49851">
        <ele>972</ele>
        <time>2024-05-22T08:32:30Z</time>
      </trkpt>
      <trkpt lat="45.12084" lon="4.49844">
        <ele>972</ele>
        <time>2024-05-22T08:32:34Z</time>
      </trkpt>
      <trkpt lat="45.12089" lon="4.49845">
        <ele>971</ele>
        <time>2024-05-22T08:32:38Z</time>
      </trkpt>
      <trkpt lat="45.12097" lon="4.49839">
        <ele>970</ele>
        <time>2024-05-22T08:32:44Z</time>
      </trkpt>
      <trkpt lat="45.12107" lon="4.49844">
        <ele>969</ele>
        <time>2024-05-22T08:32:51Z</time>
      </trkpt>
      <trkpt lat="45.12111" lon="4.49842">
        <ele>968</ele>
        <time>2024-05-22T08:32:55Z</time>
      </trkpt>
      <trkpt lat="45.12115" lon="4.49845">
        <ele>968</ele>
        <time>2024-05-22T08:32:58Z</time>
      </trkpt>
      <trkpt lat="45.12131" lon="4.49849">
        <ele>966</ele>
        <time>2024-05-22T08:33:11Z</time>
      </trkpt>
      <trkpt lat="45.12134" lon="4.49844">
        <ele>966</ele>
        <time>2024-05-22T08:33:14Z</time>
      </trkpt>
      <trkpt lat="45.1214" lon="4.49847">
        <ele>966</ele>
        <time>2024-05-22T08:33:20Z</time>
      </trkpt>
      <trkpt lat="45.12144" lon="4.49848">
        <ele>965</ele>
        <time>2024-05-22T08:33:23Z</time>
      </trkpt>
      <trkpt lat="45.12151" lon="4.49853">
        <ele>965</ele>
        <time>2024-05-22T08:33:31Z</time>
      </trkpt>
      <trkpt lat="45.12163" lon="4.4986">
        <ele>964</ele>
        <time>2024-05-22T08:33:42Z</time>
      </trkpt>
      <trkpt lat="45.12181" lon="4.49877">
        <ele>963</ele>
        <time>2024-05-22T08:34:00Z</time>
      </trkpt>
      <trkpt lat="45.12189" lon="4.49882">
        <ele>962</ele>
        <time>2024-05-22T08:34:13Z</time>
      </trkpt>
      <trkpt lat="45.12194" lon="4.49883">
        <ele>962</ele>
        <time>2024-05-22T08:34:16Z</time>
      </trkpt>
      <trkpt lat="45.12197" lon="4.49886">
        <ele>961</ele>
        <time>2024-05-22T08:34:20Z</time>
      </trkpt>
      <trkpt lat="45.12203" lon="4.49888">
        <ele>960</ele>
        <time>2024-05-22T08:34:27Z</time>
      </trkpt>
      <trkpt lat="45.12207" lon="4.49893">
        <ele>959</ele>
        <time>2024-05-22T08:34:31Z</time>
      </trkpt>
      <trkpt lat="45.12212" lon="4.49894">
        <ele>959</ele>
        <time>2024-05-22T08:34:34Z</time>
      </trkpt>
      <trkpt lat="45.12236" lon="4.4992">
        <ele>954</ele>
        <time>2024-05-22T08:35:01Z</time>
      </trkpt>
      <trkpt lat="45.1224" lon="4.49931">
        <ele>953</ele>
        <time>2024-05-22T08:35:09Z</time>
      </trkpt>
      <trkpt lat="45.12244" lon="4.49936">
        <ele>953</ele>
        <time>2024-05-22T08:35:13Z</time>
      </trkpt>
      <trkpt lat="45.12247" lon="4.49939">
        <ele>952</ele>
        <time>2024-05-22T08:35:16Z</time>
      </trkpt>
      <trkpt lat="45.1225" lon="4.49946">
        <ele>952</ele>
        <time>2024-05-22T08:35:20Z</time>
      </trkpt>
      <trkpt lat="45.12253" lon="4.49951">
        <ele>952</ele>
        <time>2024-05-22T08:35:24Z</time>
      </trkpt>
      <trkpt lat="45.12254" lon="4.49958">
        <ele>951</ele>
        <time>2024-05-22T08:35:28Z</time>
      </trkpt>
      <trkpt lat="45.12249" lon="4.49968">
        <ele>950</ele>
        <time>2024-05-22T08:35:36Z</time>
      </trkpt>
      <trkpt lat="45.12254" lon="4.49972">
        <ele>950</ele>
        <time>2024-05-22T08:35:40Z</time>
      </trkpt>
      <trkpt lat="45.12259" lon="4.49984">
        <ele>949</ele>
        <time>2024-05-22T08:35:49Z</time>
      </trkpt>
      <trkpt lat="45.12265" lon="4.49997">
        <ele>947</ele>
        <time>2024-05-22T08:36:00Z</time>
      </trkpt>
      <trkpt lat="45.12274" lon="4.50005">
        <ele>946</ele>
        <time>2024-05-22T08:36:09Z</time>
      </trkpt>
      <trkpt lat="45.12275" lon="4.50025">
        <ele>945</ele>
        <time>2024-05-22T08:36:21Z</time>
      </trkpt>
      <trkpt lat="45.12281" lon="4.50029">
        <ele>944</ele>
        <time>2024-05-22T08:37:07Z</time>
      </trkpt>
      <trkpt lat="45.12285" lon="4.50032">
        <ele>944</ele>
        <time>2024-05-22T08:37:10Z</time>
      </trkpt>
      <trkpt lat="45.1229" lon="4.50028">
        <ele>943</ele>
        <time>2024-05-22T08:37:17Z</time>
      </trkpt>
      <trkpt lat="45.12299" lon="4.50025">
        <ele>941</ele>
        <time>2024-05-22T08:37:25Z</time>
      </trkpt>
      <trkpt lat="45.12303" lon="4.5003">
        <ele>941</ele>
        <time>2024-05-22T08:37:29Z</time>
      </trkpt>
      <trkpt lat="45.12308" lon="4.5003">
        <ele>941</ele>
        <time>2024-05-22T08:37:32Z</time>
      </trkpt>
      <trkpt lat="45.12326" lon="4.50039">
        <ele>941</ele>
        <time>2024-05-22T08:37:50Z</time>
      </trkpt>
      <trkpt lat="45.12336" lon="4.50047">
        <ele>943</ele>
        <time>2024-05-22T08:38:01Z</time>
      </trkpt>
      <trkpt lat="45.12342" lon="4.50053">
        <ele>944</ele>
        <time>2024-05-22T08:38:18Z</time>
      </trkpt>
      <trkpt lat="45.12349" lon="4.50056">
        <ele>945</ele>
        <time>2024-05-22T08:38:25Z</time>
      </trkpt>
      <trkpt lat="45.12354" lon="4.50058">
        <ele>945</ele>
        <time>2024-05-22T08:38:28Z</time>
      </trkpt>
      <trkpt lat="45.12359" lon="4.50062">
        <ele>944</ele>
        <time>2024-05-22T08:38:35Z</time>
      </trkpt>
      <trkpt lat="45.12362" lon="4.50063">
        <ele>944</ele>
        <time>2024-05-22T08:38:38Z</time>
      </trkpt>
      <trkpt lat="45.12364" lon="4.50055">
        <ele>943</ele>
        <time>2024-05-22T08:38:46Z</time>
      </trkpt>
      <trkpt lat="45.1236" lon="4.5005">
        <ele>944</ele>
        <time>2024-05-22T08:38:53Z</time>
      </trkpt>
      <trkpt lat="45.12357" lon="4.50043">
        <ele>944</ele>
        <time>2024-05-22T08:38:58Z</time>
      </trkpt>
      <trkpt lat="45.12349" lon="4.50033">
        <ele>945</ele>
        <time>2024-05-22T08:39:09Z</time>
      </trkpt>
      <trkpt lat="45.12344" lon="4.50016">
        <ele>947</ele>
        <time>2024-05-22T08:39:28Z</time>
      </trkpt>
      <trkpt lat="45.12338" lon="4.50013">
        <ele>949</ele>
        <time>2024-05-22T08:39:34Z</time>
      </trkpt>
      <trkpt lat="45.12338" lon="4.50004">
        <ele>950</ele>
        <time>2024-05-22T08:39:40Z</time>
      </trkpt>
      <trkpt lat="45.12332" lon="4.49993">
        <ele>951</ele>
        <time>2024-05-22T08:39:49Z</time>
      </trkpt>
      <trkpt lat="45.12327" lon="4.49987">
        <ele>951</ele>
        <time>2024-05-22T08:39:53Z</time>
      </trkpt>
      <trkpt lat="45.1233" lon="4.4998">
        <ele>952</ele>
        <time>2024-05-22T08:39:58Z</time>
      </trkpt>
      <trkpt lat="45.1233" lon="4.49962">
        <ele>954</ele>
        <time>2024-05-22T08:40:09Z</time>
      </trkpt>
      <trkpt lat="45.12332" lon="4.49955">
        <ele>954</ele>
        <time>2024-05-22T08:40:13Z</time>
      </trkpt>
      <trkpt lat="45.12339" lon="4.49951">
        <ele>955</ele>
        <time>2024-05-22T08:40:20Z</time>
      </trkpt>
      <trkpt lat="45.1234" lon="4.49944">
        <ele>955</ele>
        <time>2024-05-22T08:40:23Z</time>
      </trkpt>
      <trkpt lat="45.12342" lon="4.49937">
        <ele>956</ele>
        <time>2024-05-22T08:40:28Z</time>
      </trkpt>
      <trkpt lat="45.12347" lon="4.49934">
        <ele>956</ele>
        <time>2024-05-22T08:40:33Z</time>
      </trkpt>
      <trkpt lat="45.1235" lon="4.49925">
        <ele>957</ele>
        <time>2024-05-22T08:40:40Z</time>
      </trkpt>
      <trkpt lat="45.12363" lon="4.49919">
        <ele>959</ele>
        <time>2024-05-22T08:40:53Z</time>
      </trkpt>
      <trkpt lat="45.12374" lon="4.49916">
        <ele>959</ele>
        <time>2024-05-22T08:41:02Z</time>
      </trkpt>
      <trkpt lat="45.12378" lon="4.49912">
        <ele>960</ele>
        <time>2024-05-22T08:41:06Z</time>
      </trkpt>
      <trkpt lat="45.12385" lon="4.49915">
        <ele>960</ele>
        <time>2024-05-22T08:41:12Z</time>
      </trkpt>
      <trkpt lat="45.12391" lon="4.49915">
        <ele>960</ele>
        <time>2024-05-22T08:41:15Z</time>
      </trkpt>
      <trkpt lat="45.12395" lon="4.49916">
        <ele>960</ele>
        <time>2024-05-22T08:41:18Z</time>
      </trkpt>
      <trkpt lat="45.12402" lon="4.49913">
        <ele>961</ele>
        <time>2024-05-22T08:41:26Z</time>
      </trkpt>
      <trkpt lat="45.12406" lon="4.49909">
        <ele>961</ele>
        <time>2024-05-22T08:41:30Z</time>
      </trkpt>
      <trkpt lat="45.12413" lon="4.49909">
        <ele>961</ele>
        <time>2024-05-22T08:41:36Z</time>
      </trkpt>
      <trkpt lat="45.12425" lon="4.49905">
        <ele>963</ele>
        <time>2024-05-22T08:41:50Z</time>
      </trkpt>
      <trkpt lat="45.12431" lon="4.49905">
        <ele>963</ele>
        <time>2024-05-22T08:41:53Z</time>
      </trkpt>
      <trkpt lat="45.12434" lon="4.49901">
        <ele>963</ele>
        <time>2024-05-22T08:41:56Z</time>
      </trkpt>
      <trkpt lat="45.12438" lon="4.49902">
        <ele>964</ele>
        <time>2024-05-22T08:42:00Z</time>
      </trkpt>
      <trkpt lat="45.12442" lon="4.49905">
        <ele>964</ele>
        <time>2024-05-22T08:42:03Z</time>
      </trkpt>
      <trkpt lat="45.12448" lon="4.49902">
        <ele>964</ele>
        <time>2024-05-22T08:42:08Z</time>
      </trkpt>
      <trkpt lat="45.12452" lon="4.49899">
        <ele>964</ele>
        <time>2024-05-22T08:42:12Z</time>
      </trkpt>
      <trkpt lat="45.12455" lon="4.49896">
        <ele>965</ele>
        <time>2024-05-22T08:42:16Z</time>
      </trkpt>
      <trkpt lat="45.1246" lon="4.49898">
        <ele>965</ele>
        <time>2024-05-22T08:42:19Z</time>
      </trkpt>
      <trkpt lat="45.12469" lon="4.49895">
        <ele>966</ele>
        <time>2024-05-22T08:42:29Z</time>
      </trkpt>
      <trkpt lat="45.1247" lon="4.49888">
        <ele>966</ele>
        <time>2024-05-22T08:42:32Z</time>
      </trkpt>
      <trkpt lat="45.1247" lon="4.49883">
        <ele>968</ele>
        <time>2024-05-22T08:42:43Z</time>
      </trkpt>
      <trkpt lat="45.12464" lon="4.49875">
        <ele>969</ele>
        <time>2024-05-22T08:42:54Z</time>
      </trkpt>
      <trkpt lat="45.12459" lon="4.49861">
        <ele>971</ele>
        <time>2024-05-22T08:43:08Z</time>
      </trkpt>
      <trkpt lat="45.1245" lon="4.49851">
        <ele>973</ele>
        <time>2024-05-22T08:43:21Z</time>
      </trkpt>
      <trkpt lat="45.12443" lon="4.49839">
        <ele>975</ele>
        <time>2024-05-22T08:43:35Z</time>
      </trkpt>
      <trkpt lat="45.12439" lon="4.49822">
        <ele>978</ele>
        <time>2024-05-22T08:43:50Z</time>
      </trkpt>
      <trkpt lat="45.12437" lon="4.49814">
        <ele>979</ele>
        <time>2024-05-22T08:43:57Z</time>
      </trkpt>
      <trkpt lat="45.12437" lon="4.49808">
        <ele>980</ele>
        <time>2024-05-22T08:44:03Z</time>
      </trkpt>
      <trkpt lat="45.12435" lon="4.49802">
        <ele>981</ele>
        <time>2024-05-22T08:44:09Z</time>
      </trkpt>
      <trkpt lat="45.12435" lon="4.49792">
        <ele>982</ele>
        <time>2024-05-22T08:44:17Z</time>
      </trkpt>
      <trkpt lat="45.12437" lon="4.49785">
        <ele>984</ele>
        <time>2024-05-22T08:44:25Z</time>
      </trkpt>
      <trkpt lat="45.12438" lon="4.49779">
        <ele>984</ele>
        <time>2024-05-22T08:44:29Z</time>
      </trkpt>
      <trkpt lat="45.12438" lon="4.49769">
        <ele>986</ele>
        <time>2024-05-22T08:44:38Z</time>
      </trkpt>
      <trkpt lat="45.12443" lon="4.49761">
        <ele>987</ele>
        <time>2024-05-22T08:44:43Z</time>
      </trkpt>
      <trkpt lat="45.12443" lon="4.49749">
        <ele>990</ele>
        <time>2024-05-22T08:44:57Z</time>
      </trkpt>
      <trkpt lat="45.12444" lon="4.49741">
        <ele>992</ele>
        <time>2024-05-22T08:45:09Z</time>
      </trkpt>
      <trkpt lat="45.12444" lon="4.49735">
        <ele>992</ele>
        <time>2024-05-22T08:45:21Z</time>
      </trkpt>
      <trkpt lat="45.12449" lon="4.49733">
        <ele>992</ele>
        <time>2024-05-22T08:46:15Z</time>
      </trkpt>
      <trkpt lat="45.12452" lon="4.49686">
        <ele>996</ele>
        <time>2024-05-22T08:50:58Z</time>
      </trkpt>
      <trkpt lat="45.12452" lon="4.49684">
        <ele>996</ele>
        <time>2024-05-22T08:50:59Z</time>
      </trkpt>
      <trkpt lat="45.12454" lon="4.49674">
        <ele>996</ele>
        <time>2024-05-22T08:51:16Z</time>
      </trkpt>
      <trkpt lat="45.12456" lon="4.49668">
        <ele>996</ele>
        <time>2024-05-22T08:51:20Z</time>
      </trkpt>
      <trkpt lat="45.12456" lon="4.49653">
        <ele>996</ele>
        <time>2024-05-22T08:51:28Z</time>
      </trkpt>
      <trkpt lat="45.1246" lon="4.49645">
        <ele>997</ele>
        <time>2024-05-22T08:51:43Z</time>
      </trkpt>
      <trkpt lat="45.12461" lon="4.49639">
        <ele>997</ele>
        <time>2024-05-22T08:51:49Z</time>
      </trkpt>
      <trkpt lat="45.12459" lon="4.49634">
        <ele>997</ele>
        <time>2024-05-22T08:52:00Z</time>
      </trkpt>
      <trkpt lat="45.12461" lon="4.4962">
        <ele>997</ele>
        <time>2024-05-22T08:52:07Z</time>
      </trkpt>
      <trkpt lat="45.12464" lon="4.49611">
        <ele>998</ele>
        <time>2024-05-22T08:52:17Z</time>
      </trkpt>
      <trkpt lat="45.12465" lon="4.49604">
        <ele>997</ele>
        <time>2024-05-22T08:52:21Z</time>
      </trkpt>
      <trkpt lat="45.12464" lon="4.49598">
        <ele>997</ele>
        <time>2024-05-22T08:52:25Z</time>
      </trkpt>
      <trkpt lat="45.12465" lon="4.49587">
        <ele>997</ele>
        <time>2024-05-22T08:52:30Z</time>
      </trkpt>
      <trkpt lat="45.12463" lon="4.49582">
        <ele>997</ele>
        <time>2024-05-22T08:52:33Z</time>
      </trkpt>
      <trkpt lat="45.12461" lon="4.49577">
        <ele>997</ele>
        <time>2024-05-22T08:52:36Z</time>
      </trkpt>
      <trkpt lat="45.12449" lon="4.49565">
        <ele>997</ele>
        <time>2024-05-22T08:52:48Z</time>
      </trkpt>
      <trkpt lat="45.12445" lon="4.49561">
        <ele>997</ele>
        <time>2024-05-22T08:52:52Z</time>
      </trkpt>
      <trkpt lat="45.12441" lon="4.49556">
        <ele>997</ele>
        <time>2024-05-22T08:52:56Z</time>
      </trkpt>
      <trkpt lat="45.12438" lon="4.49549">
        <ele>997</ele>
        <time>2024-05-22T08:52:59Z</time>
      </trkpt>
      <trkpt lat="45.12432" lon="4.4954">
        <ele>998</ele>
        <time>2024-05-22T08:53:07Z</time>
      </trkpt>
      <trkpt lat="45.12428" lon="4.49528">
        <ele>999</ele>
        <time>2024-05-22T08:53:16Z</time>
      </trkpt>
      <trkpt lat="45.12427" lon="4.49522">
        <ele>999</ele>
        <time>2024-05-22T08:53:21Z</time>
      </trkpt>
      <trkpt lat="45.12424" lon="4.49517">
        <ele>1000</ele>
        <time>2024-05-22T08:53:25Z</time>
      </trkpt>
      <trkpt lat="45.12421" lon="4.49504">
        <ele>1000</ele>
        <time>2024-05-22T08:53:33Z</time>
      </trkpt>
      <trkpt lat="45.12419" lon="4.49485">
        <ele>1002</ele>
        <time>2024-05-22T08:53:45Z</time>
      </trkpt>
      <trkpt lat="45.12421" lon="4.49472">
        <ele>1002</ele>
        <time>2024-05-22T08:53:53Z</time>
      </trkpt>
      <trkpt lat="45.12427" lon="4.49454">
        <ele>1004</ele>
        <time>2024-05-22T08:54:06Z</time>
      </trkpt>
      <trkpt lat="45.12433" lon="4.49448">
        <ele>1005</ele>
        <time>2024-05-22T08:54:14Z</time>
      </trkpt>
      <trkpt lat="45.12439" lon="4.4944">
        <ele>1006</ele>
        <time>2024-05-22T08:54:23Z</time>
      </trkpt>
      <trkpt lat="45.12459" lon="4.49423">
        <ele>1008</ele>
        <time>2024-05-22T08:54:56Z</time>
      </trkpt>
      <trkpt lat="45.12477" lon="4.4941">
        <ele>1011</ele>
        <time>2024-05-22T08:55:15Z</time>
      </trkpt>
      <trkpt lat="45.12491" lon="4.49406">
        <ele>1012</ele>
        <time>2024-05-22T08:55:29Z</time>
      </trkpt>
      <trkpt lat="45.12496" lon="4.49405">
        <ele>1013</ele>
        <time>2024-05-22T08:55:34Z</time>
      </trkpt>
      <trkpt lat="45.12505" lon="4.494">
        <ele>1014</ele>
        <time>2024-05-22T08:55:44Z</time>
      </trkpt>
      <trkpt lat="45.1251" lon="4.49395">
        <ele>1014</ele>
        <time>2024-05-22T08:55:51Z</time>
      </trkpt>
      <trkpt lat="45.12515" lon="4.49392">
        <ele>1015</ele>
        <time>2024-05-22T08:55:56Z</time>
      </trkpt>
      <trkpt lat="45.12518" lon="4.49385">
        <ele>1016</ele>
        <time>2024-05-22T08:56:05Z</time>
      </trkpt>
      <trkpt lat="45.12517" lon="4.49378">
        <ele>1016</ele>
        <time>2024-05-22T08:56:12Z</time>
      </trkpt>
      <trkpt lat="45.12518" lon="4.49371">
        <ele>1017</ele>
        <time>2024-05-22T08:56:17Z</time>
      </trkpt>
      <trkpt lat="45.12519" lon="4.49353">
        <ele>1018</ele>
        <time>2024-05-22T08:56:35Z</time>
      </trkpt>
      <trkpt lat="45.1252" lon="4.49346">
        <ele>1018</ele>
        <time>2024-05-22T08:56:39Z</time>
      </trkpt>
      <trkpt lat="45.12521" lon="4.49335">
        <ele>1019</ele>
        <time>2024-05-22T08:56:48Z</time>
      </trkpt>
      <trkpt lat="45.12522" lon="4.49328">
        <ele>1019</ele>
        <time>2024-05-22T08:56:52Z</time>
      </trkpt>
      <trkpt lat="45.12522" lon="4.49315">
        <ele>1020</ele>
        <time>2024-05-22T08:57:00Z</time>
      </trkpt>
      <trkpt lat="45.12529" lon="4.4928">
        <ele>1023</ele>
        <time>2024-05-22T08:57:24Z</time>
      </trkpt>
      <trkpt lat="45.12532" lon="4.49276">
        <ele>1023</ele>
        <time>2024-05-22T08:57:57Z</time>
      </trkpt>
      <trkpt lat="45.12533" lon="4.49268">
        <ele>1024</ele>
        <time>2024-05-22T08:58:02Z</time>
      </trkpt>
      <trkpt lat="45.12537" lon="4.49257">
        <ele>1024</ele>
        <time>2024-05-22T08:58:10Z</time>
      </trkpt>
      <trkpt lat="45.1254" lon="4.49237">
        <ele>1025</ele>
        <time>2024-05-22T08:58:23Z</time>
      </trkpt>
      <trkpt lat="45.12541" lon="4.4923">
        <ele>1025</ele>
        <time>2024-05-22T08:58:27Z</time>
      </trkpt>
      <trkpt lat="45.12544" lon="4.49214">
        <ele>1026</ele>
        <time>2024-05-22T08:58:40Z</time>
      </trkpt>
      <trkpt lat="45.12546" lon="4.49208">
        <ele>1026</ele>
        <time>2024-05-22T08:58:45Z</time>
      </trkpt>
      <trkpt lat="45.12547" lon="4.49184">
        <ele>1026</ele>
        <time>2024-05-22T08:58:59Z</time>
      </trkpt>
      <trkpt lat="45.12546" lon="4.49178">
        <ele>1027</ele>
        <time>2024-05-22T08:59:03Z</time>
      </trkpt>
      <trkpt lat="45.12546" lon="4.49172">
        <ele>1027</ele>
        <time>2024-05-22T08:59:07Z</time>
      </trkpt>
      <trkpt lat="45.12547" lon="4.49166">
        <ele>1026</ele>
        <time>2024-05-22T08:59:11Z</time>
      </trkpt>
      <trkpt lat="45.12553" lon="4.49166">
        <ele>1026</ele>
        <time>2024-05-22T08:59:28Z</time>
      </trkpt>
      <trkpt lat="45.12543" lon="4.49149">
        <ele>1026</ele>
        <time>2024-05-22T08:59:39Z</time>
      </trkpt>
      <trkpt lat="45.12542" lon="4.49142">
        <ele>1026</ele>
        <time>2024-05-22T08:59:43Z</time>
      </trkpt>
      <trkpt lat="45.12537" lon="4.49136">
        <ele>1026</ele>
        <time>2024-05-22T08:59:47Z</time>
      </trkpt>
      <trkpt lat="45.12536" lon="4.49129">
        <ele>1025</ele>
        <time>2024-05-22T09:00:06Z</time>
      </trkpt>
      <trkpt lat="45.12532" lon="4.49126">
        <ele>1025</ele>
        <time>2024-05-22T09:00:11Z</time>
      </trkpt>
      <trkpt lat="45.12526" lon="4.49117">
        <ele>1025</ele>
        <time>2024-05-22T09:00:19Z</time>
      </trkpt>
      <trkpt lat="45.12522" lon="4.49111">
        <ele>1024</ele>
        <time>2024-05-22T09:00:23Z</time>
      </trkpt>
      <trkpt lat="45.12519" lon="4.49106">
        <ele>1024</ele>
        <time>2024-05-22T09:00:26Z</time>
      </trkpt>
      <trkpt lat="45.12511" lon="4.49089">
        <ele>1023</ele>
        <time>2024-05-22T09:00:39Z</time>
      </trkpt>
      <trkpt lat="45.12505" lon="4.49083">
        <ele>1023</ele>
        <time>2024-05-22T09:00:47Z</time>
      </trkpt>
      <trkpt lat="45.12503" lon="4.49078">
        <ele>1023</ele>
        <time>2024-05-22T09:00:50Z</time>
      </trkpt>
      <trkpt lat="45.125" lon="4.49068">
        <ele>1022</ele>
        <time>2024-05-22T09:00:55Z</time>
      </trkpt>
      <trkpt lat="45.12494" lon="4.49057">
        <ele>1021</ele>
        <time>2024-05-22T09:01:04Z</time>
      </trkpt>
      <trkpt lat="45.12483" lon="4.49018">
        <ele>1020</ele>
        <time>2024-05-22T09:01:28Z</time>
      </trkpt>
      <trkpt lat="45.12482" lon="4.49011">
        <ele>1019</ele>
        <time>2024-05-22T09:01:31Z</time>
      </trkpt>
      <trkpt lat="45.12482" lon="4.48997">
        <ele>1019</ele>
        <time>2024-05-22T09:01:38Z</time>
      </trkpt>
      <trkpt lat="45.12474" lon="4.4899">
        <ele>1019</ele>
        <time>2024-05-22T09:01:44Z</time>
      </trkpt>
      <trkpt lat="45.12469" lon="4.48978">
        <ele>1018</ele>
        <time>2024-05-22T09:01:52Z</time>
      </trkpt>
      <trkpt lat="45.12469" lon="4.4897">
        <ele>1018</ele>
        <time>2024-05-22T09:01:57Z</time>
      </trkpt>
      <trkpt lat="45.12465" lon="4.48951">
        <ele>1017</ele>
        <time>2024-05-22T09:02:08Z</time>
      </trkpt>
      <trkpt lat="45.12466" lon="4.48943">
        <ele>1017</ele>
        <time>2024-05-22T09:02:12Z</time>
      </trkpt>
      <trkpt lat="45.12458" lon="4.48895">
        <ele>1015</ele>
        <time>2024-05-22T09:02:39Z</time>
      </trkpt>
      <trkpt lat="45.12453" lon="4.48875">
        <ele>1014</ele>
        <time>2024-05-22T09:02:52Z</time>
      </trkpt>
      <trkpt lat="45.12445" lon="4.48827">
        <ele>1014</ele>
        <time>2024-05-22T09:03:24Z</time>
      </trkpt>
      <trkpt lat="45.12441" lon="4.48812">
        <ele>1013</ele>
        <time>2024-05-22T09:03:34Z</time>
      </trkpt>
      <trkpt lat="45.12442" lon="4.48805">
        <ele>1013</ele>
        <time>2024-05-22T09:03:38Z</time>
      </trkpt>
      <trkpt lat="45.12438" lon="4.488">
        <ele>1013</ele>
        <time>2024-05-22T09:03:42Z</time>
      </trkpt>
      <trkpt lat="45.12438" lon="4.48784">
        <ele>1012</ele>
        <time>2024-05-22T09:03:52Z</time>
      </trkpt>
      <trkpt lat="45.12433" lon="4.48771">
        <ele>1013</ele>
        <time>2024-05-22T09:04:01Z</time>
      </trkpt>
      <trkpt lat="45.12432" lon="4.48764">
        <ele>1013</ele>
        <time>2024-05-22T09:04:05Z</time>
      </trkpt>
      <trkpt lat="45.12426" lon="4.48752">
        <ele>1013</ele>
        <time>2024-05-22T09:04:14Z</time>
      </trkpt>
      <trkpt lat="45.12425" lon="4.48746">
        <ele>1013</ele>
        <time>2024-05-22T09:04:18Z</time>
      </trkpt>
      <trkpt lat="45.12422" lon="4.4874">
        <ele>1013</ele>
        <time>2024-05-22T09:04:23Z</time>
      </trkpt>
      <trkpt lat="45.1242" lon="4.48735">
        <ele>1014</ele>
        <time>2024-05-22T09:04:27Z</time>
      </trkpt>
      <trkpt lat="45.12416" lon="4.48729">
        <ele>1014</ele>
        <time>2024-05-22T09:04:31Z</time>
      </trkpt>
      <trkpt lat="45.12415" lon="4.48722">
        <ele>1014</ele>
        <time>2024-05-22T09:04:36Z</time>
      </trkpt>
      <trkpt lat="45.1241" lon="4.48717">
        <ele>1015</ele>
        <time>2024-05-22T09:04:41Z</time>
      </trkpt>
      <trkpt lat="45.12406" lon="4.48715">
        <ele>1015</ele>
        <time>2024-05-22T09:04:45Z</time>
      </trkpt>
      <trkpt lat="45.12403" lon="4.48709">
        <ele>1016</ele>
        <time>2024-05-22T09:04:49Z</time>
      </trkpt>
      <trkpt lat="45.12395" lon="4.48688">
        <ele>1017</ele>
        <time>2024-05-22T09:05:05Z</time>
      </trkpt>
      <trkpt lat="45.12377" lon="4.48649">
        <ele>1021</ele>
        <time>2024-05-22T09:05:34Z</time>
      </trkpt>
      <trkpt lat="45.12375" lon="4.48642">
        <ele>1022</ele>
        <time>2024-05-22T09:05:41Z</time>
      </trkpt>
      <trkpt lat="45.12371" lon="4.48629">
        <ele>1023</ele>
        <time>2024-05-22T09:05:49Z</time>
      </trkpt>
      <trkpt lat="45.1237" lon="4.48623">
        <ele>1023</ele>
        <time>2024-05-22T09:05:53Z</time>
      </trkpt>
      <trkpt lat="45.12373" lon="4.48615">
        <ele>1024</ele>
        <time>2024-05-22T09:05:57Z</time>
      </trkpt>
      <trkpt lat="45.12372" lon="4.48608">
        <ele>1024</ele>
        <time>2024-05-22T09:06:01Z</time>
      </trkpt>
      <trkpt lat="45.1237" lon="4.4859">
        <ele>1026</ele>
        <time>2024-05-22T09:06:12Z</time>
      </trkpt>
      <trkpt lat="45.1237" lon="4.48582">
        <ele>1026</ele>
        <time>2024-05-22T09:06:17Z</time>
      </trkpt>
      <trkpt lat="45.12376" lon="4.48564">
        <ele>1027</ele>
        <time>2024-05-22T09:06:29Z</time>
      </trkpt>
      <trkpt lat="45.12394" lon="4.4853">
        <ele>1028</ele>
        <time>2024-05-22T09:06:55Z</time>
      </trkpt>
      <trkpt lat="45.12399" lon="4.48521">
        <ele>1027</ele>
        <time>2024-05-22T09:07:03Z</time>
      </trkpt>
      <trkpt lat="45.12406" lon="4.48512">
        <ele>1027</ele>
        <time>2024-05-22T09:07:11Z</time>
      </trkpt>
      <trkpt lat="45.12406" lon="4.48499">
        <ele>1026</ele>
        <time>2024-05-22T09:07:22Z</time>
      </trkpt>
      <trkpt lat="45.12407" lon="4.48493">
        <ele>1026</ele>
        <time>2024-05-22T09:07:26Z</time>
      </trkpt>
      <trkpt lat="45.12406" lon="4.48487">
        <ele>1025</ele>
        <time>2024-05-22T09:07:30Z</time>
      </trkpt>
      <trkpt lat="45.12411" lon="4.4846">
        <ele>1025</ele>
        <time>2024-05-22T09:07:46Z</time>
      </trkpt>
      <trkpt lat="45.1241" lon="4.48452">
        <ele>1024</ele>
        <time>2024-05-22T09:07:50Z</time>
      </trkpt>
      <trkpt lat="45.12411" lon="4.4844">
        <ele>1024</ele>
        <time>2024-05-22T09:07:57Z</time>
      </trkpt>
      <trkpt lat="45.1241" lon="4.48433">
        <ele>1023</ele>
        <time>2024-05-22T09:08:01Z</time>
      </trkpt>
      <trkpt lat="45.1241" lon="4.48427">
        <ele>1023</ele>
        <time>2024-05-22T09:08:05Z</time>
      </trkpt>
      <trkpt lat="45.12417" lon="4.48428">
        <ele>1023</ele>
        <time>2024-05-22T09:08:19Z</time>
      </trkpt>
      <trkpt lat="45.12417" lon="4.48415">
        <ele>1022</ele>
        <time>2024-05-22T09:09:18Z</time>
      </trkpt>
      <trkpt lat="45.12418" lon="4.48397">
        <ele>1021</ele>
        <time>2024-05-22T09:09:30Z</time>
      </trkpt>
      <trkpt lat="45.12431" lon="4.48355">
        <ele>1018</ele>
        <time>2024-05-22T09:10:00Z</time>
      </trkpt>
      <trkpt lat="45.12449" lon="4.48305">
        <ele>1015</ele>
        <time>2024-05-22T09:10:32Z</time>
      </trkpt>
      <trkpt lat="45.12452" lon="4.48292">
        <ele>1015</ele>
        <time>2024-05-22T09:10:40Z</time>
      </trkpt>
      <trkpt lat="45.12456" lon="4.4828">
        <ele>1014</ele>
        <time>2024-05-22T09:10:48Z</time>
      </trkpt>
      <trkpt lat="45.12459" lon="4.48267">
        <ele>1013</ele>
        <time>2024-05-22T09:10:56Z</time>
      </trkpt>
      <trkpt lat="45.12465" lon="4.48248">
        <ele>1013</ele>
        <time>2024-05-22T09:11:08Z</time>
      </trkpt>
      <trkpt lat="45.12468" lon="4.48243">
        <ele>1013</ele>
        <time>2024-05-22T09:11:12Z</time>
      </trkpt>
      <trkpt lat="45.12468" lon="4.48237">
        <ele>1013</ele>
        <time>2024-05-22T09:11:15Z</time>
      </trkpt>
      <trkpt lat="45.1248" lon="4.48186">
        <ele>1012</ele>
        <time>2024-05-22T09:11:47Z</time>
      </trkpt>
      <trkpt lat="45.1248" lon="4.48179">
        <ele>1011</ele>
        <time>2024-05-22T09:11:50Z</time>
      </trkpt>
      <trkpt lat="45.12482" lon="4.48173">
        <ele>1011</ele>
        <time>2024-05-22T09:11:54Z</time>
      </trkpt>
      <trkpt lat="45.12482" lon="4.48166">
        <ele>1011</ele>
        <time>2024-05-22T09:11:58Z</time>
      </trkpt>
      <trkpt lat="45.12484" lon="4.48161">
        <ele>1011</ele>
        <time>2024-05-22T09:12:03Z</time>
      </trkpt>
      <trkpt lat="45.12488" lon="4.48153">
        <ele>1012</ele>
        <time>2024-05-22T09:12:11Z</time>
      </trkpt>
      <trkpt lat="45.12486" lon="4.48139">
        <ele>1012</ele>
        <time>2024-05-22T09:12:20Z</time>
      </trkpt>
      <trkpt lat="45.12488" lon="4.48129">
        <ele>1013</ele>
        <time>2024-05-22T09:12:27Z</time>
      </trkpt>
      <trkpt lat="45.12493" lon="4.48107">
        <ele>1014</ele>
        <time>2024-05-22T09:12:42Z</time>
      </trkpt>
      <trkpt lat="45.12496" lon="4.48092">
        <ele>1014</ele>
        <time>2024-05-22T09:12:49Z</time>
      </trkpt>
      <trkpt lat="45.12505" lon="4.48064">
        <ele>1015</ele>
        <time>2024-05-22T09:13:11Z</time>
      </trkpt>
      <trkpt lat="45.12508" lon="4.4806">
        <ele>1016</ele>
        <time>2024-05-22T09:13:17Z</time>
      </trkpt>
      <trkpt lat="45.12512" lon="4.4804">
        <ele>1016</ele>
        <time>2024-05-22T09:13:29Z</time>
      </trkpt>
      <trkpt lat="45.12515" lon="4.48036">
        <ele>1016</ele>
        <time>2024-05-22T09:13:33Z</time>
      </trkpt>
      <trkpt lat="45.12518" lon="4.48003">
        <ele>1017</ele>
        <time>2024-05-22T09:13:53Z</time>
      </trkpt>
      <trkpt lat="45.12519" lon="4.47996">
        <ele>1017</ele>
        <time>2024-05-22T09:13:57Z</time>
      </trkpt>
      <trkpt lat="45.12521" lon="4.47988">
        <ele>1017</ele>
        <time>2024-05-22T09:14:03Z</time>
      </trkpt>
      <trkpt lat="45.12524" lon="4.47974">
        <ele>1018</ele>
        <time>2024-05-22T09:14:16Z</time>
      </trkpt>
      <trkpt lat="45.12525" lon="4.47966">
        <ele>1018</ele>
        <time>2024-05-22T09:14:20Z</time>
      </trkpt>
      <trkpt lat="45.12542" lon="4.47918">
        <ele>1018</ele>
        <time>2024-05-22T09:14:53Z</time>
      </trkpt>
      <trkpt lat="45.12545" lon="4.47897">
        <ele>1018</ele>
        <time>2024-05-22T09:15:05Z</time>
      </trkpt>
      <trkpt lat="45.12547" lon="4.47884">
        <ele>1017</ele>
        <time>2024-05-22T09:15:13Z</time>
      </trkpt>
      <trkpt lat="45.1255" lon="4.47872">
        <ele>1017</ele>
        <time>2024-05-22T09:15:21Z</time>
      </trkpt>
      <trkpt lat="45.12549" lon="4.47858">
        <ele>1016</ele>
        <time>2024-05-22T09:15:29Z</time>
      </trkpt>
      <trkpt lat="45.1255" lon="4.47852">
        <ele>1016</ele>
        <time>2024-05-22T09:15:33Z</time>
      </trkpt>
      <trkpt lat="45.12546" lon="4.47819">
        <ele>1013</ele>
        <time>2024-05-22T09:15:52Z</time>
      </trkpt>
      <trkpt lat="45.12546" lon="4.47813">
        <ele>1012</ele>
        <time>2024-05-22T09:15:57Z</time>
      </trkpt>
      <trkpt lat="45.12545" lon="4.47806">
        <ele>1011</ele>
        <time>2024-05-22T09:16:01Z</time>
      </trkpt>
      <trkpt lat="45.12541" lon="4.47801">
        <ele>1010</ele>
        <time>2024-05-22T09:16:05Z</time>
      </trkpt>
      <trkpt lat="45.1254" lon="4.47794">
        <ele>1010</ele>
        <time>2024-05-22T09:16:09Z</time>
      </trkpt>
      <trkpt lat="45.12537" lon="4.47783">
        <ele>1008</ele>
        <time>2024-05-22T09:16:18Z</time>
      </trkpt>
      <trkpt lat="45.12534" lon="4.47755">
        <ele>1005</ele>
        <time>2024-05-22T09:16:36Z</time>
      </trkpt>
      <trkpt lat="45.12534" lon="4.47749">
        <ele>1004</ele>
        <time>2024-05-22T09:16:40Z</time>
      </trkpt>
      <trkpt lat="45.12532" lon="4.47742">
        <ele>1004</ele>
        <time>2024-05-22T09:16:44Z</time>
      </trkpt>
      <trkpt lat="45.1253" lon="4.47736">
        <ele>1004</ele>
        <time>2024-05-22T09:16:48Z</time>
      </trkpt>
      <trkpt lat="45.12525" lon="4.47725">
        <ele>1003</ele>
        <time>2024-05-22T09:16:56Z</time>
      </trkpt>
      <trkpt lat="45.12521" lon="4.47692">
        <ele>1003</ele>
        <time>2024-05-22T09:17:16Z</time>
      </trkpt>
      <trkpt lat="45.12519" lon="4.47687">
        <ele>1004</ele>
        <time>2024-05-22T09:17:20Z</time>
      </trkpt>
      <trkpt lat="45.12517" lon="4.4768">
        <ele>1004</ele>
        <time>2024-05-22T09:17:25Z</time>
      </trkpt>
      <trkpt lat="45.12516" lon="4.47673">
        <ele>1004</ele>
        <time>2024-05-22T09:17:29Z</time>
      </trkpt>
      <trkpt lat="45.12513" lon="4.47666">
        <ele>1004</ele>
        <time>2024-05-22T09:17:35Z</time>
      </trkpt>
      <trkpt lat="45.12511" lon="4.47657">
        <ele>1004</ele>
        <time>2024-05-22T09:17:41Z</time>
      </trkpt>
      <trkpt lat="45.12509" lon="4.47633">
        <ele>1003</ele>
        <time>2024-05-22T09:17:57Z</time>
      </trkpt>
      <trkpt lat="45.1251" lon="4.4762">
        <ele>1002</ele>
        <time>2024-05-22T09:18:05Z</time>
      </trkpt>
      <trkpt lat="45.12502" lon="4.47582">
        <ele>998</ele>
        <time>2024-05-22T09:18:29Z</time>
      </trkpt>
      <trkpt lat="45.12499" lon="4.47577">
        <ele>998</ele>
        <time>2024-05-22T09:18:33Z</time>
      </trkpt>
      <trkpt lat="45.12494" lon="4.47575">
        <ele>997</ele>
        <time>2024-05-22T09:18:38Z</time>
      </trkpt>
      <trkpt lat="45.1249" lon="4.47579">
        <ele>997</ele>
        <time>2024-05-22T09:18:42Z</time>
      </trkpt>
      <trkpt lat="45.12482" lon="4.47595">
        <ele>995</ele>
        <time>2024-05-22T09:19:03Z</time>
      </trkpt>
      <trkpt lat="45.12478" lon="4.47599">
        <ele>995</ele>
        <time>2024-05-22T09:19:07Z</time>
      </trkpt>
      <trkpt lat="45.12476" lon="4.47606">
        <ele>994</ele>
        <time>2024-05-22T09:19:11Z</time>
      </trkpt>
      <trkpt lat="45.12473" lon="4.47611">
        <ele>994</ele>
        <time>2024-05-22T09:19:15Z</time>
      </trkpt>
      <trkpt lat="45.12469" lon="4.47614">
        <ele>993</ele>
        <time>2024-05-22T09:19:19Z</time>
      </trkpt>
      <trkpt lat="45.12464" lon="4.47612">
        <ele>992</ele>
        <time>2024-05-22T09:19:23Z</time>
      </trkpt>
      <trkpt lat="45.12462" lon="4.47606">
        <ele>991</ele>
        <time>2024-05-22T09:19:26Z</time>
      </trkpt>
      <trkpt lat="45.12466" lon="4.47557">
        <ele>986</ele>
        <time>2024-05-22T09:19:54Z</time>
      </trkpt>
      <trkpt lat="45.12465" lon="4.47543">
        <ele>985</ele>
        <time>2024-05-22T09:20:01Z</time>
      </trkpt>
      <trkpt lat="45.12466" lon="4.47537">
        <ele>984</ele>
        <time>2024-05-22T09:20:05Z</time>
      </trkpt>
      <trkpt lat="45.12464" lon="4.47531">
        <ele>984</ele>
        <time>2024-05-22T09:20:09Z</time>
      </trkpt>
      <trkpt lat="45.12468" lon="4.47519">
        <ele>983</ele>
        <time>2024-05-22T09:20:17Z</time>
      </trkpt>
      <trkpt lat="45.12468" lon="4.47481">
        <ele>978</ele>
        <time>2024-05-22T09:20:47Z</time>
      </trkpt>
      <trkpt lat="45.12475" lon="4.47467">
        <ele>976</ele>
        <time>2024-05-22T09:21:03Z</time>
      </trkpt>
      <trkpt lat="45.12478" lon="4.47463">
        <ele>976</ele>
        <time>2024-05-22T09:21:09Z</time>
      </trkpt>
      <trkpt lat="45.12483" lon="4.47446">
        <ele>973</ele>
        <time>2024-05-22T09:21:31Z</time>
      </trkpt>
      <trkpt lat="45.12487" lon="4.47439">
        <ele>971</ele>
        <time>2024-05-22T09:21:39Z</time>
      </trkpt>
      <trkpt lat="45.12489" lon="4.47433">
        <ele>970</ele>
        <time>2024-05-22T09:21:44Z</time>
      </trkpt>
      <trkpt lat="45.12493" lon="4.4743">
        <ele>970</ele>
        <time>2024-05-22T09:21:49Z</time>
      </trkpt>
      <trkpt lat="45.12498" lon="4.47428">
        <ele>969</ele>
        <time>2024-05-22T09:21:53Z</time>
      </trkpt>
      <trkpt lat="45.12502" lon="4.47424">
        <ele>968</ele>
        <time>2024-05-22T09:21:58Z</time>
      </trkpt>
      <trkpt lat="45.12505" lon="4.47419">
        <ele>967</ele>
        <time>2024-05-22T09:22:02Z</time>
      </trkpt>
      <trkpt lat="45.1251" lon="4.47417">
        <ele>966</ele>
        <time>2024-05-22T09:22:09Z</time>
      </trkpt>
      <trkpt lat="45.12515" lon="4.47417">
        <ele>965</ele>
        <time>2024-05-22T09:22:13Z</time>
      </trkpt>
      <trkpt lat="45.12519" lon="4.47413">
        <ele>965</ele>
        <time>2024-05-22T09:22:17Z</time>
      </trkpt>
      <trkpt lat="45.12529" lon="4.47418">
        <ele>964</ele>
        <time>2024-05-22T09:22:24Z</time>
      </trkpt>
      <trkpt lat="45.12544" lon="4.47433">
        <ele>961</ele>
        <time>2024-05-22T09:22:41Z</time>
      </trkpt>
      <trkpt lat="45.12554" lon="4.47435">
        <ele>959</ele>
        <time>2024-05-22T09:22:49Z</time>
      </trkpt>
      <trkpt lat="45.12563" lon="4.47441">
        <ele>958</ele>
        <time>2024-05-22T09:22:57Z</time>
      </trkpt>
      <trkpt lat="45.12566" lon="4.47446">
        <ele>957</ele>
        <time>2024-05-22T09:23:01Z</time>
      </trkpt>
      <trkpt lat="45.12566" lon="4.47442">
        <ele>955</ele>
        <time>2024-05-22T09:23:20Z</time>
      </trkpt>
      <trkpt lat="45.12559" lon="4.47432">
        <ele>953</ele>
        <time>2024-05-22T09:23:29Z</time>
      </trkpt>
      <trkpt lat="45.12556" lon="4.47414">
        <ele>951</ele>
        <time>2024-05-22T09:23:42Z</time>
      </trkpt>
      <trkpt lat="45.12557" lon="4.47408">
        <ele>950</ele>
        <time>2024-05-22T09:23:45Z</time>
      </trkpt>
      <trkpt lat="45.12556" lon="4.47401">
        <ele>950</ele>
        <time>2024-05-22T09:23:49Z</time>
      </trkpt>
      <trkpt lat="45.12559" lon="4.47396">
        <ele>949</ele>
        <time>2024-05-22T09:23:54Z</time>
      </trkpt>
      <trkpt lat="45.12563" lon="4.47364">
        <ele>945</ele>
        <time>2024-05-22T09:24:16Z</time>
      </trkpt>
      <trkpt lat="45.12562" lon="4.47355">
        <ele>944</ele>
        <time>2024-05-22T09:24:23Z</time>
      </trkpt>
      <trkpt lat="45.12556" lon="4.47341">
        <ele>942</ele>
        <time>2024-05-22T09:24:40Z</time>
      </trkpt>
      <trkpt lat="45.12532" lon="4.47336">
        <ele>938</ele>
        <time>2024-05-22T09:25:04Z</time>
      </trkpt>
      <trkpt lat="45.12528" lon="4.47337">
        <ele>938</ele>
        <time>2024-05-22T09:25:08Z</time>
      </trkpt>
      <trkpt lat="45.12513" lon="4.47335">
        <ele>936</ele>
        <time>2024-05-22T09:25:20Z</time>
      </trkpt>
      <trkpt lat="45.12508" lon="4.47336">
        <ele>936</ele>
        <time>2024-05-22T09:25:24Z</time>
      </trkpt>
      <trkpt lat="45.12504" lon="4.47332">
        <ele>935</ele>
        <time>2024-05-22T09:25:28Z</time>
      </trkpt>
      <trkpt lat="45.12494" lon="4.4733">
        <ele>933</ele>
        <time>2024-05-22T09:25:42Z</time>
      </trkpt>
      <trkpt lat="45.12487" lon="4.47332">
        <ele>932</ele>
        <time>2024-05-22T09:25:49Z</time>
      </trkpt>
      <trkpt lat="45.12483" lon="4.4733">
        <ele>931</ele>
        <time>2024-05-22T09:25:53Z</time>
      </trkpt>
      <trkpt lat="45.1247" lon="4.47335">
        <ele>929</ele>
        <time>2024-05-22T09:26:06Z</time>
      </trkpt>
      <trkpt lat="45.12451" lon="4.47338">
        <ele>926</ele>
        <time>2024-05-22T09:26:27Z</time>
      </trkpt>
      <trkpt lat="45.12447" lon="4.4734">
        <ele>925</ele>
        <time>2024-05-22T09:26:31Z</time>
      </trkpt>
      <trkpt lat="45.1244" lon="4.4734">
        <ele>924</ele>
        <time>2024-05-22T09:26:49Z</time>
      </trkpt>
      <trkpt lat="45.12425" lon="4.47342">
        <ele>921</ele>
        <time>2024-05-22T09:27:07Z</time>
      </trkpt>
      <trkpt lat="45.12417" lon="4.4735">
        <ele>919</ele>
        <time>2024-05-22T09:27:15Z</time>
      </trkpt>
      <trkpt lat="45.12413" lon="4.47352">
        <ele>918</ele>
        <time>2024-05-22T09:27:19Z</time>
      </trkpt>
      <trkpt lat="45.12394" lon="4.47357">
        <ele>915</ele>
        <time>2024-05-22T09:27:39Z</time>
      </trkpt>
      <trkpt lat="45.12389" lon="4.4736">
        <ele>914</ele>
        <time>2024-05-22T09:27:42Z</time>
      </trkpt>
      <trkpt lat="45.12381" lon="4.47367">
        <ele>914</ele>
        <time>2024-05-22T09:27:50Z</time>
      </trkpt>
      <trkpt lat="45.12376" lon="4.4737">
        <ele>913</ele>
        <time>2024-05-22T09:27:55Z</time>
      </trkpt>
      <trkpt lat="45.12373" lon="4.47374">
        <ele>912</ele>
        <time>2024-05-22T09:27:58Z</time>
      </trkpt>
      <trkpt lat="45.12371" lon="4.4738">
        <ele>912</ele>
        <time>2024-05-22T09:28:03Z</time>
      </trkpt>
      <trkpt lat="45.12367" lon="4.47385">
        <ele>911</ele>
        <time>2024-05-22T09:28:07Z</time>
      </trkpt>
      <trkpt lat="45.12368" lon="4.47391">
        <ele>909</ele>
        <time>2024-05-22T09:28:16Z</time>
      </trkpt>
      <trkpt lat="45.12365" lon="4.47396">
        <ele>909</ele>
        <time>2024-05-22T09:28:21Z</time>
      </trkpt>
      <trkpt lat="45.12367" lon="4.47402">
        <ele>908</ele>
        <time>2024-05-22T09:28:24Z</time>
      </trkpt>
      <trkpt lat="45.12364" lon="4.47413">
        <ele>907</ele>
        <time>2024-05-22T09:28:31Z</time>
      </trkpt>
      <trkpt lat="45.12361" lon="4.47417">
        <ele>906</ele>
        <time>2024-05-22T09:28:36Z</time>
      </trkpt>
      <trkpt lat="45.12361" lon="4.47424">
        <ele>905</ele>
        <time>2024-05-22T09:28:42Z</time>
      </trkpt>
      <trkpt lat="45.12357" lon="4.47432">
        <ele>904</ele>
        <time>2024-05-22T09:28:50Z</time>
      </trkpt>
      <trkpt lat="45.12356" lon="4.47439">
        <ele>903</ele>
        <time>2024-05-22T09:28:54Z</time>
      </trkpt>
      <trkpt lat="45.12353" lon="4.47445">
        <ele>902</ele>
        <time>2024-05-22T09:28:58Z</time>
      </trkpt>
      <trkpt lat="45.1235" lon="4.47449">
        <ele>902</ele>
        <time>2024-05-22T09:29:01Z</time>
      </trkpt>
      <trkpt lat="45.12348" lon="4.47455">
        <ele>902</ele>
        <time>2024-05-22T09:29:04Z</time>
      </trkpt>
      <trkpt lat="45.12344" lon="4.47459">
        <ele>901</ele>
        <time>2024-05-22T09:29:08Z</time>
      </trkpt>
      <trkpt lat="45.12335" lon="4.47476">
        <ele>899</ele>
        <time>2024-05-22T09:29:20Z</time>
      </trkpt>
      <trkpt lat="45.12329" lon="4.47482">
        <ele>897</ele>
        <time>2024-05-22T09:29:28Z</time>
      </trkpt>
      <trkpt lat="45.12314" lon="4.47508">
        <ele>893</ele>
        <time>2024-05-22T09:29:53Z</time>
      </trkpt>
      <trkpt lat="45.12309" lon="4.47516">
        <ele>892</ele>
        <time>2024-05-22T09:30:03Z</time>
      </trkpt>
      <trkpt lat="45.12309" lon="4.47524">
        <ele>891</ele>
        <time>2024-05-22T09:30:07Z</time>
      </trkpt>
      <trkpt lat="45.12307" lon="4.47529">
        <ele>890</ele>
        <time>2024-05-22T09:30:10Z</time>
      </trkpt>
      <trkpt lat="45.12304" lon="4.47534">
        <ele>890</ele>
        <time>2024-05-22T09:30:13Z</time>
      </trkpt>
      <trkpt lat="45.123" lon="4.47537">
        <ele>890</ele>
        <time>2024-05-22T09:30:16Z</time>
      </trkpt>
      <trkpt lat="45.12295" lon="4.47548">
        <ele>889</ele>
        <time>2024-05-22T09:30:24Z</time>
      </trkpt>
      <trkpt lat="45.12292" lon="4.47553">
        <ele>890</ele>
        <time>2024-05-22T09:30:28Z</time>
      </trkpt>
      <trkpt lat="45.12279" lon="4.47567">
        <ele>889</ele>
        <time>2024-05-22T09:30:43Z</time>
      </trkpt>
      <trkpt lat="45.12277" lon="4.47573">
        <ele>889</ele>
        <time>2024-05-22T09:30:47Z</time>
      </trkpt>
      <trkpt lat="45.12273" lon="4.47584">
        <ele>888</ele>
        <time>2024-05-22T09:30:57Z</time>
      </trkpt>
      <trkpt lat="45.12269" lon="4.47589">
        <ele>887</ele>
        <time>2024-05-22T09:31:01Z</time>
      </trkpt>
      <trkpt lat="45.12263" lon="4.47601">
        <ele>887</ele>
        <time>2024-05-22T09:31:10Z</time>
      </trkpt>
      <trkpt lat="45.1226" lon="4.47607">
        <ele>887</ele>
        <time>2024-05-22T09:31:16Z</time>
      </trkpt>
      <trkpt lat="45.12252" lon="4.47623">
        <ele>883</ele>
        <time>2024-05-22T09:31:30Z</time>
      </trkpt>
      <trkpt lat="45.12249" lon="4.47634">
        <ele>881</ele>
        <time>2024-05-22T09:31:38Z</time>
      </trkpt>
      <trkpt lat="45.12245" lon="4.47643">
        <ele>879</ele>
        <time>2024-05-22T09:31:46Z</time>
      </trkpt>
      <trkpt lat="45.12242" lon="4.47648">
        <ele>878</ele>
        <time>2024-05-22T09:31:49Z</time>
      </trkpt>
      <trkpt lat="45.12238" lon="4.4765">
        <ele>877</ele>
        <time>2024-05-22T09:31:52Z</time>
      </trkpt>
      <trkpt lat="45.12233" lon="4.47649">
        <ele>876</ele>
        <time>2024-05-22T09:31:55Z</time>
      </trkpt>
      <trkpt lat="45.12229" lon="4.47645">
        <ele>876</ele>
        <time>2024-05-22T09:31:59Z</time>
      </trkpt>
      <trkpt lat="45.12227" lon="4.47638">
        <ele>876</ele>
        <time>2024-05-22T09:32:03Z</time>
      </trkpt>
      <trkpt lat="45.12232" lon="4.4763">
        <ele>876</ele>
        <time>2024-05-22T09:32:35Z</time>
      </trkpt>
      <trkpt lat="45.12235" lon="4.47635">
        <ele>877</ele>
        <time>2024-05-22T09:34:09Z</time>
      </trkpt>
      <trkpt lat="45.12222" lon="4.47596">
        <ele>874</ele>
        <time>2024-05-22T09:38:27Z</time>
      </trkpt>
      <trkpt lat="45.12223" lon="4.47595">
        <ele>874</ele>
        <time>2024-05-22T09:38:28Z</time>
      </trkpt>
      <trkpt lat="45.12222" lon="4.47588">
        <ele>874</ele>
        <time>2024-05-22T09:38:33Z</time>
      </trkpt>
      <trkpt lat="45.12219" lon="4.47581">
        <ele>874</ele>
        <time>2024-05-22T09:38:37Z</time>
      </trkpt>
      <trkpt lat="45.12218" lon="4.47575">
        <ele>874</ele>
        <time>2024-05-22T09:38:42Z</time>
      </trkpt>
      <trkpt lat="45.12215" lon="4.47568">
        <ele>874</ele>
        <time>2024-05-22T09:38:46Z</time>
      </trkpt>
      <trkpt lat="45.12211" lon="4.47566">
        <ele>874</ele>
        <time>2024-05-22T09:38:50Z</time>
      </trkpt>
      <trkpt lat="45.12209" lon="4.47559">
        <ele>874</ele>
        <time>2024-05-22T09:38:54Z</time>
      </trkpt>
      <trkpt lat="45.12205" lon="4.4755">
        <ele>875</ele>
        <time>2024-05-22T09:39:04Z</time>
      </trkpt>
      <trkpt lat="45.12205" lon="4.4754">
        <ele>875</ele>
        <time>2024-05-22T09:39:10Z</time>
      </trkpt>
      <trkpt lat="45.12205" lon="4.47534">
        <ele>875</ele>
        <time>2024-05-22T09:39:14Z</time>
      </trkpt>
      <trkpt lat="45.12207" lon="4.47519">
        <ele>874</ele>
        <time>2024-05-22T09:39:22Z</time>
      </trkpt>
      <trkpt lat="45.12208" lon="4.47512">
        <ele>874</ele>
        <time>2024-05-22T09:39:26Z</time>
      </trkpt>
      <trkpt lat="45.12209" lon="4.47506">
        <ele>874</ele>
        <time>2024-05-22T09:39:30Z</time>
      </trkpt>
      <trkpt lat="45.12213" lon="4.47499">
        <ele>873</ele>
        <time>2024-05-22T09:39:37Z</time>
      </trkpt>
      <trkpt lat="45.12219" lon="4.47481">
        <ele>871</ele>
        <time>2024-05-22T09:39:51Z</time>
      </trkpt>
      <trkpt lat="45.12228" lon="4.47467">
        <ele>870</ele>
        <time>2024-05-22T09:40:03Z</time>
      </trkpt>
      <trkpt lat="45.12229" lon="4.47454">
        <ele>869</ele>
        <time>2024-05-22T09:40:11Z</time>
      </trkpt>
      <trkpt lat="45.12232" lon="4.47447">
        <ele>869</ele>
        <time>2024-05-22T09:40:15Z</time>
      </trkpt>
      <trkpt lat="45.12231" lon="4.4744">
        <ele>868</ele>
        <time>2024-05-22T09:40:19Z</time>
      </trkpt>
      <trkpt lat="45.12234" lon="4.47433">
        <ele>867</ele>
        <time>2024-05-22T09:40:26Z</time>
      </trkpt>
      <trkpt lat="45.12233" lon="4.47418">
        <ele>864</ele>
        <time>2024-05-22T09:40:40Z</time>
      </trkpt>
      <trkpt lat="45.12231" lon="4.47394">
        <ele>861</ele>
        <time>2024-05-22T09:40:56Z</time>
      </trkpt>
      <trkpt lat="45.12229" lon="4.47389">
        <ele>861</ele>
        <time>2024-05-22T09:41:00Z</time>
      </trkpt>
      <trkpt lat="45.12213" lon="4.47379">
        <ele>857</ele>
        <time>2024-05-22T09:41:19Z</time>
      </trkpt>
      <trkpt lat="45.12203" lon="4.47381">
        <ele>856</ele>
        <time>2024-05-22T09:41:26Z</time>
      </trkpt>
      <trkpt lat="45.12199" lon="4.47378">
        <ele>855</ele>
        <time>2024-05-22T09:41:30Z</time>
      </trkpt>
      <trkpt lat="45.1218" lon="4.47377">
        <ele>852</ele>
        <time>2024-05-22T09:41:48Z</time>
      </trkpt>
      <trkpt lat="45.12175" lon="4.47383">
        <ele>850</ele>
        <time>2024-05-22T09:41:56Z</time>
      </trkpt>
      <trkpt lat="45.12175" lon="4.47414">
        <ele>847</ele>
        <time>2024-05-22T09:42:19Z</time>
      </trkpt>
      <trkpt lat="45.12173" lon="4.4742">
        <ele>847</ele>
        <time>2024-05-22T09:42:22Z</time>
      </trkpt>
      <trkpt lat="45.1217" lon="4.47425">
        <ele>846</ele>
        <time>2024-05-22T09:42:25Z</time>
      </trkpt>
      <trkpt lat="45.12167" lon="4.47445">
        <ele>844</ele>
        <time>2024-05-22T09:42:37Z</time>
      </trkpt>
      <trkpt lat="45.12166" lon="4.47451">
        <ele>844</ele>
        <time>2024-05-22T09:42:41Z</time>
      </trkpt>
      <trkpt lat="45.12158" lon="4.47449">
        <ele>841</ele>
        <time>2024-05-22T09:42:54Z</time>
      </trkpt>
      <trkpt lat="45.12148" lon="4.47448">
        <ele>838</ele>
        <time>2024-05-22T09:43:03Z</time>
      </trkpt>
      <trkpt lat="45.1214" lon="4.4744">
        <ele>835</ele>
        <time>2024-05-22T09:43:14Z</time>
      </trkpt>
      <trkpt lat="45.12142" lon="4.47433">
        <ele>834</ele>
        <time>2024-05-22T09:43:29Z</time>
      </trkpt>
      <trkpt lat="45.12154" lon="4.47395">
        <ele>834</ele>
        <time>2024-05-22T09:45:27Z</time>
      </trkpt>
      <trkpt lat="45.12153" lon="4.47394">
        <ele>834</ele>
        <time>2024-05-22T09:45:28Z</time>
      </trkpt>
      <trkpt lat="45.12158" lon="4.47355">
        <ele>835</ele>
        <time>2024-05-22T09:45:52Z</time>
      </trkpt>
      <trkpt lat="45.12163" lon="4.47344">
        <ele>835</ele>
        <time>2024-05-22T09:46:00Z</time>
      </trkpt>
      <trkpt lat="45.12174" lon="4.47332">
        <ele>836</ele>
        <time>2024-05-22T09:46:12Z</time>
      </trkpt>
      <trkpt lat="45.12178" lon="4.47329">
        <ele>836</ele>
        <time>2024-05-22T09:46:16Z</time>
      </trkpt>
      <trkpt lat="45.12183" lon="4.47329">
        <ele>837</ele>
        <time>2024-05-22T09:46:20Z</time>
      </trkpt>
      <trkpt lat="45.12189" lon="4.47325">
        <ele>837</ele>
        <time>2024-05-22T09:46:27Z</time>
      </trkpt>
      <trkpt lat="45.12195" lon="4.47324">
        <ele>837</ele>
        <time>2024-05-22T09:46:31Z</time>
      </trkpt>
      <trkpt lat="45.12199" lon="4.47328">
        <ele>837</ele>
        <time>2024-05-22T09:46:35Z</time>
      </trkpt>
      <trkpt lat="45.12203" lon="4.47328">
        <ele>837</ele>
        <time>2024-05-22T09:46:39Z</time>
      </trkpt>
      <trkpt lat="45.12209" lon="4.4733">
        <ele>838</ele>
        <time>2024-05-22T09:46:43Z</time>
      </trkpt>
      <trkpt lat="45.12212" lon="4.47333">
        <ele>838</ele>
        <time>2024-05-22T09:46:47Z</time>
      </trkpt>
      <trkpt lat="45.1222" lon="4.47336">
        <ele>838</ele>
        <time>2024-05-22T09:46:54Z</time>
      </trkpt>
      <trkpt lat="45.12224" lon="4.47339">
        <ele>839</ele>
        <time>2024-05-22T09:46:58Z</time>
      </trkpt>
      <trkpt lat="45.12227" lon="4.47344">
        <ele>839</ele>
        <time>2024-05-22T09:47:02Z</time>
      </trkpt>
      <trkpt lat="45.12243" lon="4.47348">
        <ele>840</ele>
        <time>2024-05-22T09:47:16Z</time>
      </trkpt>
      <trkpt lat="45.1225" lon="4.47344">
        <ele>840</ele>
        <time>2024-05-22T09:47:22Z</time>
      </trkpt>
      <trkpt lat="45.12256" lon="4.47337">
        <ele>841</ele>
        <time>2024-05-22T09:47:30Z</time>
      </trkpt>
      <trkpt lat="45.12259" lon="4.47327">
        <ele>841</ele>
        <time>2024-05-22T09:47:38Z</time>
      </trkpt>
      <trkpt lat="45.12255" lon="4.47314">
        <ele>842</ele>
        <time>2024-05-22T09:47:48Z</time>
      </trkpt>
      <trkpt lat="45.12248" lon="4.47301">
        <ele>842</ele>
        <time>2024-05-22T09:47:58Z</time>
      </trkpt>
      <trkpt lat="45.12246" lon="4.47294">
        <ele>842</ele>
        <time>2024-05-22T09:48:02Z</time>
      </trkpt>
      <trkpt lat="45.12248" lon="4.47281">
        <ele>843</ele>
        <time>2024-05-22T09:48:10Z</time>
      </trkpt>
      <trkpt lat="45.12249" lon="4.47275">
        <ele>843</ele>
        <time>2024-05-22T09:48:14Z</time>
      </trkpt>
      <trkpt lat="45.12253" lon="4.47272">
        <ele>843</ele>
        <time>2024-05-22T09:48:18Z</time>
      </trkpt>
      <trkpt lat="45.12255" lon="4.47267">
        <ele>843</ele>
        <time>2024-05-22T09:48:22Z</time>
      </trkpt>
      <trkpt lat="45.1226" lon="4.47262">
        <ele>843</ele>
        <time>2024-05-22T09:48:27Z</time>
      </trkpt>
      <trkpt lat="45.12282" lon="4.47253">
        <ele>844</ele>
        <time>2024-05-22T09:48:47Z</time>
      </trkpt>
      <trkpt lat="45.12293" lon="4.47247">
        <ele>845</ele>
        <time>2024-05-22T09:48:58Z</time>
      </trkpt>
      <trkpt lat="45.12323" lon="4.47236">
        <ele>846</ele>
        <time>2024-05-22T09:49:24Z</time>
      </trkpt>
      <trkpt lat="45.12327" lon="4.47232">
        <ele>846</ele>
        <time>2024-05-22T09:49:28Z</time>
      </trkpt>
      <trkpt lat="45.12343" lon="4.4723">
        <ele>847</ele>
        <time>2024-05-22T09:49:39Z</time>
      </trkpt>
      <trkpt lat="45.12346" lon="4.47223">
        <ele>847</ele>
        <time>2024-05-22T09:49:46Z</time>
      </trkpt>
      <trkpt lat="45.12351" lon="4.47221">
        <ele>848</ele>
        <time>2024-05-22T09:49:50Z</time>
      </trkpt>
      <trkpt lat="45.12354" lon="4.47214">
        <ele>848</ele>
        <time>2024-05-22T09:49:55Z</time>
      </trkpt>
      <trkpt lat="45.12362" lon="4.47212">
        <ele>848</ele>
        <time>2024-05-22T09:50:02Z</time>
      </trkpt>
      <trkpt lat="45.12366" lon="4.47209">
        <ele>849</ele>
        <time>2024-05-22T09:50:06Z</time>
      </trkpt>
      <trkpt lat="45.12372" lon="4.47205">
        <ele>849</ele>
        <time>2024-05-22T09:50:12Z</time>
      </trkpt>
      <trkpt lat="45.12376" lon="4.47205">
        <ele>849</ele>
        <time>2024-05-22T09:50:16Z</time>
      </trkpt>
      <trkpt lat="45.12379" lon="4.47198">
        <ele>849</ele>
        <time>2024-05-22T09:50:19Z</time>
      </trkpt>
      <trkpt lat="45.12384" lon="4.47195">
        <ele>850</ele>
        <time>2024-05-22T09:50:23Z</time>
      </trkpt>
      <trkpt lat="45.1239" lon="4.47196">
        <ele>850</ele>
        <time>2024-05-22T09:50:28Z</time>
      </trkpt>
      <trkpt lat="45.12394" lon="4.47193">
        <ele>850</ele>
        <time>2024-05-22T09:50:32Z</time>
      </trkpt>
      <trkpt lat="45.12404" lon="4.47191">
        <ele>851</ele>
        <time>2024-05-22T09:50:40Z</time>
      </trkpt>
      <trkpt lat="45.12407" lon="4.47187">
        <ele>851</ele>
        <time>2024-05-22T09:50:44Z</time>
      </trkpt>
      <trkpt lat="45.12411" lon="4.47185">
        <ele>851</ele>
        <time>2024-05-22T09:50:47Z</time>
      </trkpt>
      <trkpt lat="45.12416" lon="4.47185">
        <ele>851</ele>
        <time>2024-05-22T09:50:51Z</time>
      </trkpt>
      <trkpt lat="45.12424" lon="4.47177">
        <ele>852</ele>
        <time>2024-05-22T09:51:00Z</time>
      </trkpt>
      <trkpt lat="45.12459" lon="4.47161">
        <ele>854</ele>
        <time>2024-05-22T09:51:32Z</time>
      </trkpt>
      <trkpt lat="45.12473" lon="4.47155">
        <ele>855</ele>
        <time>2024-05-22T09:51:44Z</time>
      </trkpt>
      <trkpt lat="45.12479" lon="4.47151">
        <ele>855</ele>
        <time>2024-05-22T09:51:50Z</time>
      </trkpt>
      <trkpt lat="45.12489" lon="4.4715">
        <ele>856</ele>
        <time>2024-05-22T09:51:59Z</time>
      </trkpt>
      <trkpt lat="45.12493" lon="4.47146">
        <ele>856</ele>
        <time>2024-05-22T09:52:02Z</time>
      </trkpt>
      <trkpt lat="45.12516" lon="4.47141">
        <ele>857</ele>
        <time>2024-05-22T09:52:21Z</time>
      </trkpt>
      <trkpt lat="45.12521" lon="4.47137">
        <ele>858</ele>
        <time>2024-05-22T09:52:27Z</time>
      </trkpt>
      <trkpt lat="45.12525" lon="4.47139">
        <ele>858</ele>
        <time>2024-05-22T09:52:31Z</time>
      </trkpt>
      <trkpt lat="45.1253" lon="4.47139">
        <ele>858</ele>
        <time>2024-05-22T09:52:34Z</time>
      </trkpt>
      <trkpt lat="45.12538" lon="4.47145">
        <ele>858</ele>
        <time>2024-05-22T09:52:42Z</time>
      </trkpt>
      <trkpt lat="45.12548" lon="4.47145">
        <ele>859</ele>
        <time>2024-05-22T09:52:50Z</time>
      </trkpt>
      <trkpt lat="45.12553" lon="4.4715">
        <ele>859</ele>
        <time>2024-05-22T09:52:56Z</time>
      </trkpt>
      <trkpt lat="45.12559" lon="4.4715">
        <ele>859</ele>
        <time>2024-05-22T09:53:01Z</time>
      </trkpt>
      <trkpt lat="45.12563" lon="4.47153">
        <ele>859</ele>
        <time>2024-05-22T09:53:03Z</time>
      </trkpt>
      <trkpt lat="45.12571" lon="4.47154">
        <ele>860</ele>
        <time>2024-05-22T09:53:12Z</time>
      </trkpt>
      <trkpt lat="45.12576" lon="4.47152">
        <ele>860</ele>
        <time>2024-05-22T09:53:16Z</time>
      </trkpt>
      <trkpt lat="45.12582" lon="4.47153">
        <ele>861</ele>
        <time>2024-05-22T09:53:23Z</time>
      </trkpt>
      <trkpt lat="45.12586" lon="4.47155">
        <ele>861</ele>
        <time>2024-05-22T09:53:26Z</time>
      </trkpt>
      <trkpt lat="45.1259" lon="4.47153">
        <ele>861</ele>
        <time>2024-05-22T09:53:30Z</time>
      </trkpt>
      <trkpt lat="45.12611" lon="4.47156">
        <ele>862</ele>
        <time>2024-05-22T09:53:46Z</time>
      </trkpt>
      <trkpt lat="45.12625" lon="4.47157">
        <ele>862</ele>
        <time>2024-05-22T09:53:57Z</time>
      </trkpt>
      <trkpt lat="45.12629" lon="4.47162">
        <ele>863</ele>
        <time>2024-05-22T09:54:02Z</time>
      </trkpt>
      <trkpt lat="45.12634" lon="4.47164">
        <ele>863</ele>
        <time>2024-05-22T09:54:09Z</time>
      </trkpt>
      <trkpt lat="45.12638" lon="4.47169">
        <ele>863</ele>
        <time>2024-05-22T09:54:13Z</time>
      </trkpt>
      <trkpt lat="45.12641" lon="4.47174">
        <ele>863</ele>
        <time>2024-05-22T09:54:18Z</time>
      </trkpt>
      <trkpt lat="45.12648" lon="4.47198">
        <ele>863</ele>
        <time>2024-05-22T09:54:54Z</time>
      </trkpt>
      <trkpt lat="45.1265" lon="4.47207">
        <ele>864</ele>
        <time>2024-05-22T09:55:02Z</time>
      </trkpt>
      <trkpt lat="45.1265" lon="4.47213">
        <ele>864</ele>
        <time>2024-05-22T09:55:06Z</time>
      </trkpt>
      <trkpt lat="45.12649" lon="4.47219">
        <ele>865</ele>
        <time>2024-05-22T09:55:20Z</time>
      </trkpt>
      <trkpt lat="45.1265" lon="4.47226">
        <ele>865</ele>
        <time>2024-05-22T09:55:24Z</time>
      </trkpt>
      <trkpt lat="45.12659" lon="4.47252">
        <ele>865</ele>
        <time>2024-05-22T09:55:53Z</time>
      </trkpt>
      <trkpt lat="45.12663" lon="4.47259">
        <ele>865</ele>
        <time>2024-05-22T09:56:06Z</time>
      </trkpt>
      <trkpt lat="45.12665" lon="4.47266">
        <ele>865</ele>
        <time>2024-05-22T09:56:12Z</time>
      </trkpt>
      <trkpt lat="45.12666" lon="4.47273">
        <ele>866</ele>
        <time>2024-05-22T09:56:18Z</time>
      </trkpt>
      <trkpt lat="45.12675" lon="4.47286">
        <ele>866</ele>
        <time>2024-05-22T09:56:35Z</time>
      </trkpt>
      <trkpt lat="45.12678" lon="4.47294">
        <ele>866</ele>
        <time>2024-05-22T09:56:47Z</time>
      </trkpt>
      <trkpt lat="45.12682" lon="4.47307">
        <ele>867</ele>
        <time>2024-05-22T09:56:55Z</time>
      </trkpt>
      <trkpt lat="45.12687" lon="4.47317">
        <ele>867</ele>
        <time>2024-05-22T09:57:02Z</time>
      </trkpt>
      <trkpt lat="45.12689" lon="4.47323">
        <ele>867</ele>
        <time>2024-05-22T09:57:06Z</time>
      </trkpt>
      <trkpt lat="45.1269" lon="4.47329">
        <ele>867</ele>
        <time>2024-05-22T09:57:10Z</time>
      </trkpt>
      <trkpt lat="45.12695" lon="4.47341">
        <ele>867</ele>
        <time>2024-05-22T09:57:18Z</time>
      </trkpt>
      <trkpt lat="45.12701" lon="4.47355">
        <ele>867</ele>
        <time>2024-05-22T09:57:28Z</time>
      </trkpt>
      <trkpt lat="45.12704" lon="4.47362">
        <ele>867</ele>
        <time>2024-05-22T09:57:32Z</time>
      </trkpt>
      <trkpt lat="45.12717" lon="4.4738">
        <ele>867</ele>
        <time>2024-05-22T09:57:44Z</time>
      </trkpt>
      <trkpt lat="45.12731" lon="4.47409">
        <ele>867</ele>
        <time>2024-05-22T09:58:03Z</time>
      </trkpt>
      <trkpt lat="45.12734" lon="4.47413">
        <ele>867</ele>
        <time>2024-05-22T09:58:07Z</time>
      </trkpt>
      <trkpt lat="45.12738" lon="4.47415">
        <ele>867</ele>
        <time>2024-05-22T09:58:12Z</time>
      </trkpt>
      <trkpt lat="45.12744" lon="4.47414">
        <ele>867</ele>
        <time>2024-05-22T09:58:17Z</time>
      </trkpt>
      <trkpt lat="45.12749" lon="4.47401">
        <ele>867</ele>
        <time>2024-05-22T09:58:25Z</time>
      </trkpt>
      <trkpt lat="45.12752" lon="4.47396">
        <ele>867</ele>
        <time>2024-05-22T09:58:29Z</time>
      </trkpt>
      <trkpt lat="45.12757" lon="4.47394">
        <ele>868</ele>
        <time>2024-05-22T09:58:39Z</time>
      </trkpt>
      <trkpt lat="45.12762" lon="4.47383">
        <ele>868</ele>
        <time>2024-05-22T09:58:47Z</time>
      </trkpt>
      <trkpt lat="45.12765" lon="4.47356">
        <ele>868</ele>
        <time>2024-05-22T09:59:02Z</time>
      </trkpt>
      <trkpt lat="45.12763" lon="4.47351">
        <ele>868</ele>
        <time>2024-05-22T09:59:05Z</time>
      </trkpt>
      <trkpt lat="45.12759" lon="4.47348">
        <ele>868</ele>
        <time>2024-05-22T09:59:08Z</time>
      </trkpt>
      <trkpt lat="45.12758" lon="4.47333">
        <ele>868</ele>
        <time>2024-05-22T09:59:16Z</time>
      </trkpt>
      <trkpt lat="45.12757" lon="4.47327">
        <ele>869</ele>
        <time>2024-05-22T09:59:20Z</time>
      </trkpt>
      <trkpt lat="45.12753" lon="4.473">
        <ele>869</ele>
        <time>2024-05-22T09:59:37Z</time>
      </trkpt>
      <trkpt lat="45.12754" lon="4.47293">
        <ele>869</ele>
        <time>2024-05-22T09:59:41Z</time>
      </trkpt>
      <trkpt lat="45.12756" lon="4.47279">
        <ele>869</ele>
        <time>2024-05-22T09:59:49Z</time>
      </trkpt>
      <trkpt lat="45.12756" lon="4.47266">
        <ele>869</ele>
        <time>2024-05-22T09:59:57Z</time>
      </trkpt>
      <trkpt lat="45.12754" lon="4.47261">
        <ele>869</ele>
        <time>2024-05-22T10:00:01Z</time>
      </trkpt>
      <trkpt lat="45.12727" lon="4.4724">
        <ele>864</ele>
        <time>2024-05-22T10:04:48Z</time>
      </trkpt>
      <trkpt lat="45.12706" lon="4.47212">
        <ele>858</ele>
        <time>2024-05-22T10:05:12Z</time>
      </trkpt>
      <trkpt lat="45.12704" lon="4.47205">
        <ele>857</ele>
        <time>2024-05-22T10:05:17Z</time>
      </trkpt>
      <trkpt lat="45.12701" lon="4.47201">
        <ele>856</ele>
        <time>2024-05-22T10:05:21Z</time>
      </trkpt>
      <trkpt lat="45.12697" lon="4.47192">
        <ele>854</ele>
        <time>2024-05-22T10:05:39Z</time>
      </trkpt>
      <trkpt lat="45.12695" lon="4.47185">
        <ele>854</ele>
        <time>2024-05-22T10:05:46Z</time>
      </trkpt>
      <trkpt lat="45.12695" lon="4.47163">
        <ele>856</ele>
        <time>2024-05-22T10:06:00Z</time>
      </trkpt>
      <trkpt lat="45.12695" lon="4.47156">
        <ele>856</ele>
        <time>2024-05-22T10:06:04Z</time>
      </trkpt>
      <trkpt lat="45.12703" lon="4.47128">
        <ele>859</ele>
        <time>2024-05-22T10:06:26Z</time>
      </trkpt>
      <trkpt lat="45.12703" lon="4.47122">
        <ele>860</ele>
        <time>2024-05-22T10:06:31Z</time>
      </trkpt>
      <trkpt lat="45.12701" lon="4.47116">
        <ele>861</ele>
        <time>2024-05-22T10:06:36Z</time>
      </trkpt>
      <trkpt lat="45.12702" lon="4.47108">
        <ele>861</ele>
        <time>2024-05-22T10:06:41Z</time>
      </trkpt>
      <trkpt lat="45.12702" lon="4.47102">
        <ele>862</ele>
        <time>2024-05-22T10:06:46Z</time>
      </trkpt>
      <trkpt lat="45.12701" lon="4.47085">
        <ele>863</ele>
        <time>2024-05-22T10:06:57Z</time>
      </trkpt>
      <trkpt lat="45.12698" lon="4.4708">
        <ele>862</ele>
        <time>2024-05-22T10:07:02Z</time>
      </trkpt>
      <trkpt lat="45.12694" lon="4.47076">
        <ele>862</ele>
        <time>2024-05-22T10:07:06Z</time>
      </trkpt>
      <trkpt lat="45.1269" lon="4.47071">
        <ele>862</ele>
        <time>2024-05-22T10:07:11Z</time>
      </trkpt>
      <trkpt lat="45.12689" lon="4.47065">
        <ele>863</ele>
        <time>2024-05-22T10:07:14Z</time>
      </trkpt>
      <trkpt lat="45.12689" lon="4.47059">
        <ele>863</ele>
        <time>2024-05-22T10:07:17Z</time>
      </trkpt>
      <trkpt lat="45.12688" lon="4.47052">
        <ele>862</ele>
        <time>2024-05-22T10:07:21Z</time>
      </trkpt>
      <trkpt lat="45.12683" lon="4.47041">
        <ele>864</ele>
        <time>2024-05-22T10:07:29Z</time>
      </trkpt>
      <trkpt lat="45.12677" lon="4.47044">
        <ele>864</ele>
        <time>2024-05-22T10:07:34Z</time>
      </trkpt>
      <trkpt lat="45.1267" lon="4.47045">
        <ele>864</ele>
        <time>2024-05-22T10:07:41Z</time>
      </trkpt>
      <trkpt lat="45.12656" lon="4.47034">
        <ele>866</ele>
        <time>2024-05-22T10:07:56Z</time>
      </trkpt>
      <trkpt lat="45.12651" lon="4.47035">
        <ele>866</ele>
        <time>2024-05-22T10:08:00Z</time>
      </trkpt>
      <trkpt lat="45.12646" lon="4.47032">
        <ele>866</ele>
        <time>2024-05-22T10:08:05Z</time>
      </trkpt>
      <trkpt lat="45.12642" lon="4.47035">
        <ele>867</ele>
        <time>2024-05-22T10:08:08Z</time>
      </trkpt>
      <trkpt lat="45.12638" lon="4.47032">
        <ele>867</ele>
        <time>2024-05-22T10:08:13Z</time>
      </trkpt>
      <trkpt lat="45.12632" lon="4.47034">
        <ele>867</ele>
        <time>2024-05-22T10:08:19Z</time>
      </trkpt>
      <trkpt lat="45.12628" lon="4.47036">
        <ele>867</ele>
        <time>2024-05-22T10:08:23Z</time>
      </trkpt>
      <trkpt lat="45.12619" lon="4.47037">
        <ele>868</ele>
        <time>2024-05-22T10:08:32Z</time>
      </trkpt>
      <trkpt lat="45.12614" lon="4.47041">
        <ele>868</ele>
        <time>2024-05-22T10:08:36Z</time>
      </trkpt>
      <trkpt lat="45.12608" lon="4.4704">
        <ele>868</ele>
        <time>2024-05-22T10:08:41Z</time>
      </trkpt>
      <trkpt lat="45.12601" lon="4.47039">
        <ele>869</ele>
        <time>2024-05-22T10:08:49Z</time>
      </trkpt>
      <trkpt lat="45.12596" lon="4.47038">
        <ele>869</ele>
        <time>2024-05-22T10:08:53Z</time>
      </trkpt>
      <trkpt lat="45.12592" lon="4.47036">
        <ele>869</ele>
        <time>2024-05-22T10:08:58Z</time>
      </trkpt>
      <trkpt lat="45.12589" lon="4.47031">
        <ele>869</ele>
        <time>2024-05-22T10:09:01Z</time>
      </trkpt>
      <trkpt lat="45.12566" lon="4.47012">
        <ele>872</ele>
        <time>2024-05-22T10:09:25Z</time>
      </trkpt>
      <trkpt lat="45.12562" lon="4.47006">
        <ele>872</ele>
        <time>2024-05-22T10:09:32Z</time>
      </trkpt>
      <trkpt lat="45.1256" lon="4.47">
        <ele>873</ele>
        <time>2024-05-22T10:09:37Z</time>
      </trkpt>
      <trkpt lat="45.12554" lon="4.46998">
        <ele>873</ele>
        <time>2024-05-22T10:09:44Z</time>
      </trkpt>
      <trkpt lat="45.12549" lon="4.46995">
        <ele>874</ele>
        <time>2024-05-22T10:09:48Z</time>
      </trkpt>
      <trkpt lat="45.12545" lon="4.46993">
        <ele>874</ele>
        <time>2024-05-22T10:09:51Z</time>
      </trkpt>
      <trkpt lat="45.1254" lon="4.46991">
        <ele>874</ele>
        <time>2024-05-22T10:09:56Z</time>
      </trkpt>
      <trkpt lat="45.12536" lon="4.46989">
        <ele>875</ele>
        <time>2024-05-22T10:10:01Z</time>
      </trkpt>
      <trkpt lat="45.12531" lon="4.46983">
        <ele>876</ele>
        <time>2024-05-22T10:10:09Z</time>
      </trkpt>
      <trkpt lat="45.12525" lon="4.46984">
        <ele>876</ele>
        <time>2024-05-22T10:10:13Z</time>
      </trkpt>
      <trkpt lat="45.1252" lon="4.4698">
        <ele>877</ele>
        <time>2024-05-22T10:10:18Z</time>
      </trkpt>
      <trkpt lat="45.12517" lon="4.46974">
        <ele>877</ele>
        <time>2024-05-22T10:10:22Z</time>
      </trkpt>
      <trkpt lat="45.12512" lon="4.46971">
        <ele>877</ele>
        <time>2024-05-22T10:10:27Z</time>
      </trkpt>
      <trkpt lat="45.12507" lon="4.46972">
        <ele>878</ele>
        <time>2024-05-22T10:10:30Z</time>
      </trkpt>
      <trkpt lat="45.12498" lon="4.46966">
        <ele>878</ele>
        <time>2024-05-22T10:10:39Z</time>
      </trkpt>
      <trkpt lat="45.12493" lon="4.4697">
        <ele>879</ele>
        <time>2024-05-22T10:10:45Z</time>
      </trkpt>
      <trkpt lat="45.12477" lon="4.46961">
        <ele>880</ele>
        <time>2024-05-22T10:11:03Z</time>
      </trkpt>
      <trkpt lat="45.12472" lon="4.46962">
        <ele>881</ele>
        <time>2024-05-22T10:11:07Z</time>
      </trkpt>
      <trkpt lat="45.12459" lon="4.46956">
        <ele>882</ele>
        <time>2024-05-22T10:11:19Z</time>
      </trkpt>
      <trkpt lat="45.12454" lon="4.46956">
        <ele>882</ele>
        <time>2024-05-22T10:11:23Z</time>
      </trkpt>
      <trkpt lat="45.12447" lon="4.46954">
        <ele>882</ele>
        <time>2024-05-22T10:11:28Z</time>
      </trkpt>
      <trkpt lat="45.12443" lon="4.46957">
        <ele>883</ele>
        <time>2024-05-22T10:11:32Z</time>
      </trkpt>
      <trkpt lat="45.1243" lon="4.46946">
        <ele>883</ele>
        <time>2024-05-22T10:11:45Z</time>
      </trkpt>
      <trkpt lat="45.12422" lon="4.46944">
        <ele>885</ele>
        <time>2024-05-22T10:11:56Z</time>
      </trkpt>
      <trkpt lat="45.12418" lon="4.46944">
        <ele>884</ele>
        <time>2024-05-22T10:12:00Z</time>
      </trkpt>
      <trkpt lat="45.12415" lon="4.46938">
        <ele>884</ele>
        <time>2024-05-22T10:12:04Z</time>
      </trkpt>
      <trkpt lat="45.12411" lon="4.46934">
        <ele>885</ele>
        <time>2024-05-22T10:12:08Z</time>
      </trkpt>
      <trkpt lat="45.12405" lon="4.46928">
        <ele>885</ele>
        <time>2024-05-22T10:12:13Z</time>
      </trkpt>
      <trkpt lat="45.12401" lon="4.46925">
        <ele>886</ele>
        <time>2024-05-22T10:12:18Z</time>
      </trkpt>
      <trkpt lat="45.12397" lon="4.4692">
        <ele>886</ele>
        <time>2024-05-22T10:12:23Z</time>
      </trkpt>
      <trkpt lat="45.12394" lon="4.46915">
        <ele>886</ele>
        <time>2024-05-22T10:12:28Z</time>
      </trkpt>
      <trkpt lat="45.12391" lon="4.4691">
        <ele>887</ele>
        <time>2024-05-22T10:12:31Z</time>
      </trkpt>
      <trkpt lat="45.12389" lon="4.46904">
        <ele>887</ele>
        <time>2024-05-22T10:12:35Z</time>
      </trkpt>
      <trkpt lat="45.12386" lon="4.46897">
        <ele>887</ele>
        <time>2024-05-22T10:12:41Z</time>
      </trkpt>
      <trkpt lat="45.12383" lon="4.46893">
        <ele>887</ele>
        <time>2024-05-22T10:12:44Z</time>
      </trkpt>
      <trkpt lat="45.1238" lon="4.46889">
        <ele>888</ele>
        <time>2024-05-22T10:12:47Z</time>
      </trkpt>
      <trkpt lat="45.12372" lon="4.46881">
        <ele>889</ele>
        <time>2024-05-22T10:12:56Z</time>
      </trkpt>
      <trkpt lat="45.12367" lon="4.46872">
        <ele>889</ele>
        <time>2024-05-22T10:13:06Z</time>
      </trkpt>
      <trkpt lat="45.12343" lon="4.4684">
        <ele>892</ele>
        <time>2024-05-22T10:13:39Z</time>
      </trkpt>
      <trkpt lat="45.12335" lon="4.46841">
        <ele>893</ele>
        <time>2024-05-22T10:13:48Z</time>
      </trkpt>
      <trkpt lat="45.12327" lon="4.46851">
        <ele>894</ele>
        <time>2024-05-22T10:14:06Z</time>
      </trkpt>
      <trkpt lat="45.12322" lon="4.46858">
        <ele>896</ele>
        <time>2024-05-22T10:14:17Z</time>
      </trkpt>
      <trkpt lat="45.12322" lon="4.46867">
        <ele>895</ele>
        <time>2024-05-22T10:14:26Z</time>
      </trkpt>
      <trkpt lat="45.12319" lon="4.46872">
        <ele>894</ele>
        <time>2024-05-22T10:14:29Z</time>
      </trkpt>
      <trkpt lat="45.12311" lon="4.46882">
        <ele>894</ele>
        <time>2024-05-22T10:14:38Z</time>
      </trkpt>
      <trkpt lat="45.12299" lon="4.46899">
        <ele>894</ele>
        <time>2024-05-22T10:14:52Z</time>
      </trkpt>
      <trkpt lat="45.12296" lon="4.46903">
        <ele>895</ele>
        <time>2024-05-22T10:14:55Z</time>
      </trkpt>
      <trkpt lat="45.12292" lon="4.46907">
        <ele>895</ele>
        <time>2024-05-22T10:14:59Z</time>
      </trkpt>
      <trkpt lat="45.12288" lon="4.46906">
        <ele>896</ele>
        <time>2024-05-22T10:15:03Z</time>
      </trkpt>
      <trkpt lat="45.12279" lon="4.46911">
        <ele>896</ele>
        <time>2024-05-22T10:15:12Z</time>
      </trkpt>
      <trkpt lat="45.12274" lon="4.46913">
        <ele>896</ele>
        <time>2024-05-22T10:15:17Z</time>
      </trkpt>
      <trkpt lat="45.12262" lon="4.46918">
        <ele>896</ele>
        <time>2024-05-22T10:15:31Z</time>
      </trkpt>
      <trkpt lat="45.12258" lon="4.46919">
        <ele>896</ele>
        <time>2024-05-22T10:15:34Z</time>
      </trkpt>
      <trkpt lat="45.12253" lon="4.46918">
        <ele>896</ele>
        <time>2024-05-22T10:15:37Z</time>
      </trkpt>
      <trkpt lat="45.12239" lon="4.46925">
        <ele>895</ele>
        <time>2024-05-22T10:15:48Z</time>
      </trkpt>
      <trkpt lat="45.12234" lon="4.46927">
        <ele>895</ele>
        <time>2024-05-22T10:15:52Z</time>
      </trkpt>
      <trkpt lat="45.1223" lon="4.4693">
        <ele>895</ele>
        <time>2024-05-22T10:15:56Z</time>
      </trkpt>
      <trkpt lat="45.1222" lon="4.46927">
        <ele>896</ele>
        <time>2024-05-22T10:16:03Z</time>
      </trkpt>
      <trkpt lat="45.12205" lon="4.46931">
        <ele>895</ele>
        <time>2024-05-22T10:16:19Z</time>
      </trkpt>
      <trkpt lat="45.122" lon="4.46933">
        <ele>895</ele>
        <time>2024-05-22T10:16:23Z</time>
      </trkpt>
      <trkpt lat="45.12188" lon="4.4694">
        <ele>895</ele>
        <time>2024-05-22T10:16:32Z</time>
      </trkpt>
      <trkpt lat="45.1218" lon="4.46933">
        <ele>896</ele>
        <time>2024-05-22T10:16:40Z</time>
      </trkpt>
      <trkpt lat="45.12174" lon="4.46921">
        <ele>896</ele>
        <time>2024-05-22T10:16:48Z</time>
      </trkpt>
      <trkpt lat="45.12161" lon="4.46902">
        <ele>899</ele>
        <time>2024-05-22T10:17:08Z</time>
      </trkpt>
      <trkpt lat="45.12157" lon="4.46898">
        <ele>900</ele>
        <time>2024-05-22T10:17:11Z</time>
      </trkpt>
      <trkpt lat="45.12146" lon="4.46868">
        <ele>902</ele>
        <time>2024-05-22T10:17:33Z</time>
      </trkpt>
      <trkpt lat="45.12144" lon="4.46864">
        <ele>903</ele>
        <time>2024-05-22T10:19:31Z</time>
      </trkpt>
      <trkpt lat="45.12146" lon="4.4686">
        <ele>903</ele>
        <time>2024-05-22T10:20:04Z</time>
      </trkpt>
      <trkpt lat="45.1217" lon="4.46882">
        <ele>907</ele>
        <time>2024-05-22T10:22:49Z</time>
      </trkpt>
      <trkpt lat="45.12171" lon="4.46882">
        <ele>908</ele>
        <time>2024-05-22T10:22:50Z</time>
      </trkpt>
      <trkpt lat="45.12177" lon="4.46881">
        <ele>909</ele>
        <time>2024-05-22T10:23:32Z</time>
      </trkpt>
      <trkpt lat="45.12183" lon="4.46882">
        <ele>910</ele>
        <time>2024-05-22T10:23:44Z</time>
      </trkpt>
      <trkpt lat="45.12182" lon="4.46875">
        <ele>911</ele>
        <time>2024-05-22T10:24:02Z</time>
      </trkpt>
      <trkpt lat="45.12176" lon="4.46869">
        <ele>912</ele>
        <time>2024-05-22T10:24:38Z</time>
      </trkpt>
      <trkpt lat="45.12177" lon="4.4686">
        <ele>913</ele>
        <time>2024-05-22T10:24:48Z</time>
      </trkpt>
      <trkpt lat="45.12186" lon="4.46841">
        <ele>918</ele>
        <time>2024-05-22T10:25:40Z</time>
      </trkpt>
      <trkpt lat="45.12189" lon="4.46832">
        <ele>920</ele>
        <time>2024-05-22T10:25:50Z</time>
      </trkpt>
      <trkpt lat="45.12193" lon="4.46828">
        <ele>922</ele>
        <time>2024-05-22T10:26:00Z</time>
      </trkpt>
      <trkpt lat="45.12196" lon="4.46817">
        <ele>925</ele>
        <time>2024-05-22T10:26:11Z</time>
      </trkpt>
      <trkpt lat="45.12207" lon="4.46806">
        <ele>929</ele>
        <time>2024-05-22T10:26:35Z</time>
      </trkpt>
      <trkpt lat="45.1221" lon="4.468">
        <ele>931</ele>
        <time>2024-05-22T10:26:42Z</time>
      </trkpt>
      <trkpt lat="45.12215" lon="4.46799">
        <ele>932</ele>
        <time>2024-05-22T10:26:48Z</time>
      </trkpt>
      <trkpt lat="45.12219" lon="4.46798">
        <ele>934</ele>
        <time>2024-05-22T10:26:57Z</time>
      </trkpt>
      <trkpt lat="45.12224" lon="4.46796">
        <ele>935</ele>
        <time>2024-05-22T10:27:03Z</time>
      </trkpt>
      <trkpt lat="45.122" lon="4.46775">
        <ele>935</ele>
        <time>2024-05-22T10:28:53Z</time>
      </trkpt>
      <trkpt lat="45.122" lon="4.46776">
        <ele>935</ele>
        <time>2024-05-22T10:28:54Z</time>
      </trkpt>
      <trkpt lat="45.12191" lon="4.46766">
        <ele>934</ele>
        <time>2024-05-22T10:29:00Z</time>
      </trkpt>
      <trkpt lat="45.1219" lon="4.46759">
        <ele>934</ele>
        <time>2024-05-22T10:29:03Z</time>
      </trkpt>
      <trkpt lat="45.12184" lon="4.46752">
        <ele>934</ele>
        <time>2024-05-22T10:29:09Z</time>
      </trkpt>
      <trkpt lat="45.12173" lon="4.46729">
        <ele>934</ele>
        <time>2024-05-22T10:29:24Z</time>
      </trkpt>
      <trkpt lat="45.12161" lon="4.46694">
        <ele>933</ele>
        <time>2024-05-22T10:29:48Z</time>
      </trkpt>
      <trkpt lat="45.12156" lon="4.46692">
        <ele>932</ele>
        <time>2024-05-22T10:29:52Z</time>
      </trkpt>
      <trkpt lat="45.12154" lon="4.46685">
        <ele>932</ele>
        <time>2024-05-22T10:29:56Z</time>
      </trkpt>
      <trkpt lat="45.12151" lon="4.46679">
        <ele>931</ele>
        <time>2024-05-22T10:30:00Z</time>
      </trkpt>
      <trkpt lat="45.12144" lon="4.46655">
        <ele>930</ele>
        <time>2024-05-22T10:30:16Z</time>
      </trkpt>
      <trkpt lat="45.12138" lon="4.46643">
        <ele>930</ele>
        <time>2024-05-22T10:30:24Z</time>
      </trkpt>
      <trkpt lat="45.12135" lon="4.46634">
        <ele>930</ele>
        <time>2024-05-22T10:30:32Z</time>
      </trkpt>
      <trkpt lat="45.1213" lon="4.46629">
        <ele>930</ele>
        <time>2024-05-22T10:30:38Z</time>
      </trkpt>
      <trkpt lat="45.12128" lon="4.46623">
        <ele>930</ele>
        <time>2024-05-22T10:30:42Z</time>
      </trkpt>
      <trkpt lat="45.1212" lon="4.46615">
        <ele>929</ele>
        <time>2024-05-22T10:30:51Z</time>
      </trkpt>
      <trkpt lat="45.12117" lon="4.46611">
        <ele>929</ele>
        <time>2024-05-22T10:30:55Z</time>
      </trkpt>
      <trkpt lat="45.12113" lon="4.46597">
        <ele>929</ele>
        <time>2024-05-22T10:31:03Z</time>
      </trkpt>
      <trkpt lat="45.12109" lon="4.46594">
        <ele>929</ele>
        <time>2024-05-22T10:31:06Z</time>
      </trkpt>
      <trkpt lat="45.12109" lon="4.46586">
        <ele>929</ele>
        <time>2024-05-22T10:31:09Z</time>
      </trkpt>
      <trkpt lat="45.12105" lon="4.46581">
        <ele>929</ele>
        <time>2024-05-22T10:31:13Z</time>
      </trkpt>
      <trkpt lat="45.12104" lon="4.46574">
        <ele>929</ele>
        <time>2024-05-22T10:31:18Z</time>
      </trkpt>
      <trkpt lat="45.12101" lon="4.46569">
        <ele>930</ele>
        <time>2024-05-22T10:31:23Z</time>
      </trkpt>
      <trkpt lat="45.121" lon="4.46563">
        <ele>930</ele>
        <time>2024-05-22T10:31:29Z</time>
      </trkpt>
      <trkpt lat="45.12095" lon="4.46557">
        <ele>932</ele>
        <time>2024-05-22T10:31:36Z</time>
      </trkpt>
      <trkpt lat="45.12073" lon="4.46546">
        <ele>935</ele>
        <time>2024-05-22T10:32:03Z</time>
      </trkpt>
      <trkpt lat="45.12067" lon="4.46547">
        <ele>936</ele>
        <time>2024-05-22T10:32:08Z</time>
      </trkpt>
      <trkpt lat="45.1205" lon="4.46544">
        <ele>938</ele>
        <time>2024-05-22T10:32:26Z</time>
      </trkpt>
      <trkpt lat="45.12045" lon="4.46547">
        <ele>939</ele>
        <time>2024-05-22T10:32:31Z</time>
      </trkpt>
      <trkpt lat="45.12039" lon="4.46543">
        <ele>940</ele>
        <time>2024-05-22T10:32:39Z</time>
      </trkpt>
      <trkpt lat="45.12035" lon="4.46541">
        <ele>941</ele>
        <time>2024-05-22T10:32:45Z</time>
      </trkpt>
      <trkpt lat="45.12031" lon="4.46537">
        <ele>943</ele>
        <time>2024-05-22T10:32:53Z</time>
      </trkpt>
      <trkpt lat="45.12033" lon="4.46531">
        <ele>944</ele>
        <time>2024-05-22T10:32:59Z</time>
      </trkpt>
      <trkpt lat="45.12038" lon="4.46525">
        <ele>945</ele>
        <time>2024-05-22T10:33:07Z</time>
      </trkpt>
      <trkpt lat="45.12042" lon="4.46522">
        <ele>945</ele>
        <time>2024-05-22T10:33:19Z</time>
      </trkpt>
      <trkpt lat="45.12044" lon="4.46514">
        <ele>945</ele>
        <time>2024-05-22T10:33:30Z</time>
      </trkpt>
      <trkpt lat="45.12044" lon="4.46492">
        <ele>948</ele>
        <time>2024-05-22T10:34:08Z</time>
      </trkpt>
      <trkpt lat="45.12044" lon="4.46468">
        <ele>948</ele>
        <time>2024-05-22T10:34:35Z</time>
      </trkpt>
      <trkpt lat="45.12042" lon="4.4646">
        <ele>948</ele>
        <time>2024-05-22T10:34:43Z</time>
      </trkpt>
      <trkpt lat="45.12035" lon="4.4646">
        <ele>949</ele>
        <time>2024-05-22T10:34:55Z</time>
      </trkpt>
      <trkpt lat="45.12033" lon="4.46454">
        <ele>949</ele>
        <time>2024-05-22T10:35:01Z</time>
      </trkpt>
      <trkpt lat="45.12027" lon="4.46453">
        <ele>949</ele>
        <time>2024-05-22T10:35:08Z</time>
      </trkpt>
      <trkpt lat="45.12018" lon="4.46434">
        <ele>949</ele>
        <time>2024-05-22T10:35:28Z</time>
      </trkpt>
      <trkpt lat="45.12041" lon="4.46459">
        <ele>953</ele>
        <time>2024-05-22T11:18:41Z</time>
      </trkpt>
      <trkpt lat="45.12042" lon="4.46459">
        <ele>953</ele>
        <time>2024-05-22T11:18:42Z</time>
      </trkpt>
      <trkpt lat="45.12054" lon="4.46452">
        <ele>953</ele>
        <time>2024-05-22T11:18:57Z</time>
      </trkpt>
      <trkpt lat="45.12064" lon="4.46452">
        <ele>953</ele>
        <time>2024-05-22T11:19:07Z</time>
      </trkpt>
      <trkpt lat="45.12073" lon="4.46447">
        <ele>953</ele>
        <time>2024-05-22T11:19:16Z</time>
      </trkpt>
      <trkpt lat="45.12084" lon="4.46438">
        <ele>953</ele>
        <time>2024-05-22T11:19:29Z</time>
      </trkpt>
      <trkpt lat="45.12088" lon="4.46436">
        <ele>953</ele>
        <time>2024-05-22T11:19:33Z</time>
      </trkpt>
      <trkpt lat="45.12109" lon="4.4642">
        <ele>955</ele>
        <time>2024-05-22T11:20:05Z</time>
      </trkpt>
      <trkpt lat="45.12118" lon="4.46417">
        <ele>956</ele>
        <time>2024-05-22T11:20:15Z</time>
      </trkpt>
      <trkpt lat="45.12127" lon="4.46408">
        <ele>957</ele>
        <time>2024-05-22T11:20:28Z</time>
      </trkpt>
      <trkpt lat="45.12139" lon="4.4641">
        <ele>959</ele>
        <time>2024-05-22T11:20:46Z</time>
      </trkpt>
      <trkpt lat="45.12143" lon="4.46408">
        <ele>960</ele>
        <time>2024-05-22T11:20:51Z</time>
      </trkpt>
      <trkpt lat="45.12168" lon="4.46392">
        <ele>964</ele>
        <time>2024-05-22T11:21:23Z</time>
      </trkpt>
      <trkpt lat="45.12173" lon="4.46392">
        <ele>966</ele>
        <time>2024-05-22T11:21:29Z</time>
      </trkpt>
      <trkpt lat="45.12178" lon="4.46392">
        <ele>966</ele>
        <time>2024-05-22T11:21:34Z</time>
      </trkpt>
      <trkpt lat="45.12187" lon="4.46383">
        <ele>969</ele>
        <time>2024-05-22T11:21:53Z</time>
      </trkpt>
      <trkpt lat="45.12199" lon="4.46362">
        <ele>970</ele>
        <time>2024-05-22T11:22:20Z</time>
      </trkpt>
      <trkpt lat="45.12199" lon="4.46373">
        <ele>970</ele>
        <time>2024-05-22T11:22:40Z</time>
      </trkpt>
      <trkpt lat="45.1219" lon="4.46391">
        <ele>969</ele>
        <time>2024-05-22T11:22:53Z</time>
      </trkpt>
      <trkpt lat="45.12196" lon="4.46389">
        <ele>970</ele>
        <time>2024-05-22T11:23:01Z</time>
      </trkpt>
      <trkpt lat="45.12199" lon="4.46385">
        <ele>971</ele>
        <time>2024-05-22T11:23:07Z</time>
      </trkpt>
      <trkpt lat="45.12211" lon="4.4638">
        <ele>974</ele>
        <time>2024-05-22T11:23:19Z</time>
      </trkpt>
      <trkpt lat="45.12214" lon="4.46378">
        <ele>975</ele>
        <time>2024-05-22T11:23:27Z</time>
      </trkpt>
      <trkpt lat="45.12239" lon="4.46374">
        <ele>982</ele>
        <time>2024-05-22T11:24:03Z</time>
      </trkpt>
      <trkpt lat="45.12243" lon="4.46377">
        <ele>982</ele>
        <time>2024-05-22T11:24:10Z</time>
      </trkpt>
      <trkpt lat="45.12252" lon="4.46378">
        <ele>984</ele>
        <time>2024-05-22T11:24:22Z</time>
      </trkpt>
      <trkpt lat="45.12263" lon="4.46386">
        <ele>987</ele>
        <time>2024-05-22T11:24:43Z</time>
      </trkpt>
      <trkpt lat="45.12268" lon="4.46388">
        <ele>987</ele>
        <time>2024-05-22T11:24:53Z</time>
      </trkpt>
      <trkpt lat="45.12271" lon="4.46393">
        <ele>987</ele>
        <time>2024-05-22T11:24:59Z</time>
      </trkpt>
      <trkpt lat="45.12274" lon="4.46397">
        <ele>986</ele>
        <time>2024-05-22T11:25:30Z</time>
      </trkpt>
      <trkpt lat="45.12286" lon="4.46406">
        <ele>985</ele>
        <time>2024-05-22T11:25:48Z</time>
      </trkpt>
      <trkpt lat="45.12295" lon="4.46414">
        <ele>985</ele>
        <time>2024-05-22T11:25:56Z</time>
      </trkpt>
      <trkpt lat="45.12302" lon="4.46426">
        <ele>984</ele>
        <time>2024-05-22T11:26:06Z</time>
      </trkpt>
      <trkpt lat="45.12309" lon="4.46434">
        <ele>984</ele>
        <time>2024-05-22T11:26:14Z</time>
      </trkpt>
      <trkpt lat="45.12323" lon="4.46459">
        <ele>984</ele>
        <time>2024-05-22T11:26:36Z</time>
      </trkpt>
      <trkpt lat="45.12347" lon="4.46499">
        <ele>985</ele>
        <time>2024-05-22T11:27:10Z</time>
      </trkpt>
      <trkpt lat="45.12353" lon="4.46507">
        <ele>985</ele>
        <time>2024-05-22T11:27:18Z</time>
      </trkpt>
      <trkpt lat="45.12362" lon="4.46522">
        <ele>985</ele>
        <time>2024-05-22T11:27:31Z</time>
      </trkpt>
      <trkpt lat="45.12367" lon="4.46528">
        <ele>985</ele>
        <time>2024-05-22T11:27:38Z</time>
      </trkpt>
      <trkpt lat="45.12376" lon="4.46534">
        <ele>986</ele>
        <time>2024-05-22T11:27:47Z</time>
      </trkpt>
      <trkpt lat="45.12384" lon="4.46534">
        <ele>987</ele>
        <time>2024-05-22T11:27:56Z</time>
      </trkpt>
      <trkpt lat="45.12388" lon="4.4653">
        <ele>987</ele>
        <time>2024-05-22T11:28:01Z</time>
      </trkpt>
      <trkpt lat="45.12392" lon="4.4653">
        <ele>987</ele>
        <time>2024-05-22T11:28:09Z</time>
      </trkpt>
      <trkpt lat="45.12401" lon="4.4652">
        <ele>987</ele>
        <time>2024-05-22T11:28:19Z</time>
      </trkpt>
      <trkpt lat="45.12418" lon="4.4651">
        <ele>985</ele>
        <time>2024-05-22T11:28:37Z</time>
      </trkpt>
      <trkpt lat="45.12422" lon="4.46506">
        <ele>985</ele>
        <time>2024-05-22T11:28:41Z</time>
      </trkpt>
      <trkpt lat="45.12433" lon="4.46506">
        <ele>984</ele>
        <time>2024-05-22T11:28:52Z</time>
      </trkpt>
      <trkpt lat="45.12442" lon="4.46503">
        <ele>984</ele>
        <time>2024-05-22T11:29:00Z</time>
      </trkpt>
      <trkpt lat="45.12447" lon="4.46502">
        <ele>984</ele>
        <time>2024-05-22T11:29:05Z</time>
      </trkpt>
      <trkpt lat="45.12456" lon="4.46504">
        <ele>983</ele>
        <time>2024-05-22T11:29:14Z</time>
      </trkpt>
      <trkpt lat="45.12483" lon="4.465">
        <ele>981</ele>
        <time>2024-05-22T11:29:38Z</time>
      </trkpt>
      <trkpt lat="45.12487" lon="4.46496">
        <ele>981</ele>
        <time>2024-05-22T11:29:43Z</time>
      </trkpt>
      <trkpt lat="45.12492" lon="4.46494">
        <ele>981</ele>
        <time>2024-05-22T11:29:48Z</time>
      </trkpt>
      <trkpt lat="45.12496" lon="4.46496">
        <ele>982</ele>
        <time>2024-05-22T11:29:51Z</time>
      </trkpt>
      <trkpt lat="45.12509" lon="4.46507">
        <ele>982</ele>
        <time>2024-05-22T11:30:02Z</time>
      </trkpt>
      <trkpt lat="45.12519" lon="4.46519">
        <ele>982</ele>
        <time>2024-05-22T11:30:16Z</time>
      </trkpt>
      <trkpt lat="45.12549" lon="4.46545">
        <ele>982</ele>
        <time>2024-05-22T11:30:48Z</time>
      </trkpt>
      <trkpt lat="45.12584" lon="4.46558">
        <ele>983</ele>
        <time>2024-05-22T11:31:20Z</time>
      </trkpt>
      <trkpt lat="45.12589" lon="4.46558">
        <ele>983</ele>
        <time>2024-05-22T11:31:25Z</time>
      </trkpt>
      <trkpt lat="45.12594" lon="4.46559">
        <ele>983</ele>
        <time>2024-05-22T11:31:29Z</time>
      </trkpt>
      <trkpt lat="45.12627" lon="4.46549">
        <ele>985</ele>
        <time>2024-05-22T11:32:00Z</time>
      </trkpt>
      <trkpt lat="45.12645" lon="4.46541">
        <ele>987</ele>
        <time>2024-05-22T11:32:18Z</time>
      </trkpt>
      <trkpt lat="45.1265" lon="4.46542">
        <ele>987</ele>
        <time>2024-05-22T11:32:22Z</time>
      </trkpt>
      <trkpt lat="45.12658" lon="4.46538">
        <ele>988</ele>
        <time>2024-05-22T11:32:30Z</time>
      </trkpt>
      <trkpt lat="45.12662" lon="4.46537">
        <ele>988</ele>
        <time>2024-05-22T11:32:34Z</time>
      </trkpt>
      <trkpt lat="45.12671" lon="4.46531">
        <ele>989</ele>
        <time>2024-05-22T11:32:42Z</time>
      </trkpt>
      <trkpt lat="45.12684" lon="4.46529">
        <ele>990</ele>
        <time>2024-05-22T11:32:56Z</time>
      </trkpt>
      <trkpt lat="45.12689" lon="4.46528">
        <ele>991</ele>
        <time>2024-05-22T11:33:03Z</time>
      </trkpt>
      <trkpt lat="45.12696" lon="4.46517">
        <ele>992</ele>
        <time>2024-05-22T11:34:09Z</time>
      </trkpt>
      <trkpt lat="45.12704" lon="4.4651">
        <ele>991</ele>
        <time>2024-05-22T11:34:18Z</time>
      </trkpt>
      <trkpt lat="45.12709" lon="4.465">
        <ele>990</ele>
        <time>2024-05-22T11:34:26Z</time>
      </trkpt>
      <trkpt lat="45.12714" lon="4.46497">
        <ele>990</ele>
        <time>2024-05-22T11:34:30Z</time>
      </trkpt>
      <trkpt lat="45.12718" lon="4.46498">
        <ele>989</ele>
        <time>2024-05-22T11:34:33Z</time>
      </trkpt>
      <trkpt lat="45.12725" lon="4.46491">
        <ele>989</ele>
        <time>2024-05-22T11:34:42Z</time>
      </trkpt>
      <trkpt lat="45.12728" lon="4.46484">
        <ele>988</ele>
        <time>2024-05-22T11:34:46Z</time>
      </trkpt>
      <trkpt lat="45.12732" lon="4.4648">
        <ele>987</ele>
        <time>2024-05-22T11:34:51Z</time>
      </trkpt>
      <trkpt lat="45.12737" lon="4.46471">
        <ele>986</ele>
        <time>2024-05-22T11:34:59Z</time>
      </trkpt>
      <trkpt lat="45.12737" lon="4.46465">
        <ele>986</ele>
        <time>2024-05-22T11:35:04Z</time>
      </trkpt>
      <trkpt lat="45.12739" lon="4.46458">
        <ele>986</ele>
        <time>2024-05-22T11:35:08Z</time>
      </trkpt>
      <trkpt lat="45.12742" lon="4.46462">
        <ele>986</ele>
        <time>2024-05-22T11:35:11Z</time>
      </trkpt>
      <trkpt lat="45.12743" lon="4.46455">
        <ele>985</ele>
        <time>2024-05-22T11:35:17Z</time>
      </trkpt>
      <trkpt lat="45.12745" lon="4.46449">
        <ele>985</ele>
        <time>2024-05-22T11:35:21Z</time>
      </trkpt>
      <trkpt lat="45.12752" lon="4.46436">
        <ele>986</ele>
        <time>2024-05-22T11:35:33Z</time>
      </trkpt>
      <trkpt lat="45.12756" lon="4.46433">
        <ele>986</ele>
        <time>2024-05-22T11:35:37Z</time>
      </trkpt>
      <trkpt lat="45.1276" lon="4.46426">
        <ele>985</ele>
        <time>2024-05-22T11:35:43Z</time>
      </trkpt>
      <trkpt lat="45.12764" lon="4.46423">
        <ele>985</ele>
        <time>2024-05-22T11:35:48Z</time>
      </trkpt>
      <trkpt lat="45.12765" lon="4.46414">
        <ele>985</ele>
        <time>2024-05-22T11:35:52Z</time>
      </trkpt>
      <trkpt lat="45.12782" lon="4.46403">
        <ele>984</ele>
        <time>2024-05-22T11:36:05Z</time>
      </trkpt>
      <trkpt lat="45.12788" lon="4.46392">
        <ele>983</ele>
        <time>2024-05-22T11:36:16Z</time>
      </trkpt>
      <trkpt lat="45.12791" lon="4.46386">
        <ele>983</ele>
        <time>2024-05-22T11:36:19Z</time>
      </trkpt>
      <trkpt lat="45.12791" lon="4.4638">
        <ele>983</ele>
        <time>2024-05-22T11:36:22Z</time>
      </trkpt>
      <trkpt lat="45.12797" lon="4.46376">
        <ele>983</ele>
        <time>2024-05-22T11:36:28Z</time>
      </trkpt>
      <trkpt lat="45.12798" lon="4.46368">
        <ele>983</ele>
        <time>2024-05-22T11:36:31Z</time>
      </trkpt>
      <trkpt lat="45.12798" lon="4.46362">
        <ele>983</ele>
        <time>2024-05-22T11:36:34Z</time>
      </trkpt>
      <trkpt lat="45.128" lon="4.46355">
        <ele>982</ele>
        <time>2024-05-22T11:36:38Z</time>
      </trkpt>
      <trkpt lat="45.12799" lon="4.46349">
        <ele>981</ele>
        <time>2024-05-22T11:36:43Z</time>
      </trkpt>
      <trkpt lat="45.12803" lon="4.46345">
        <ele>981</ele>
        <time>2024-05-22T11:36:47Z</time>
      </trkpt>
      <trkpt lat="45.12804" lon="4.46339">
        <ele>981</ele>
        <time>2024-05-22T11:36:50Z</time>
      </trkpt>
      <trkpt lat="45.12807" lon="4.46324">
        <ele>980</ele>
        <time>2024-05-22T11:36:59Z</time>
      </trkpt>
      <trkpt lat="45.1281" lon="4.4632">
        <ele>980</ele>
        <time>2024-05-22T11:37:03Z</time>
      </trkpt>
      <trkpt lat="45.12809" lon="4.46301">
        <ele>979</ele>
        <time>2024-05-22T11:37:21Z</time>
      </trkpt>
      <trkpt lat="45.12807" lon="4.46295">
        <ele>978</ele>
        <time>2024-05-22T11:37:26Z</time>
      </trkpt>
      <trkpt lat="45.12805" lon="4.46281">
        <ele>977</ele>
        <time>2024-05-22T11:37:34Z</time>
      </trkpt>
      <trkpt lat="45.12805" lon="4.46275">
        <ele>977</ele>
        <time>2024-05-22T11:37:38Z</time>
      </trkpt>
      <trkpt lat="45.12802" lon="4.46269">
        <ele>976</ele>
        <time>2024-05-22T11:37:43Z</time>
      </trkpt>
      <trkpt lat="45.12788" lon="4.4623">
        <ele>975</ele>
        <time>2024-05-22T11:38:12Z</time>
      </trkpt>
      <trkpt lat="45.12784" lon="4.46218">
        <ele>974</ele>
        <time>2024-05-22T11:38:20Z</time>
      </trkpt>
      <trkpt lat="45.1278" lon="4.46204">
        <ele>973</ele>
        <time>2024-05-22T11:38:31Z</time>
      </trkpt>
      <trkpt lat="45.12779" lon="4.46197">
        <ele>973</ele>
        <time>2024-05-22T11:38:35Z</time>
      </trkpt>
      <trkpt lat="45.12777" lon="4.4619">
        <ele>972</ele>
        <time>2024-05-22T11:38:39Z</time>
      </trkpt>
      <trkpt lat="45.12776" lon="4.4618">
        <ele>971</ele>
        <time>2024-05-22T11:38:46Z</time>
      </trkpt>
      <trkpt lat="45.12773" lon="4.46175">
        <ele>971</ele>
        <time>2024-05-22T11:38:50Z</time>
      </trkpt>
      <trkpt lat="45.12771" lon="4.46162">
        <ele>970</ele>
        <time>2024-05-22T11:38:58Z</time>
      </trkpt>
      <trkpt lat="45.12771" lon="4.46155">
        <ele>970</ele>
        <time>2024-05-22T11:39:02Z</time>
      </trkpt>
      <trkpt lat="45.12771" lon="4.46149">
        <ele>970</ele>
        <time>2024-05-22T11:39:05Z</time>
      </trkpt>
      <trkpt lat="45.12772" lon="4.46144">
        <ele>970</ele>
        <time>2024-05-22T11:39:09Z</time>
      </trkpt>
      <trkpt lat="45.12773" lon="4.4612">
        <ele>970</ele>
        <time>2024-05-22T11:39:24Z</time>
      </trkpt>
      <trkpt lat="45.1277" lon="4.46114">
        <ele>969</ele>
        <time>2024-05-22T11:39:28Z</time>
      </trkpt>
      <trkpt lat="45.12767" lon="4.46091">
        <ele>969</ele>
        <time>2024-05-22T11:39:40Z</time>
      </trkpt>
      <trkpt lat="45.12767" lon="4.46076">
        <ele>968</ele>
        <time>2024-05-22T11:39:50Z</time>
      </trkpt>
      <trkpt lat="45.12766" lon="4.46068">
        <ele>968</ele>
        <time>2024-05-22T11:39:54Z</time>
      </trkpt>
      <trkpt lat="45.12768" lon="4.46055">
        <ele>968</ele>
        <time>2024-05-22T11:40:02Z</time>
      </trkpt>
      <trkpt lat="45.12765" lon="4.4604">
        <ele>966</ele>
        <time>2024-05-22T11:40:12Z</time>
      </trkpt>
      <trkpt lat="45.12763" lon="4.46033">
        <ele>966</ele>
        <time>2024-05-22T11:40:16Z</time>
      </trkpt>
      <trkpt lat="45.12763" lon="4.46027">
        <ele>965</ele>
        <time>2024-05-22T11:40:20Z</time>
      </trkpt>
      <trkpt lat="45.12761" lon="4.46021">
        <ele>964</ele>
        <time>2024-05-22T11:40:24Z</time>
      </trkpt>
      <trkpt lat="45.12753" lon="4.46012">
        <ele>963</ele>
        <time>2024-05-22T11:40:32Z</time>
      </trkpt>
      <trkpt lat="45.12751" lon="4.45998">
        <ele>961</ele>
        <time>2024-05-22T11:40:41Z</time>
      </trkpt>
      <trkpt lat="45.12755" lon="4.45993">
        <ele>960</ele>
        <time>2024-05-22T11:40:45Z</time>
      </trkpt>
      <trkpt lat="45.12757" lon="4.45988">
        <ele>960</ele>
        <time>2024-05-22T11:40:48Z</time>
      </trkpt>
      <trkpt lat="45.12763" lon="4.45986">
        <ele>959</ele>
        <time>2024-05-22T11:40:51Z</time>
      </trkpt>
      <trkpt lat="45.12768" lon="4.45989">
        <ele>959</ele>
        <time>2024-05-22T11:40:54Z</time>
      </trkpt>
      <trkpt lat="45.12777" lon="4.45996">
        <ele>958</ele>
        <time>2024-05-22T11:41:01Z</time>
      </trkpt>
      <trkpt lat="45.12785" lon="4.45993">
        <ele>957</ele>
        <time>2024-05-22T11:41:14Z</time>
      </trkpt>
      <trkpt lat="45.12792" lon="4.45997">
        <ele>956</ele>
        <time>2024-05-22T11:41:22Z</time>
      </trkpt>
      <trkpt lat="45.12795" lon="4.46002">
        <ele>955</ele>
        <time>2024-05-22T11:41:26Z</time>
      </trkpt>
      <trkpt lat="45.12799" lon="4.46005">
        <ele>955</ele>
        <time>2024-05-22T11:41:30Z</time>
      </trkpt>
      <trkpt lat="45.12804" lon="4.4601">
        <ele>954</ele>
        <time>2024-05-22T11:41:36Z</time>
      </trkpt>
      <trkpt lat="45.12809" lon="4.46023">
        <ele>953</ele>
        <time>2024-05-22T11:41:42Z</time>
      </trkpt>
      <trkpt lat="45.12814" lon="4.46025">
        <ele>953</ele>
        <time>2024-05-22T11:41:45Z</time>
      </trkpt>
      <trkpt lat="45.1282" lon="4.46035">
        <ele>951</ele>
        <time>2024-05-22T11:41:53Z</time>
      </trkpt>
      <trkpt lat="45.12822" lon="4.46042">
        <ele>951</ele>
        <time>2024-05-22T11:41:57Z</time>
      </trkpt>
      <trkpt lat="45.12825" lon="4.46047">
        <ele>950</ele>
        <time>2024-05-22T11:42:01Z</time>
      </trkpt>
      <trkpt lat="45.12829" lon="4.4605">
        <ele>950</ele>
        <time>2024-05-22T11:42:05Z</time>
      </trkpt>
      <trkpt lat="45.12832" lon="4.46059">
        <ele>948</ele>
        <time>2024-05-22T11:42:15Z</time>
      </trkpt>
      <trkpt lat="45.12843" lon="4.46077">
        <ele>947</ele>
        <time>2024-05-22T11:42:30Z</time>
      </trkpt>
      <trkpt lat="45.12846" lon="4.46084">
        <ele>946</ele>
        <time>2024-05-22T11:42:34Z</time>
      </trkpt>
      <trkpt lat="45.1285" lon="4.46088">
        <ele>946</ele>
        <time>2024-05-22T11:42:37Z</time>
      </trkpt>
      <trkpt lat="45.12854" lon="4.46091">
        <ele>946</ele>
        <time>2024-05-22T11:42:42Z</time>
      </trkpt>
      <trkpt lat="45.12854" lon="4.46099">
        <ele>945</ele>
        <time>2024-05-22T11:42:46Z</time>
      </trkpt>
      <trkpt lat="45.12857" lon="4.46106">
        <ele>945</ele>
        <time>2024-05-22T11:42:50Z</time>
      </trkpt>
      <trkpt lat="45.12861" lon="4.46109">
        <ele>944</ele>
        <time>2024-05-22T11:42:54Z</time>
      </trkpt>
      <trkpt lat="45.12865" lon="4.46125">
        <ele>943</ele>
        <time>2024-05-22T11:43:04Z</time>
      </trkpt>
      <trkpt lat="45.1287" lon="4.46129">
        <ele>943</ele>
        <time>2024-05-22T11:43:07Z</time>
      </trkpt>
      <trkpt lat="45.12871" lon="4.46135">
        <ele>943</ele>
        <time>2024-05-22T11:43:10Z</time>
      </trkpt>
      <trkpt lat="45.12878" lon="4.46146">
        <ele>942</ele>
        <time>2024-05-22T11:43:18Z</time>
      </trkpt>
      <trkpt lat="45.12887" lon="4.4615">
        <ele>942</ele>
        <time>2024-05-22T11:43:24Z</time>
      </trkpt>
      <trkpt lat="45.12891" lon="4.46146">
        <ele>941</ele>
        <time>2024-05-22T11:43:29Z</time>
      </trkpt>
      <trkpt lat="45.12893" lon="4.46137">
        <ele>940</ele>
        <time>2024-05-22T11:43:36Z</time>
      </trkpt>
      <trkpt lat="45.12883" lon="4.4613">
        <ele>938</ele>
        <time>2024-05-22T11:43:43Z</time>
      </trkpt>
      <trkpt lat="45.12878" lon="4.46128">
        <ele>938</ele>
        <time>2024-05-22T11:43:45Z</time>
      </trkpt>
      <trkpt lat="45.12874" lon="4.46125">
        <ele>938</ele>
        <time>2024-05-22T11:43:48Z</time>
      </trkpt>
      <trkpt lat="45.12867" lon="4.46109">
        <ele>936</ele>
        <time>2024-05-22T11:43:59Z</time>
      </trkpt>
      <trkpt lat="45.12869" lon="4.46101">
        <ele>935</ele>
        <time>2024-05-22T11:44:03Z</time>
      </trkpt>
      <trkpt lat="45.12863" lon="4.46071">
        <ele>933</ele>
        <time>2024-05-22T11:44:20Z</time>
      </trkpt>
      <trkpt lat="45.1286" lon="4.46066">
        <ele>932</ele>
        <time>2024-05-22T11:44:23Z</time>
      </trkpt>
      <trkpt lat="45.1286" lon="4.4605">
        <ele>931</ele>
        <time>2024-05-22T11:44:33Z</time>
      </trkpt>
      <trkpt lat="45.12861" lon="4.46044">
        <ele>931</ele>
        <time>2024-05-22T11:44:36Z</time>
      </trkpt>
      <trkpt lat="45.12854" lon="4.46036">
        <ele>930</ele>
        <time>2024-05-22T11:44:43Z</time>
      </trkpt>
      <trkpt lat="45.12858" lon="4.46021">
        <ele>929</ele>
        <time>2024-05-22T11:44:53Z</time>
      </trkpt>
      <trkpt lat="45.12858" lon="4.46014">
        <ele>929</ele>
        <time>2024-05-22T11:44:58Z</time>
      </trkpt>
      <trkpt lat="45.12853" lon="4.45985">
        <ele>927</ele>
        <time>2024-05-22T11:45:15Z</time>
      </trkpt>
      <trkpt lat="45.12849" lon="4.45979">
        <ele>926</ele>
        <time>2024-05-22T11:45:25Z</time>
      </trkpt>
      <trkpt lat="45.12846" lon="4.45968">
        <ele>925</ele>
        <time>2024-05-22T11:45:32Z</time>
      </trkpt>
      <trkpt lat="45.12844" lon="4.45956">
        <ele>925</ele>
        <time>2024-05-22T11:45:38Z</time>
      </trkpt>
      <trkpt lat="45.12842" lon="4.4595">
        <ele>925</ele>
        <time>2024-05-22T11:45:41Z</time>
      </trkpt>
      <trkpt lat="45.12839" lon="4.45937">
        <ele>924</ele>
        <time>2024-05-22T11:45:50Z</time>
      </trkpt>
      <trkpt lat="45.12837" lon="4.45926">
        <ele>923</ele>
        <time>2024-05-22T11:45:59Z</time>
      </trkpt>
      <trkpt lat="45.12838" lon="4.4592">
        <ele>923</ele>
        <time>2024-05-22T11:46:02Z</time>
      </trkpt>
      <trkpt lat="45.12831" lon="4.459">
        <ele>921</ele>
        <time>2024-05-22T11:46:17Z</time>
      </trkpt>
      <trkpt lat="45.12828" lon="4.45893">
        <ele>921</ele>
        <time>2024-05-22T11:46:21Z</time>
      </trkpt>
      <trkpt lat="45.12826" lon="4.45888">
        <ele>921</ele>
        <time>2024-05-22T11:46:23Z</time>
      </trkpt>
      <trkpt lat="45.12826" lon="4.45873">
        <ele>919</ele>
        <time>2024-05-22T11:46:33Z</time>
      </trkpt>
      <trkpt lat="45.12821" lon="4.4586">
        <ele>919</ele>
        <time>2024-05-22T11:46:40Z</time>
      </trkpt>
      <trkpt lat="45.1282" lon="4.45854">
        <ele>919</ele>
        <time>2024-05-22T11:46:44Z</time>
      </trkpt>
      <trkpt lat="45.12818" lon="4.45846">
        <ele>918</ele>
        <time>2024-05-22T11:46:51Z</time>
      </trkpt>
      <trkpt lat="45.12794" lon="4.45812">
        <ele>915</ele>
        <time>2024-05-22T11:47:21Z</time>
      </trkpt>
      <trkpt lat="45.12784" lon="4.45798">
        <ele>914</ele>
        <time>2024-05-22T11:47:33Z</time>
      </trkpt>
      <trkpt lat="45.12775" lon="4.45793">
        <ele>913</ele>
        <time>2024-05-22T11:47:41Z</time>
      </trkpt>
      <trkpt lat="45.12772" lon="4.45789">
        <ele>912</ele>
        <time>2024-05-22T11:47:45Z</time>
      </trkpt>
      <trkpt lat="45.12765" lon="4.45786">
        <ele>912</ele>
        <time>2024-05-22T11:47:51Z</time>
      </trkpt>
      <trkpt lat="45.1276" lon="4.45786">
        <ele>911</ele>
        <time>2024-05-22T11:47:54Z</time>
      </trkpt>
      <trkpt lat="45.12752" lon="4.45779">
        <ele>911</ele>
        <time>2024-05-22T11:48:00Z</time>
      </trkpt>
      <trkpt lat="45.12747" lon="4.45778">
        <ele>910</ele>
        <time>2024-05-22T11:48:07Z</time>
      </trkpt>
      <trkpt lat="45.12737" lon="4.45772">
        <ele>909</ele>
        <time>2024-05-22T11:48:14Z</time>
      </trkpt>
      <trkpt lat="45.12733" lon="4.45772">
        <ele>909</ele>
        <time>2024-05-22T11:48:17Z</time>
      </trkpt>
      <trkpt lat="45.12724" lon="4.45769">
        <ele>908</ele>
        <time>2024-05-22T11:48:24Z</time>
      </trkpt>
      <trkpt lat="45.12718" lon="4.45771">
        <ele>907</ele>
        <time>2024-05-22T11:48:31Z</time>
      </trkpt>
      <trkpt lat="45.12714" lon="4.45769">
        <ele>907</ele>
        <time>2024-05-22T11:48:35Z</time>
      </trkpt>
      <trkpt lat="45.12708" lon="4.45771">
        <ele>906</ele>
        <time>2024-05-22T11:48:40Z</time>
      </trkpt>
      <trkpt lat="45.12704" lon="4.45771">
        <ele>906</ele>
        <time>2024-05-22T11:48:44Z</time>
      </trkpt>
      <trkpt lat="45.12688" lon="4.45785">
        <ele>904</ele>
        <time>2024-05-22T11:48:57Z</time>
      </trkpt>
      <trkpt lat="45.12686" lon="4.45791">
        <ele>904</ele>
        <time>2024-05-22T11:49:00Z</time>
      </trkpt>
      <trkpt lat="45.12679" lon="4.45793">
        <ele>903</ele>
        <time>2024-05-22T11:49:09Z</time>
      </trkpt>
      <trkpt lat="45.12672" lon="4.45799">
        <ele>903</ele>
        <time>2024-05-22T11:49:15Z</time>
      </trkpt>
      <trkpt lat="45.12669" lon="4.45802">
        <ele>902</ele>
        <time>2024-05-22T11:49:21Z</time>
      </trkpt>
      <trkpt lat="45.12666" lon="4.458">
        <ele>900</ele>
        <time>2024-05-22T11:49:30Z</time>
      </trkpt>
      <trkpt lat="45.12669" lon="4.45794">
        <ele>900</ele>
        <time>2024-05-22T11:49:34Z</time>
      </trkpt>
      <trkpt lat="45.12674" lon="4.45793">
        <ele>900</ele>
        <time>2024-05-22T11:49:43Z</time>
      </trkpt>
      <trkpt lat="45.12678" lon="4.45781">
        <ele>900</ele>
        <time>2024-05-22T11:49:50Z</time>
      </trkpt>
      <trkpt lat="45.12678" lon="4.45772">
        <ele>900</ele>
        <time>2024-05-22T11:49:53Z</time>
      </trkpt>
      <trkpt lat="45.12682" lon="4.4577">
        <ele>900</ele>
        <time>2024-05-22T11:49:57Z</time>
      </trkpt>
      <trkpt lat="45.12688" lon="4.4576">
        <ele>900</ele>
        <time>2024-05-22T11:50:04Z</time>
      </trkpt>
      <trkpt lat="45.12693" lon="4.45757">
        <ele>900</ele>
        <time>2024-05-22T11:50:08Z</time>
      </trkpt>
      <trkpt lat="45.12702" lon="4.45746">
        <ele>899</ele>
        <time>2024-05-22T11:50:19Z</time>
      </trkpt>
      <trkpt lat="45.12716" lon="4.45735">
        <ele>898</ele>
        <time>2024-05-22T11:50:31Z</time>
      </trkpt>
      <trkpt lat="45.12734" lon="4.45728">
        <ele>897</ele>
        <time>2024-05-22T11:50:45Z</time>
      </trkpt>
      <trkpt lat="45.12739" lon="4.45727">
        <ele>897</ele>
        <time>2024-05-22T11:50:49Z</time>
      </trkpt>
      <trkpt lat="45.12744" lon="4.45723">
        <ele>897</ele>
        <time>2024-05-22T11:50:53Z</time>
      </trkpt>
      <trkpt lat="45.12753" lon="4.45718">
        <ele>896</ele>
        <time>2024-05-22T11:51:01Z</time>
      </trkpt>
      <trkpt lat="45.12764" lon="4.45718">
        <ele>895</ele>
        <time>2024-05-22T11:51:11Z</time>
      </trkpt>
      <trkpt lat="45.12769" lon="4.45716">
        <ele>895</ele>
        <time>2024-05-22T11:51:14Z</time>
      </trkpt>
      <trkpt lat="45.12773" lon="4.45713">
        <ele>895</ele>
        <time>2024-05-22T11:51:17Z</time>
      </trkpt>
      <trkpt lat="45.12782" lon="4.45718">
        <ele>894</ele>
        <time>2024-05-22T11:51:24Z</time>
      </trkpt>
      <trkpt lat="45.12787" lon="4.45719">
        <ele>893</ele>
        <time>2024-05-22T11:51:30Z</time>
      </trkpt>
      <trkpt lat="45.12815" lon="4.45735">
        <ele>891</ele>
        <time>2024-05-22T11:51:53Z</time>
      </trkpt>
      <trkpt lat="45.12821" lon="4.4574">
        <ele>890</ele>
        <time>2024-05-22T11:52:02Z</time>
      </trkpt>
      <trkpt lat="45.1283" lon="4.45756">
        <ele>889</ele>
        <time>2024-05-22T11:52:13Z</time>
      </trkpt>
      <trkpt lat="45.12827" lon="4.4576">
        <ele>887</ele>
        <time>2024-05-22T11:52:38Z</time>
      </trkpt>
      <trkpt lat="45.12833" lon="4.45762">
        <ele>887</ele>
        <time>2024-05-22T11:52:50Z</time>
      </trkpt>
      <trkpt lat="45.12838" lon="4.45762">
        <ele>886</ele>
        <time>2024-05-22T11:52:54Z</time>
      </trkpt>
      <trkpt lat="45.12851" lon="4.4577">
        <ele>885</ele>
        <time>2024-05-22T11:53:06Z</time>
      </trkpt>
      <trkpt lat="45.12856" lon="4.45771">
        <ele>884</ele>
        <time>2024-05-22T11:53:10Z</time>
      </trkpt>
      <trkpt lat="45.12863" lon="4.45778">
        <ele>883</ele>
        <time>2024-05-22T11:53:17Z</time>
      </trkpt>
      <trkpt lat="45.12867" lon="4.4578">
        <ele>883</ele>
        <time>2024-05-22T11:53:20Z</time>
      </trkpt>
      <trkpt lat="45.12875" lon="4.45788">
        <ele>882</ele>
        <time>2024-05-22T11:53:27Z</time>
      </trkpt>
      <trkpt lat="45.12879" lon="4.4579">
        <ele>881</ele>
        <time>2024-05-22T11:53:30Z</time>
      </trkpt>
      <trkpt lat="45.12884" lon="4.4579">
        <ele>881</ele>
        <time>2024-05-22T11:53:33Z</time>
      </trkpt>
      <trkpt lat="45.12888" lon="4.45794">
        <ele>881</ele>
        <time>2024-05-22T11:53:37Z</time>
      </trkpt>
      <trkpt lat="45.12893" lon="4.45795">
        <ele>880</ele>
        <time>2024-05-22T11:53:41Z</time>
      </trkpt>
      <trkpt lat="45.12897" lon="4.45798">
        <ele>880</ele>
        <time>2024-05-22T11:53:45Z</time>
      </trkpt>
      <trkpt lat="45.129" lon="4.45805">
        <ele>879</ele>
        <time>2024-05-22T11:53:49Z</time>
      </trkpt>
      <trkpt lat="45.12908" lon="4.45814">
        <ele>878</ele>
        <time>2024-05-22T11:53:57Z</time>
      </trkpt>
      <trkpt lat="45.12913" lon="4.45826">
        <ele>878</ele>
        <time>2024-05-22T11:54:04Z</time>
      </trkpt>
      <trkpt lat="45.12913" lon="4.45833">
        <ele>877</ele>
        <time>2024-05-22T11:54:07Z</time>
      </trkpt>
      <trkpt lat="45.12917" lon="4.45837">
        <ele>877</ele>
        <time>2024-05-22T11:54:11Z</time>
      </trkpt>
      <trkpt lat="45.12919" lon="4.45844">
        <ele>876</ele>
        <time>2024-05-22T11:54:15Z</time>
      </trkpt>
      <trkpt lat="45.12924" lon="4.45846">
        <ele>876</ele>
        <time>2024-05-22T11:54:18Z</time>
      </trkpt>
      <trkpt lat="45.12929" lon="4.45856">
        <ele>875</ele>
        <time>2024-05-22T11:54:26Z</time>
      </trkpt>
      <trkpt lat="45.12933" lon="4.4586">
        <ele>874</ele>
        <time>2024-05-22T11:54:30Z</time>
      </trkpt>
      <trkpt lat="45.12935" lon="4.45866">
        <ele>874</ele>
        <time>2024-05-22T11:54:34Z</time>
      </trkpt>
      <trkpt lat="45.12941" lon="4.45876">
        <ele>873</ele>
        <time>2024-05-22T11:54:42Z</time>
      </trkpt>
      <trkpt lat="45.12943" lon="4.45882">
        <ele>873</ele>
        <time>2024-05-22T11:54:46Z</time>
      </trkpt>
      <trkpt lat="45.12951" lon="4.45888">
        <ele>871</ele>
        <time>2024-05-22T11:54:54Z</time>
      </trkpt>
      <trkpt lat="45.12954" lon="4.45892">
        <ele>871</ele>
        <time>2024-05-22T11:54:57Z</time>
      </trkpt>
      <trkpt lat="45.12965" lon="4.45907">
        <ele>870</ele>
        <time>2024-05-22T11:55:09Z</time>
      </trkpt>
      <trkpt lat="45.12966" lon="4.45914">
        <ele>870</ele>
        <time>2024-05-22T11:55:13Z</time>
      </trkpt>
      <trkpt lat="45.12969" lon="4.45919">
        <ele>870</ele>
        <time>2024-05-22T11:55:17Z</time>
      </trkpt>
      <trkpt lat="45.12975" lon="4.45928">
        <ele>869</ele>
        <time>2024-05-22T11:55:25Z</time>
      </trkpt>
      <trkpt lat="45.12976" lon="4.45936">
        <ele>869</ele>
        <time>2024-05-22T11:55:28Z</time>
      </trkpt>
      <trkpt lat="45.1298" lon="4.45938">
        <ele>869</ele>
        <time>2024-05-22T11:55:32Z</time>
      </trkpt>
      <trkpt lat="45.12982" lon="4.45944">
        <ele>869</ele>
        <time>2024-05-22T11:55:35Z</time>
      </trkpt>
      <trkpt lat="45.12986" lon="4.45948">
        <ele>868</ele>
        <time>2024-05-22T11:55:39Z</time>
      </trkpt>
      <trkpt lat="45.12996" lon="4.45971">
        <ele>867</ele>
        <time>2024-05-22T11:55:55Z</time>
      </trkpt>
      <trkpt lat="45.12997" lon="4.45987">
        <ele>866</ele>
        <time>2024-05-22T11:56:03Z</time>
      </trkpt>
      <trkpt lat="45.12996" lon="4.45994">
        <ele>866</ele>
        <time>2024-05-22T11:56:06Z</time>
      </trkpt>
      <trkpt lat="45.12997" lon="4.46003">
        <ele>866</ele>
        <time>2024-05-22T11:56:10Z</time>
      </trkpt>
      <trkpt lat="45.12992" lon="4.46022">
        <ele>865</ele>
        <time>2024-05-22T11:56:21Z</time>
      </trkpt>
      <trkpt lat="45.12992" lon="4.46028">
        <ele>865</ele>
        <time>2024-05-22T11:56:25Z</time>
      </trkpt>
      <trkpt lat="45.12995" lon="4.46035">
        <ele>864</ele>
        <time>2024-05-22T11:56:33Z</time>
      </trkpt>
      <trkpt lat="45.13001" lon="4.46036">
        <ele>863</ele>
        <time>2024-05-22T11:56:42Z</time>
      </trkpt>
      <trkpt lat="45.13005" lon="4.46034">
        <ele>863</ele>
        <time>2024-05-22T11:56:45Z</time>
      </trkpt>
      <trkpt lat="45.13013" lon="4.46035">
        <ele>862</ele>
        <time>2024-05-22T11:56:51Z</time>
      </trkpt>
      <trkpt lat="45.13018" lon="4.46033">
        <ele>862</ele>
        <time>2024-05-22T11:56:54Z</time>
      </trkpt>
      <trkpt lat="45.13023" lon="4.4603">
        <ele>861</ele>
        <time>2024-05-22T11:56:58Z</time>
      </trkpt>
      <trkpt lat="45.13027" lon="4.46031">
        <ele>861</ele>
        <time>2024-05-22T11:57:01Z</time>
      </trkpt>
      <trkpt lat="45.1303" lon="4.46035">
        <ele>860</ele>
        <time>2024-05-22T11:57:04Z</time>
      </trkpt>
      <trkpt lat="45.13048" lon="4.46046">
        <ele>859</ele>
        <time>2024-05-22T11:57:18Z</time>
      </trkpt>
      <trkpt lat="45.1305" lon="4.46052">
        <ele>858</ele>
        <time>2024-05-22T11:57:22Z</time>
      </trkpt>
      <trkpt lat="45.13054" lon="4.46058">
        <ele>858</ele>
        <time>2024-05-22T11:57:26Z</time>
      </trkpt>
      <trkpt lat="45.13056" lon="4.46063">
        <ele>857</ele>
        <time>2024-05-22T11:57:30Z</time>
      </trkpt>
      <trkpt lat="45.13063" lon="4.46073">
        <ele>857</ele>
        <time>2024-05-22T11:57:38Z</time>
      </trkpt>
      <trkpt lat="45.1308" lon="4.46088">
        <ele>855</ele>
        <time>2024-05-22T11:57:53Z</time>
      </trkpt>
      <trkpt lat="45.13083" lon="4.46092">
        <ele>855</ele>
        <time>2024-05-22T11:57:56Z</time>
      </trkpt>
      <trkpt lat="45.13087" lon="4.46097">
        <ele>855</ele>
        <time>2024-05-22T11:58:00Z</time>
      </trkpt>
      <trkpt lat="45.13091" lon="4.461">
        <ele>854</ele>
        <time>2024-05-22T11:58:04Z</time>
      </trkpt>
      <trkpt lat="45.13098" lon="4.46119">
        <ele>853</ele>
        <time>2024-05-22T11:58:16Z</time>
      </trkpt>
      <trkpt lat="45.13106" lon="4.46126">
        <ele>852</ele>
        <time>2024-05-22T11:58:23Z</time>
      </trkpt>
      <trkpt lat="45.13111" lon="4.46126">
        <ele>852</ele>
        <time>2024-05-22T11:58:27Z</time>
      </trkpt>
      <trkpt lat="45.13115" lon="4.46125">
        <ele>852</ele>
        <time>2024-05-22T11:58:30Z</time>
      </trkpt>
      <trkpt lat="45.13119" lon="4.4613">
        <ele>851</ele>
        <time>2024-05-22T11:58:34Z</time>
      </trkpt>
      <trkpt lat="45.13121" lon="4.46135">
        <ele>851</ele>
        <time>2024-05-22T11:58:38Z</time>
      </trkpt>
      <trkpt lat="45.13143" lon="4.46148">
        <ele>848</ele>
        <time>2024-05-22T11:59:00Z</time>
      </trkpt>
      <trkpt lat="45.13146" lon="4.46154">
        <ele>848</ele>
        <time>2024-05-22T11:59:03Z</time>
      </trkpt>
      <trkpt lat="45.13156" lon="4.46158">
        <ele>846</ele>
        <time>2024-05-22T11:59:13Z</time>
      </trkpt>
      <trkpt lat="45.13163" lon="4.4616">
        <ele>846</ele>
        <time>2024-05-22T11:59:17Z</time>
      </trkpt>
      <trkpt lat="45.13166" lon="4.46165">
        <ele>846</ele>
        <time>2024-05-22T11:59:21Z</time>
      </trkpt>
      <trkpt lat="45.13177" lon="4.46164">
        <ele>845</ele>
        <time>2024-05-22T11:59:27Z</time>
      </trkpt>
      <trkpt lat="45.13185" lon="4.46161">
        <ele>844</ele>
        <time>2024-05-22T11:59:36Z</time>
      </trkpt>
      <trkpt lat="45.13188" lon="4.46156">
        <ele>843</ele>
        <time>2024-05-22T11:59:44Z</time>
      </trkpt>
      <trkpt lat="45.13188" lon="4.46154">
        <ele>844</ele>
        <time>2024-05-22T12:00:08Z</time>
      </trkpt>
      <trkpt lat="45.13194" lon="4.46154">
        <ele>844</ele>
        <time>2024-05-22T12:01:20Z</time>
      </trkpt>
      <trkpt lat="45.13174" lon="4.4612">
        <ele>848</ele>
        <time>2024-05-22T12:06:12Z</time>
      </trkpt>
      <trkpt lat="45.13163" lon="4.46082">
        <ele>851</ele>
        <time>2024-05-22T12:06:41Z</time>
      </trkpt>
      <trkpt lat="45.13163" lon="4.46075">
        <ele>852</ele>
        <time>2024-05-22T12:06:46Z</time>
      </trkpt>
      <trkpt lat="45.13159" lon="4.46069">
        <ele>852</ele>
        <time>2024-05-22T12:06:51Z</time>
      </trkpt>
      <trkpt lat="45.13155" lon="4.46054">
        <ele>854</ele>
        <time>2024-05-22T12:07:03Z</time>
      </trkpt>
      <trkpt lat="45.13154" lon="4.46045">
        <ele>854</ele>
        <time>2024-05-22T12:07:09Z</time>
      </trkpt>
      <trkpt lat="45.13151" lon="4.46022">
        <ele>856</ele>
        <time>2024-05-22T12:07:26Z</time>
      </trkpt>
      <trkpt lat="45.13142" lon="4.46002">
        <ele>858</ele>
        <time>2024-05-22T12:07:43Z</time>
      </trkpt>
      <trkpt lat="45.13132" lon="4.4597">
        <ele>860</ele>
        <time>2024-05-22T12:08:07Z</time>
      </trkpt>
      <trkpt lat="45.13129" lon="4.45965">
        <ele>860</ele>
        <time>2024-05-22T12:08:11Z</time>
      </trkpt>
      <trkpt lat="45.13124" lon="4.45943">
        <ele>861</ele>
        <time>2024-05-22T12:08:28Z</time>
      </trkpt>
      <trkpt lat="45.13121" lon="4.45938">
        <ele>861</ele>
        <time>2024-05-22T12:08:32Z</time>
      </trkpt>
      <trkpt lat="45.1312" lon="4.45931">
        <ele>861</ele>
        <time>2024-05-22T12:08:36Z</time>
      </trkpt>
      <trkpt lat="45.13117" lon="4.45926">
        <ele>861</ele>
        <time>2024-05-22T12:08:40Z</time>
      </trkpt>
      <trkpt lat="45.13117" lon="4.45919">
        <ele>861</ele>
        <time>2024-05-22T12:08:44Z</time>
      </trkpt>
      <trkpt lat="45.13115" lon="4.45912">
        <ele>861</ele>
        <time>2024-05-22T12:08:49Z</time>
      </trkpt>
      <trkpt lat="45.13115" lon="4.45904">
        <ele>861</ele>
        <time>2024-05-22T12:08:53Z</time>
      </trkpt>
      <trkpt lat="45.13113" lon="4.45897">
        <ele>861</ele>
        <time>2024-05-22T12:08:57Z</time>
      </trkpt>
      <trkpt lat="45.13107" lon="4.45893">
        <ele>861</ele>
        <time>2024-05-22T12:09:00Z</time>
      </trkpt>
      <trkpt lat="45.13108" lon="4.45887">
        <ele>861</ele>
        <time>2024-05-22T12:09:04Z</time>
      </trkpt>
      <trkpt lat="45.1311" lon="4.4588">
        <ele>861</ele>
        <time>2024-05-22T12:09:09Z</time>
      </trkpt>
      <trkpt lat="45.13109" lon="4.4586">
        <ele>861</ele>
        <time>2024-05-22T12:09:21Z</time>
      </trkpt>
      <trkpt lat="45.13104" lon="4.4584">
        <ele>860</ele>
        <time>2024-05-22T12:09:33Z</time>
      </trkpt>
      <trkpt lat="45.13105" lon="4.45832">
        <ele>860</ele>
        <time>2024-05-22T12:09:38Z</time>
      </trkpt>
      <trkpt lat="45.13102" lon="4.4581">
        <ele>860</ele>
        <time>2024-05-22T12:09:53Z</time>
      </trkpt>
      <trkpt lat="45.13095" lon="4.45789">
        <ele>861</ele>
        <time>2024-05-22T12:10:07Z</time>
      </trkpt>
      <trkpt lat="45.13095" lon="4.45784">
        <ele>861</ele>
        <time>2024-05-22T12:10:11Z</time>
      </trkpt>
      <trkpt lat="45.13093" lon="4.45777">
        <ele>861</ele>
        <time>2024-05-22T12:10:15Z</time>
      </trkpt>
      <trkpt lat="45.13091" lon="4.45721">
        <ele>862</ele>
        <time>2024-05-22T12:10:48Z</time>
      </trkpt>
      <trkpt lat="45.13091" lon="4.45715">
        <ele>862</ele>
        <time>2024-05-22T12:10:51Z</time>
      </trkpt>
      <trkpt lat="45.13093" lon="4.45709">
        <ele>862</ele>
        <time>2024-05-22T12:10:55Z</time>
      </trkpt>
      <trkpt lat="45.13089" lon="4.45688">
        <ele>862</ele>
        <time>2024-05-22T12:11:07Z</time>
      </trkpt>
      <trkpt lat="45.13089" lon="4.45673">
        <ele>862</ele>
        <time>2024-05-22T12:11:18Z</time>
      </trkpt>
      <trkpt lat="45.13084" lon="4.4564">
        <ele>863</ele>
        <time>2024-05-22T12:11:40Z</time>
      </trkpt>
      <trkpt lat="45.13085" lon="4.45634">
        <ele>864</ele>
        <time>2024-05-22T12:11:45Z</time>
      </trkpt>
      <trkpt lat="45.13085" lon="4.45626">
        <ele>864</ele>
        <time>2024-05-22T12:11:49Z</time>
      </trkpt>
      <trkpt lat="45.13083" lon="4.45618">
        <ele>864</ele>
        <time>2024-05-22T12:11:54Z</time>
      </trkpt>
      <trkpt lat="45.13083" lon="4.45607">
        <ele>865</ele>
        <time>2024-05-22T12:12:02Z</time>
      </trkpt>
      <trkpt lat="45.13082" lon="4.45599">
        <ele>865</ele>
        <time>2024-05-22T12:12:07Z</time>
      </trkpt>
      <trkpt lat="45.13081" lon="4.4559">
        <ele>866</ele>
        <time>2024-05-22T12:12:14Z</time>
      </trkpt>
      <trkpt lat="45.13078" lon="4.45583">
        <ele>867</ele>
        <time>2024-05-22T12:12:18Z</time>
      </trkpt>
      <trkpt lat="45.13076" lon="4.45562">
        <ele>868</ele>
        <time>2024-05-22T12:12:33Z</time>
      </trkpt>
      <trkpt lat="45.13071" lon="4.45545">
        <ele>869</ele>
        <time>2024-05-22T12:12:44Z</time>
      </trkpt>
      <trkpt lat="45.1307" lon="4.45534">
        <ele>870</ele>
        <time>2024-05-22T12:12:52Z</time>
      </trkpt>
      <trkpt lat="45.13067" lon="4.45518">
        <ele>871</ele>
        <time>2024-05-22T12:13:03Z</time>
      </trkpt>
      <trkpt lat="45.13064" lon="4.4551">
        <ele>871</ele>
        <time>2024-05-22T12:13:10Z</time>
      </trkpt>
      <trkpt lat="45.1306" lon="4.45497">
        <ele>872</ele>
        <time>2024-05-22T12:13:19Z</time>
      </trkpt>
      <trkpt lat="45.13056" lon="4.45488">
        <ele>873</ele>
        <time>2024-05-22T12:13:27Z</time>
      </trkpt>
      <trkpt lat="45.13047" lon="4.45459">
        <ele>875</ele>
        <time>2024-05-22T12:13:49Z</time>
      </trkpt>
      <trkpt lat="45.13039" lon="4.45443">
        <ele>877</ele>
        <time>2024-05-22T12:14:03Z</time>
      </trkpt>
      <trkpt lat="45.13036" lon="4.45438">
        <ele>877</ele>
        <time>2024-05-22T12:14:07Z</time>
      </trkpt>
      <trkpt lat="45.13033" lon="4.45431">
        <ele>878</ele>
        <time>2024-05-22T12:14:13Z</time>
      </trkpt>
      <trkpt lat="45.13027" lon="4.45425">
        <ele>878</ele>
        <time>2024-05-22T12:14:20Z</time>
      </trkpt>
      <trkpt lat="45.13023" lon="4.4542">
        <ele>879</ele>
        <time>2024-05-22T12:14:25Z</time>
      </trkpt>
      <trkpt lat="45.1302" lon="4.45417">
        <ele>879</ele>
        <time>2024-05-22T12:14:29Z</time>
      </trkpt>
      <trkpt lat="45.13016" lon="4.45405">
        <ele>880</ele>
        <time>2024-05-22T12:14:43Z</time>
      </trkpt>
      <trkpt lat="45.13014" lon="4.45393">
        <ele>880</ele>
        <time>2024-05-22T12:14:52Z</time>
      </trkpt>
      <trkpt lat="45.13019" lon="4.45381">
        <ele>881</ele>
        <time>2024-05-22T12:15:02Z</time>
      </trkpt>
      <trkpt lat="45.1302" lon="4.45375">
        <ele>881</ele>
        <time>2024-05-22T12:15:07Z</time>
      </trkpt>
      <trkpt lat="45.13034" lon="4.45352">
        <ele>882</ele>
        <time>2024-05-22T12:15:26Z</time>
      </trkpt>
      <trkpt lat="45.13045" lon="4.4534">
        <ele>883</ele>
        <time>2024-05-22T12:15:38Z</time>
      </trkpt>
      <trkpt lat="45.1305" lon="4.4533">
        <ele>883</ele>
        <time>2024-05-22T12:15:46Z</time>
      </trkpt>
      <trkpt lat="45.13062" lon="4.45318">
        <ele>884</ele>
        <time>2024-05-22T12:15:58Z</time>
      </trkpt>
      <trkpt lat="45.13065" lon="4.45314">
        <ele>884</ele>
        <time>2024-05-22T12:16:02Z</time>
      </trkpt>
      <trkpt lat="45.13092" lon="4.45291">
        <ele>885</ele>
        <time>2024-05-22T12:16:30Z</time>
      </trkpt>
      <trkpt lat="45.13094" lon="4.45286">
        <ele>885</ele>
        <time>2024-05-22T12:16:38Z</time>
      </trkpt>
      <trkpt lat="45.13097" lon="4.45282">
        <ele>885</ele>
        <time>2024-05-22T12:16:44Z</time>
      </trkpt>
      <trkpt lat="45.13105" lon="4.45285">
        <ele>885</ele>
        <time>2024-05-22T12:16:55Z</time>
      </trkpt>
      <trkpt lat="45.13102" lon="4.45278">
        <ele>885</ele>
        <time>2024-05-22T12:16:58Z</time>
      </trkpt>
      <trkpt lat="45.13103" lon="4.45269">
        <ele>885</ele>
        <time>2024-05-22T12:17:06Z</time>
      </trkpt>
      <trkpt lat="45.131" lon="4.45258">
        <ele>886</ele>
        <time>2024-05-22T12:17:18Z</time>
      </trkpt>
      <trkpt lat="45.13095" lon="4.45248">
        <ele>887</ele>
        <time>2024-05-22T12:17:27Z</time>
      </trkpt>
      <trkpt lat="45.1309" lon="4.45245">
        <ele>887</ele>
        <time>2024-05-22T12:17:30Z</time>
      </trkpt>
      <trkpt lat="45.13072" lon="4.45222">
        <ele>889</ele>
        <time>2024-05-22T12:17:56Z</time>
      </trkpt>
      <trkpt lat="45.1305" lon="4.45201">
        <ele>891</ele>
        <time>2024-05-22T12:18:21Z</time>
      </trkpt>
      <trkpt lat="45.13037" lon="4.45184">
        <ele>892</ele>
        <time>2024-05-22T12:18:38Z</time>
      </trkpt>
      <trkpt lat="45.13032" lon="4.4518">
        <ele>893</ele>
        <time>2024-05-22T12:18:43Z</time>
      </trkpt>
      <trkpt lat="45.13028" lon="4.45172">
        <ele>893</ele>
        <time>2024-05-22T12:18:51Z</time>
      </trkpt>
      <trkpt lat="45.13026" lon="4.45167">
        <ele>893</ele>
        <time>2024-05-22T12:18:55Z</time>
      </trkpt>
      <trkpt lat="45.13021" lon="4.45162">
        <ele>893</ele>
        <time>2024-05-22T12:19:04Z</time>
      </trkpt>
      <trkpt lat="45.13016" lon="4.45151">
        <ele>893</ele>
        <time>2024-05-22T12:19:12Z</time>
      </trkpt>
      <trkpt lat="45.13006" lon="4.45137">
        <ele>891</ele>
        <time>2024-05-22T12:19:23Z</time>
      </trkpt>
      <trkpt lat="45.13003" lon="4.45131">
        <ele>891</ele>
        <time>2024-05-22T12:19:27Z</time>
      </trkpt>
      <trkpt lat="45.13002" lon="4.45124">
        <ele>890</ele>
        <time>2024-05-22T12:19:31Z</time>
      </trkpt>
      <trkpt lat="45.12999" lon="4.45085">
        <ele>889</ele>
        <time>2024-05-22T12:19:57Z</time>
      </trkpt>
      <trkpt lat="45.13" lon="4.45075">
        <ele>890</ele>
        <time>2024-05-22T12:20:55Z</time>
      </trkpt>
      <trkpt lat="45.13003" lon="4.45068">
        <ele>890</ele>
        <time>2024-05-22T12:21:03Z</time>
      </trkpt>
      <trkpt lat="45.13015" lon="4.45025">
        <ele>893</ele>
        <time>2024-05-22T12:27:00Z</time>
      </trkpt>
      <trkpt lat="45.13015" lon="4.45024">
        <ele>893</ele>
        <time>2024-05-22T12:27:01Z</time>
      </trkpt>
      <trkpt lat="45.13017" lon="4.45018">
        <ele>894</ele>
        <time>2024-05-22T12:27:06Z</time>
      </trkpt>
      <trkpt lat="45.13019" lon="4.45004">
        <ele>895</ele>
        <time>2024-05-22T12:27:15Z</time>
      </trkpt>
      <trkpt lat="45.13023" lon="4.44992">
        <ele>896</ele>
        <time>2024-05-22T12:27:25Z</time>
      </trkpt>
      <trkpt lat="45.13026" lon="4.4496">
        <ele>898</ele>
        <time>2024-05-22T12:27:49Z</time>
      </trkpt>
      <trkpt lat="45.13028" lon="4.44953">
        <ele>898</ele>
        <time>2024-05-22T12:27:53Z</time>
      </trkpt>
      <trkpt lat="45.1303" lon="4.44947">
        <ele>899</ele>
        <time>2024-05-22T12:27:58Z</time>
      </trkpt>
      <trkpt lat="45.1304" lon="4.44914">
        <ele>901</ele>
        <time>2024-05-22T12:28:25Z</time>
      </trkpt>
      <trkpt lat="45.13046" lon="4.44901">
        <ele>902</ele>
        <time>2024-05-22T12:28:36Z</time>
      </trkpt>
      <trkpt lat="45.13049" lon="4.44894">
        <ele>903</ele>
        <time>2024-05-22T12:28:43Z</time>
      </trkpt>
      <trkpt lat="45.1307" lon="4.44858">
        <ele>906</ele>
        <time>2024-05-22T12:29:16Z</time>
      </trkpt>
      <trkpt lat="45.13073" lon="4.44853">
        <ele>907</ele>
        <time>2024-05-22T12:29:21Z</time>
      </trkpt>
      <trkpt lat="45.13075" lon="4.44847">
        <ele>907</ele>
        <time>2024-05-22T12:29:25Z</time>
      </trkpt>
      <trkpt lat="45.1308" lon="4.44843">
        <ele>907</ele>
        <time>2024-05-22T12:29:30Z</time>
      </trkpt>
      <trkpt lat="45.13084" lon="4.44837">
        <ele>908</ele>
        <time>2024-05-22T12:29:34Z</time>
      </trkpt>
      <trkpt lat="45.13088" lon="4.44833">
        <ele>908</ele>
        <time>2024-05-22T12:29:41Z</time>
      </trkpt>
      <trkpt lat="45.13098" lon="4.4482">
        <ele>910</ele>
        <time>2024-05-22T12:29:54Z</time>
      </trkpt>
      <trkpt lat="45.1312" lon="4.44807">
        <ele>912</ele>
        <time>2024-05-22T12:30:16Z</time>
      </trkpt>
      <trkpt lat="45.13124" lon="4.44807">
        <ele>912</ele>
        <time>2024-05-22T12:30:20Z</time>
      </trkpt>
      <trkpt lat="45.13132" lon="4.44802">
        <ele>913</ele>
        <time>2024-05-22T12:30:28Z</time>
      </trkpt>
      <trkpt lat="45.13135" lon="4.44797">
        <ele>914</ele>
        <time>2024-05-22T12:30:32Z</time>
      </trkpt>
      <trkpt lat="45.13164" lon="4.44777">
        <ele>917</ele>
        <time>2024-05-22T12:31:04Z</time>
      </trkpt>
      <trkpt lat="45.13173" lon="4.44766">
        <ele>918</ele>
        <time>2024-05-22T12:31:15Z</time>
      </trkpt>
      <trkpt lat="45.13178" lon="4.44767">
        <ele>919</ele>
        <time>2024-05-22T12:31:19Z</time>
      </trkpt>
      <trkpt lat="45.13187" lon="4.44761">
        <ele>920</ele>
        <time>2024-05-22T12:31:27Z</time>
      </trkpt>
      <trkpt lat="45.13194" lon="4.44759">
        <ele>920</ele>
        <time>2024-05-22T12:31:33Z</time>
      </trkpt>
      <trkpt lat="45.13212" lon="4.44744">
        <ele>923</ele>
        <time>2024-05-22T12:31:56Z</time>
      </trkpt>
      <trkpt lat="45.13228" lon="4.44738">
        <ele>924</ele>
        <time>2024-05-22T12:32:12Z</time>
      </trkpt>
      <trkpt lat="45.13232" lon="4.44733">
        <ele>925</ele>
        <time>2024-05-22T12:32:17Z</time>
      </trkpt>
      <trkpt lat="45.13241" lon="4.44731">
        <ele>926</ele>
        <time>2024-05-22T12:32:25Z</time>
      </trkpt>
      <trkpt lat="45.13246" lon="4.44728">
        <ele>926</ele>
        <time>2024-05-22T12:32:30Z</time>
      </trkpt>
      <trkpt lat="45.13251" lon="4.44727">
        <ele>927</ele>
        <time>2024-05-22T12:32:35Z</time>
      </trkpt>
      <trkpt lat="45.13259" lon="4.44722">
        <ele>928</ele>
        <time>2024-05-22T12:32:43Z</time>
      </trkpt>
      <trkpt lat="45.13263" lon="4.44722">
        <ele>928</ele>
        <time>2024-05-22T12:32:47Z</time>
      </trkpt>
      <trkpt lat="45.13269" lon="4.44717">
        <ele>929</ele>
        <time>2024-05-22T12:32:54Z</time>
      </trkpt>
      <trkpt lat="45.13284" lon="4.44711">
        <ele>931</ele>
        <time>2024-05-22T12:33:09Z</time>
      </trkpt>
      <trkpt lat="45.13288" lon="4.4471">
        <ele>931</ele>
        <time>2024-05-22T12:33:13Z</time>
      </trkpt>
      <trkpt lat="45.13297" lon="4.44706">
        <ele>932</ele>
        <time>2024-05-22T12:33:23Z</time>
      </trkpt>
      <trkpt lat="45.13318" lon="4.44702">
        <ele>934</ele>
        <time>2024-05-22T12:33:43Z</time>
      </trkpt>
      <trkpt lat="45.13322" lon="4.44704">
        <ele>935</ele>
        <time>2024-05-22T12:33:47Z</time>
      </trkpt>
      <trkpt lat="45.13341" lon="4.44704">
        <ele>937</ele>
        <time>2024-05-22T12:34:05Z</time>
      </trkpt>
      <trkpt lat="45.13345" lon="4.44702">
        <ele>938</ele>
        <time>2024-05-22T12:34:09Z</time>
      </trkpt>
      <trkpt lat="45.13349" lon="4.44704">
        <ele>938</ele>
        <time>2024-05-22T12:34:13Z</time>
      </trkpt>
      <trkpt lat="45.13359" lon="4.44703">
        <ele>939</ele>
        <time>2024-05-22T12:34:23Z</time>
      </trkpt>
      <trkpt lat="45.13367" lon="4.44706">
        <ele>940</ele>
        <time>2024-05-22T12:34:31Z</time>
      </trkpt>
      <trkpt lat="45.13372" lon="4.44705">
        <ele>941</ele>
        <time>2024-05-22T12:34:35Z</time>
      </trkpt>
      <trkpt lat="45.13376" lon="4.44707">
        <ele>941</ele>
        <time>2024-05-22T12:34:39Z</time>
      </trkpt>
      <trkpt lat="45.1338" lon="4.44704">
        <ele>941</ele>
        <time>2024-05-22T12:34:44Z</time>
      </trkpt>
      <trkpt lat="45.13388" lon="4.44705">
        <ele>942</ele>
        <time>2024-05-22T12:34:51Z</time>
      </trkpt>
      <trkpt lat="45.13391" lon="4.44707">
        <ele>943</ele>
        <time>2024-05-22T12:34:55Z</time>
      </trkpt>
      <trkpt lat="45.13422" lon="4.44718">
        <ele>946</ele>
        <time>2024-05-22T12:35:26Z</time>
      </trkpt>
      <trkpt lat="45.13432" lon="4.44724">
        <ele>947</ele>
        <time>2024-05-22T12:35:34Z</time>
      </trkpt>
      <trkpt lat="45.13456" lon="4.44728">
        <ele>950</ele>
        <time>2024-05-22T12:35:57Z</time>
      </trkpt>
      <trkpt lat="45.13462" lon="4.44732">
        <ele>951</ele>
        <time>2024-05-22T12:36:03Z</time>
      </trkpt>
      <trkpt lat="45.13467" lon="4.44737">
        <ele>951</ele>
        <time>2024-05-22T12:36:08Z</time>
      </trkpt>
      <trkpt lat="45.13494" lon="4.44747">
        <ele>955</ele>
        <time>2024-05-22T12:36:36Z</time>
      </trkpt>
      <trkpt lat="45.13499" lon="4.44754">
        <ele>956</ele>
        <time>2024-05-22T12:36:43Z</time>
      </trkpt>
      <trkpt lat="45.13507" lon="4.44759">
        <ele>957</ele>
        <time>2024-05-22T12:36:51Z</time>
      </trkpt>
      <trkpt lat="45.13512" lon="4.4476">
        <ele>957</ele>
        <time>2024-05-22T12:36:55Z</time>
      </trkpt>
      <trkpt lat="45.13536" lon="4.44775">
        <ele>960</ele>
        <time>2024-05-22T12:37:19Z</time>
      </trkpt>
      <trkpt lat="45.13539" lon="4.44779">
        <ele>961</ele>
        <time>2024-05-22T12:37:24Z</time>
      </trkpt>
      <trkpt lat="45.1357" lon="4.44803">
        <ele>964</ele>
        <time>2024-05-22T12:37:58Z</time>
      </trkpt>
      <trkpt lat="45.13575" lon="4.44803">
        <ele>965</ele>
        <time>2024-05-22T12:38:03Z</time>
      </trkpt>
      <trkpt lat="45.1358" lon="4.44806">
        <ele>965</ele>
        <time>2024-05-22T12:38:08Z</time>
      </trkpt>
      <trkpt lat="45.13592" lon="4.44817">
        <ele>967</ele>
        <time>2024-05-22T12:38:22Z</time>
      </trkpt>
      <trkpt lat="45.13619" lon="4.44838">
        <ele>969</ele>
        <time>2024-05-22T12:38:52Z</time>
      </trkpt>
      <trkpt lat="45.13626" lon="4.44841">
        <ele>970</ele>
        <time>2024-05-22T12:38:59Z</time>
      </trkpt>
      <trkpt lat="45.13656" lon="4.44866">
        <ele>973</ele>
        <time>2024-05-22T12:39:31Z</time>
      </trkpt>
      <trkpt lat="45.13686" lon="4.44889">
        <ele>976</ele>
        <time>2024-05-22T12:40:03Z</time>
      </trkpt>
      <trkpt lat="45.13704" lon="4.44903">
        <ele>977</ele>
        <time>2024-05-22T12:40:22Z</time>
      </trkpt>
      <trkpt lat="45.13738" lon="4.4491">
        <ele>980</ele>
        <time>2024-05-22T12:40:55Z</time>
      </trkpt>
      <trkpt lat="45.1375" lon="4.44913">
        <ele>981</ele>
        <time>2024-05-22T12:41:06Z</time>
      </trkpt>
      <trkpt lat="45.13759" lon="4.44917">
        <ele>982</ele>
        <time>2024-05-22T12:41:15Z</time>
      </trkpt>
      <trkpt lat="45.1378" lon="4.44921">
        <ele>984</ele>
        <time>2024-05-22T12:41:36Z</time>
      </trkpt>
      <trkpt lat="45.13785" lon="4.44923">
        <ele>985</ele>
        <time>2024-05-22T12:41:40Z</time>
      </trkpt>
      <trkpt lat="45.13813" lon="4.44936">
        <ele>988</ele>
        <time>2024-05-22T12:42:12Z</time>
      </trkpt>
      <trkpt lat="45.13821" lon="4.44942">
        <ele>990</ele>
        <time>2024-05-22T12:42:22Z</time>
      </trkpt>
      <trkpt lat="45.13834" lon="4.44945">
        <ele>991</ele>
        <time>2024-05-22T12:42:35Z</time>
      </trkpt>
      <trkpt lat="45.13839" lon="4.44943">
        <ele>992</ele>
        <time>2024-05-22T12:42:40Z</time>
      </trkpt>
      <trkpt lat="45.13843" lon="4.44934">
        <ele>993</ele>
        <time>2024-05-22T12:42:48Z</time>
      </trkpt>
      <trkpt lat="45.13844" lon="4.44917">
        <ele>994</ele>
        <time>2024-05-22T12:43:01Z</time>
      </trkpt>
      <trkpt lat="45.13845" lon="4.4491">
        <ele>995</ele>
        <time>2024-05-22T12:43:06Z</time>
      </trkpt>
      <trkpt lat="45.13848" lon="4.44903">
        <ele>996</ele>
        <time>2024-05-22T12:43:12Z</time>
      </trkpt>
      <trkpt lat="45.13852" lon="4.44901">
        <ele>996</ele>
        <time>2024-05-22T12:43:17Z</time>
      </trkpt>
      <trkpt lat="45.13857" lon="4.44903">
        <ele>997</ele>
        <time>2024-05-22T12:43:23Z</time>
      </trkpt>
      <trkpt lat="45.13863" lon="4.44911">
        <ele>998</ele>
        <time>2024-05-22T12:43:37Z</time>
      </trkpt>
      <trkpt lat="45.13859" lon="4.44912">
        <ele>998</ele>
        <time>2024-05-22T12:43:57Z</time>
      </trkpt>
      <trkpt lat="45.13866" lon="4.44953">
        <ele>1000</ele>
        <time>2024-05-22T12:46:12Z</time>
      </trkpt>
      <trkpt lat="45.13866" lon="4.44955">
        <ele>1000</ele>
        <time>2024-05-22T12:46:13Z</time>
      </trkpt>
      <trkpt lat="45.13868" lon="4.44962">
        <ele>1001</ele>
        <time>2024-05-22T12:46:19Z</time>
      </trkpt>
      <trkpt lat="45.13865" lon="4.44981">
        <ele>1002</ele>
        <time>2024-05-22T12:46:47Z</time>
      </trkpt>
      <trkpt lat="45.13862" lon="4.44986">
        <ele>1002</ele>
        <time>2024-05-22T12:46:51Z</time>
      </trkpt>
      <trkpt lat="45.13859" lon="4.44989">
        <ele>1002</ele>
        <time>2024-05-22T12:46:55Z</time>
      </trkpt>
      <trkpt lat="45.13854" lon="4.4499">
        <ele>1003</ele>
        <time>2024-05-22T12:46:59Z</time>
      </trkpt>
      <trkpt lat="45.13845" lon="4.44989">
        <ele>1004</ele>
        <time>2024-05-22T12:47:08Z</time>
      </trkpt>
      <trkpt lat="45.13832" lon="4.44985">
        <ele>1005</ele>
        <time>2024-05-22T12:47:21Z</time>
      </trkpt>
      <trkpt lat="45.13822" lon="4.44984">
        <ele>1006</ele>
        <time>2024-05-22T12:47:31Z</time>
      </trkpt>
      <trkpt lat="45.13809" lon="4.44986">
        <ele>1008</ele>
        <time>2024-05-22T12:47:44Z</time>
      </trkpt>
      <trkpt lat="45.13799" lon="4.44987">
        <ele>1008</ele>
        <time>2024-05-22T12:47:54Z</time>
      </trkpt>
      <trkpt lat="45.13767" lon="4.44997">
        <ele>1011</ele>
        <time>2024-05-22T12:48:29Z</time>
      </trkpt>
      <trkpt lat="45.13739" lon="4.45008">
        <ele>1013</ele>
        <time>2024-05-22T12:48:52Z</time>
      </trkpt>
      <trkpt lat="45.13725" lon="4.45007">
        <ele>1014</ele>
        <time>2024-05-22T12:49:06Z</time>
      </trkpt>
      <trkpt lat="45.1372" lon="4.45011">
        <ele>1015</ele>
        <time>2024-05-22T12:49:12Z</time>
      </trkpt>
      <trkpt lat="45.13715" lon="4.45011">
        <ele>1015</ele>
        <time>2024-05-22T12:49:16Z</time>
      </trkpt>
      <trkpt lat="45.13711" lon="4.45013">
        <ele>1015</ele>
        <time>2024-05-22T12:49:20Z</time>
      </trkpt>
      <trkpt lat="45.13688" lon="4.45016">
        <ele>1018</ele>
        <time>2024-05-22T12:49:43Z</time>
      </trkpt>
      <trkpt lat="45.13676" lon="4.45023">
        <ele>1019</ele>
        <time>2024-05-22T12:50:02Z</time>
      </trkpt>
      <trkpt lat="45.13682" lon="4.45018">
        <ele>1020</ele>
        <time>2024-05-22T12:50:15Z</time>
      </trkpt>
      <trkpt lat="45.13685" lon="4.45012">
        <ele>1020</ele>
        <time>2024-05-22T12:50:36Z</time>
      </trkpt>
      <trkpt lat="45.13698" lon="4.45001">
        <ele>1019</ele>
        <time>2024-05-22T12:50:48Z</time>
      </trkpt>
      <trkpt lat="45.13706" lon="4.44999">
        <ele>1018</ele>
        <time>2024-05-22T12:50:57Z</time>
      </trkpt>
      <trkpt lat="45.13715" lon="4.44999">
        <ele>1018</ele>
        <time>2024-05-22T12:52:09Z</time>
      </trkpt>
      <trkpt lat="45.1373" lon="4.44997">
        <ele>1017</ele>
        <time>2024-05-22T12:52:24Z</time>
      </trkpt>
      <trkpt lat="45.13734" lon="4.44998">
        <ele>1017</ele>
        <time>2024-05-22T12:52:28Z</time>
      </trkpt>
      <trkpt lat="45.13739" lon="4.44997">
        <ele>1016</ele>
        <time>2024-05-22T12:52:32Z</time>
      </trkpt>
      <trkpt lat="45.13744" lon="4.44996">
        <ele>1016</ele>
        <time>2024-05-22T12:52:36Z</time>
      </trkpt>
      <trkpt lat="45.13768" lon="4.44994">
        <ele>1014</ele>
        <time>2024-05-22T12:52:55Z</time>
      </trkpt>
      <trkpt lat="45.13788" lon="4.44989">
        <ele>1012</ele>
        <time>2024-05-22T12:53:11Z</time>
      </trkpt>
      <trkpt lat="45.13793" lon="4.44988">
        <ele>1012</ele>
        <time>2024-05-22T12:53:15Z</time>
      </trkpt>
      <trkpt lat="45.13803" lon="4.44986">
        <ele>1011</ele>
        <time>2024-05-22T12:53:23Z</time>
      </trkpt>
      <trkpt lat="45.13808" lon="4.44983">
        <ele>1010</ele>
        <time>2024-05-22T12:53:27Z</time>
      </trkpt>
      <trkpt lat="45.13815" lon="4.44984">
        <ele>1009</ele>
        <time>2024-05-22T12:54:23Z</time>
      </trkpt>
      <trkpt lat="45.13832" lon="4.44984">
        <ele>1008</ele>
        <time>2024-05-22T12:54:41Z</time>
      </trkpt>
      <trkpt lat="45.1385" lon="4.44988">
        <ele>1006</ele>
        <time>2024-05-22T12:55:00Z</time>
      </trkpt>
      <trkpt lat="45.13855" lon="4.44986">
        <ele>1005</ele>
        <time>2024-05-22T12:55:04Z</time>
      </trkpt>
      <trkpt lat="45.1386" lon="4.44987">
        <ele>1005</ele>
        <time>2024-05-22T12:55:08Z</time>
      </trkpt>
      <trkpt lat="45.13865" lon="4.4498">
        <ele>1004</ele>
        <time>2024-05-22T12:55:16Z</time>
      </trkpt>
      <trkpt lat="45.13866" lon="4.44967">
        <ele>1003</ele>
        <time>2024-05-22T12:55:24Z</time>
      </trkpt>
      <trkpt lat="45.13866" lon="4.4496">
        <ele>1003</ele>
        <time>2024-05-22T12:55:28Z</time>
      </trkpt>
      <trkpt lat="45.13864" lon="4.44953">
        <ele>1002</ele>
        <time>2024-05-22T12:55:33Z</time>
      </trkpt>
      <trkpt lat="45.13863" lon="4.44944">
        <ele>1001</ele>
        <time>2024-05-22T12:55:41Z</time>
      </trkpt>
      <trkpt lat="45.13861" lon="4.44938">
        <ele>1001</ele>
        <time>2024-05-22T12:55:45Z</time>
      </trkpt>
      <trkpt lat="45.13861" lon="4.44912">
        <ele>999</ele>
        <time>2024-05-22T12:56:02Z</time>
      </trkpt>
      <trkpt lat="45.13859" lon="4.44906">
        <ele>999</ele>
        <time>2024-05-22T12:56:06Z</time>
      </trkpt>
      <trkpt lat="45.13857" lon="4.44901">
        <ele>999</ele>
        <time>2024-05-22T12:56:10Z</time>
      </trkpt>
      <trkpt lat="45.13846" lon="4.44903">
        <ele>998</ele>
        <time>2024-05-22T12:56:21Z</time>
      </trkpt>
      <trkpt lat="45.13845" lon="4.44889">
        <ele>998</ele>
        <time>2024-05-22T12:56:28Z</time>
      </trkpt>
      <trkpt lat="45.13844" lon="4.44882">
        <ele>998</ele>
        <time>2024-05-22T12:56:33Z</time>
      </trkpt>
      <trkpt lat="45.13845" lon="4.44875">
        <ele>998</ele>
        <time>2024-05-22T12:56:37Z</time>
      </trkpt>
      <trkpt lat="45.13844" lon="4.44869">
        <ele>998</ele>
        <time>2024-05-22T12:56:41Z</time>
      </trkpt>
      <trkpt lat="45.13841" lon="4.44864">
        <ele>998</ele>
        <time>2024-05-22T12:56:45Z</time>
      </trkpt>
      <trkpt lat="45.1384" lon="4.44849">
        <ele>999</ele>
        <time>2024-05-22T12:56:53Z</time>
      </trkpt>
      <trkpt lat="45.13841" lon="4.44843">
        <ele>999</ele>
        <time>2024-05-22T12:56:57Z</time>
      </trkpt>
      <trkpt lat="45.13841" lon="4.44835">
        <ele>1000</ele>
        <time>2024-05-22T12:57:09Z</time>
      </trkpt>
      <trkpt lat="45.13841" lon="4.44826">
        <ele>1001</ele>
        <time>2024-05-22T12:57:21Z</time>
      </trkpt>
      <trkpt lat="45.13836" lon="4.44823">
        <ele>1002</ele>
        <time>2024-05-22T12:57:28Z</time>
      </trkpt>
      <trkpt lat="45.1384" lon="4.44823">
        <ele>1002</ele>
        <time>2024-05-22T12:58:11Z</time>
      </trkpt>
      <trkpt lat="45.13847" lon="4.44825">
        <ele>1002</ele>
        <time>2024-05-22T12:58:32Z</time>
      </trkpt>
      <trkpt lat="45.13851" lon="4.44831">
        <ele>1002</ele>
        <time>2024-05-22T12:58:46Z</time>
      </trkpt>
      <trkpt lat="45.13856" lon="4.44839">
        <ele>1003</ele>
        <time>2024-05-22T12:58:54Z</time>
      </trkpt>
      <trkpt lat="45.1386" lon="4.44843">
        <ele>1003</ele>
        <time>2024-05-22T12:59:01Z</time>
      </trkpt>
      <trkpt lat="45.13866" lon="4.44853">
        <ele>1004</ele>
        <time>2024-05-22T12:59:23Z</time>
      </trkpt>
      <trkpt lat="45.1387" lon="4.44855">
        <ele>1005</ele>
        <time>2024-05-22T12:59:43Z</time>
      </trkpt>
      <trkpt lat="45.13852" lon="4.44807">
        <ele>1011</ele>
        <time>2024-05-22T13:01:35Z</time>
      </trkpt>
      <trkpt lat="45.13852" lon="4.44807">
        <ele>1011</ele>
        <time>2024-05-22T13:01:36Z</time>
      </trkpt>
      <trkpt lat="45.13852" lon="4.448">
        <ele>1012</ele>
        <time>2024-05-22T13:01:43Z</time>
      </trkpt>
      <trkpt lat="45.13847" lon="4.44791">
        <ele>1013</ele>
        <time>2024-05-22T13:01:53Z</time>
      </trkpt>
      <trkpt lat="45.13842" lon="4.44785">
        <ele>1015</ele>
        <time>2024-05-22T13:02:01Z</time>
      </trkpt>
      <trkpt lat="45.1384" lon="4.44779">
        <ele>1015</ele>
        <time>2024-05-22T13:02:06Z</time>
      </trkpt>
      <trkpt lat="45.13839" lon="4.44773">
        <ele>1016</ele>
        <time>2024-05-22T13:02:11Z</time>
      </trkpt>
      <trkpt lat="45.13835" lon="4.44768">
        <ele>1017</ele>
        <time>2024-05-22T13:02:16Z</time>
      </trkpt>
      <trkpt lat="45.13834" lon="4.44758">
        <ele>1018</ele>
        <time>2024-05-22T13:02:24Z</time>
      </trkpt>
      <trkpt lat="45.13835" lon="4.44751">
        <ele>1019</ele>
        <time>2024-05-22T13:02:31Z</time>
      </trkpt>
      <trkpt lat="45.13838" lon="4.44739">
        <ele>1020</ele>
        <time>2024-05-22T13:02:41Z</time>
      </trkpt>
      <trkpt lat="45.13841" lon="4.44736">
        <ele>1021</ele>
        <time>2024-05-22T13:02:46Z</time>
      </trkpt>
      <trkpt lat="45.13843" lon="4.44723">
        <ele>1022</ele>
        <time>2024-05-22T13:02:57Z</time>
      </trkpt>
      <trkpt lat="45.13864" lon="4.44697">
        <ele>1028</ele>
        <time>2024-05-22T13:03:31Z</time>
      </trkpt>
      <trkpt lat="45.13868" lon="4.44694">
        <ele>1029</ele>
        <time>2024-05-22T13:03:37Z</time>
      </trkpt>
      <trkpt lat="45.13871" lon="4.44688">
        <ele>1030</ele>
        <time>2024-05-22T13:03:46Z</time>
      </trkpt>
      <trkpt lat="45.13878" lon="4.44679">
        <ele>1032</ele>
        <time>2024-05-22T13:03:58Z</time>
      </trkpt>
      <trkpt lat="45.13884" lon="4.44677">
        <ele>1033</ele>
        <time>2024-05-22T13:04:10Z</time>
      </trkpt>
      <trkpt lat="45.13888" lon="4.4467">
        <ele>1034</ele>
        <time>2024-05-22T13:04:21Z</time>
      </trkpt>
      <trkpt lat="45.13891" lon="4.44663">
        <ele>1036</ele>
        <time>2024-05-22T13:04:28Z</time>
      </trkpt>
      <trkpt lat="45.13908" lon="4.44649">
        <ele>1041</ele>
        <time>2024-05-22T13:04:52Z</time>
      </trkpt>
      <trkpt lat="45.13911" lon="4.44642">
        <ele>1042</ele>
        <time>2024-05-22T13:05:02Z</time>
      </trkpt>
      <trkpt lat="45.13922" lon="4.44638">
        <ele>1043</ele>
        <time>2024-05-22T13:05:11Z</time>
      </trkpt>
      <trkpt lat="45.13926" lon="4.4464">
        <ele>1043</ele>
        <time>2024-05-22T13:05:14Z</time>
      </trkpt>
      <trkpt lat="45.13931" lon="4.44643">
        <ele>1045</ele>
        <time>2024-05-22T13:05:31Z</time>
      </trkpt>
      <trkpt lat="45.13938" lon="4.44638">
        <ele>1048</ele>
        <time>2024-05-22T13:05:43Z</time>
      </trkpt>
      <trkpt lat="45.13945" lon="4.44631">
        <ele>1050</ele>
        <time>2024-05-22T13:05:54Z</time>
      </trkpt>
      <trkpt lat="45.13949" lon="4.44632">
        <ele>1051</ele>
        <time>2024-05-22T13:06:02Z</time>
      </trkpt>
      <trkpt lat="45.13953" lon="4.44627">
        <ele>1052</ele>
        <time>2024-05-22T13:06:08Z</time>
      </trkpt>
      <trkpt lat="45.13966" lon="4.44622">
        <ele>1054</ele>
        <time>2024-05-22T13:06:24Z</time>
      </trkpt>
      <trkpt lat="45.13982" lon="4.44621">
        <ele>1057</ele>
        <time>2024-05-22T13:06:45Z</time>
      </trkpt>
      <trkpt lat="45.13986" lon="4.44619">
        <ele>1058</ele>
        <time>2024-05-22T13:06:50Z</time>
      </trkpt>
      <trkpt lat="45.13993" lon="4.44618">
        <ele>1058</ele>
        <time>2024-05-22T13:06:58Z</time>
      </trkpt>
      <trkpt lat="45.13998" lon="4.44618">
        <ele>1059</ele>
        <time>2024-05-22T13:07:12Z</time>
      </trkpt>
      <trkpt lat="45.14005" lon="4.44614">
        <ele>1060</ele>
        <time>2024-05-22T13:07:23Z</time>
      </trkpt>
      <trkpt lat="45.14028" lon="4.44613">
        <ele>1063</ele>
        <time>2024-05-22T13:07:58Z</time>
      </trkpt>
      <trkpt lat="45.14038" lon="4.44613">
        <ele>1065</ele>
        <time>2024-05-22T13:08:09Z</time>
      </trkpt>
      <trkpt lat="45.14068" lon="4.44618">
        <ele>1069</ele>
        <time>2024-05-22T13:08:43Z</time>
      </trkpt>
      <trkpt lat="45.14083" lon="4.44619">
        <ele>1072</ele>
        <time>2024-05-22T13:09:00Z</time>
      </trkpt>
      <trkpt lat="45.14088" lon="4.44622">
        <ele>1072</ele>
        <time>2024-05-22T13:09:05Z</time>
      </trkpt>
      <trkpt lat="45.14111" lon="4.44627">
        <ele>1076</ele>
        <time>2024-05-22T13:09:32Z</time>
      </trkpt>
      <trkpt lat="45.14114" lon="4.44631">
        <ele>1077</ele>
        <time>2024-05-22T13:09:41Z</time>
      </trkpt>
      <trkpt lat="45.14118" lon="4.4463">
        <ele>1076</ele>
        <time>2024-05-22T13:10:35Z</time>
      </trkpt>
      <trkpt lat="45.14136" lon="4.4462">
        <ele>1076</ele>
        <time>2024-05-22T13:11:06Z</time>
      </trkpt>
      <trkpt lat="45.14146" lon="4.44614">
        <ele>1076</ele>
        <time>2024-05-22T13:11:27Z</time>
      </trkpt>
      <trkpt lat="45.1415" lon="4.4461">
        <ele>1075</ele>
        <time>2024-05-22T13:11:32Z</time>
      </trkpt>
      <trkpt lat="45.14157" lon="4.446">
        <ele>1075</ele>
        <time>2024-05-22T13:11:42Z</time>
      </trkpt>
      <trkpt lat="45.14162" lon="4.44592">
        <ele>1075</ele>
        <time>2024-05-22T13:11:50Z</time>
      </trkpt>
      <trkpt lat="45.14166" lon="4.44588">
        <ele>1075</ele>
        <time>2024-05-22T13:11:55Z</time>
      </trkpt>
      <trkpt lat="45.14171" lon="4.44589">
        <ele>1076</ele>
        <time>2024-05-22T13:11:58Z</time>
      </trkpt>
      <trkpt lat="45.14174" lon="4.44584">
        <ele>1076</ele>
        <time>2024-05-22T13:12:03Z</time>
      </trkpt>
      <trkpt lat="45.14179" lon="4.44584">
        <ele>1076</ele>
        <time>2024-05-22T13:12:29Z</time>
      </trkpt>
      <trkpt lat="45.14206" lon="4.44554">
        <ele>1077</ele>
        <time>2024-05-22T13:17:33Z</time>
      </trkpt>
      <trkpt lat="45.14206" lon="4.44554">
        <ele>1078</ele>
        <time>2024-05-22T13:17:34Z</time>
      </trkpt>
      <trkpt lat="45.14219" lon="4.44535">
        <ele>1080</ele>
        <time>2024-05-22T13:17:53Z</time>
      </trkpt>
      <trkpt lat="45.14225" lon="4.4452">
        <ele>1082</ele>
        <time>2024-05-22T13:18:06Z</time>
      </trkpt>
      <trkpt lat="45.14228" lon="4.44516">
        <ele>1082</ele>
        <time>2024-05-22T13:18:10Z</time>
      </trkpt>
      <trkpt lat="45.1423" lon="4.44507">
        <ele>1083</ele>
        <time>2024-05-22T13:18:18Z</time>
      </trkpt>
      <trkpt lat="45.14225" lon="4.44485">
        <ele>1086</ele>
        <time>2024-05-22T13:18:36Z</time>
      </trkpt>
      <trkpt lat="45.14219" lon="4.44467">
        <ele>1088</ele>
        <time>2024-05-22T13:18:53Z</time>
      </trkpt>
      <trkpt lat="45.14212" lon="4.44455">
        <ele>1090</ele>
        <time>2024-05-22T13:19:06Z</time>
      </trkpt>
      <trkpt lat="45.14203" lon="4.4443">
        <ele>1092</ele>
        <time>2024-05-22T13:19:28Z</time>
      </trkpt>
      <trkpt lat="45.142" lon="4.44422">
        <ele>1093</ele>
        <time>2024-05-22T13:19:36Z</time>
      </trkpt>
      <trkpt lat="45.14197" lon="4.44404">
        <ele>1096</ele>
        <time>2024-05-22T13:19:52Z</time>
      </trkpt>
      <trkpt lat="45.14199" lon="4.44395">
        <ele>1097</ele>
        <time>2024-05-22T13:19:59Z</time>
      </trkpt>
      <trkpt lat="45.14199" lon="4.44386">
        <ele>1098</ele>
        <time>2024-05-22T13:20:06Z</time>
      </trkpt>
      <trkpt lat="45.14206" lon="4.44367">
        <ele>1101</ele>
        <time>2024-05-22T13:20:24Z</time>
      </trkpt>
      <trkpt lat="45.14206" lon="4.44361">
        <ele>1102</ele>
        <time>2024-05-22T13:20:29Z</time>
      </trkpt>
      <trkpt lat="45.14209" lon="4.44355">
        <ele>1102</ele>
        <time>2024-05-22T13:20:34Z</time>
      </trkpt>
      <trkpt lat="45.14212" lon="4.44351">
        <ele>1103</ele>
        <time>2024-05-22T13:20:43Z</time>
      </trkpt>
      <trkpt lat="45.14214" lon="4.44344">
        <ele>1103</ele>
        <time>2024-05-22T13:21:07Z</time>
      </trkpt>
      <trkpt lat="45.1422" lon="4.44352">
        <ele>1103</ele>
        <time>2024-05-22T13:21:18Z</time>
      </trkpt>
      <trkpt lat="45.14237" lon="4.44358">
        <ele>1104</ele>
        <time>2024-05-22T13:21:36Z</time>
      </trkpt>
      <trkpt lat="45.14243" lon="4.4436">
        <ele>1104</ele>
        <time>2024-05-22T13:21:44Z</time>
      </trkpt>
      <trkpt lat="45.14259" lon="4.44363">
        <ele>1105</ele>
        <time>2024-05-22T13:22:07Z</time>
      </trkpt>
      <trkpt lat="45.14264" lon="4.44362">
        <ele>1105</ele>
        <time>2024-05-22T13:22:12Z</time>
      </trkpt>
      <trkpt lat="45.14276" lon="4.4435">
        <ele>1106</ele>
        <time>2024-05-22T13:22:26Z</time>
      </trkpt>
      <trkpt lat="45.14284" lon="4.44334">
        <ele>1107</ele>
        <time>2024-05-22T13:22:39Z</time>
      </trkpt>
      <trkpt lat="45.14286" lon="4.44327">
        <ele>1107</ele>
        <time>2024-05-22T13:22:44Z</time>
      </trkpt>
      <trkpt lat="45.14292" lon="4.44317">
        <ele>1108</ele>
        <time>2024-05-22T13:22:53Z</time>
      </trkpt>
      <trkpt lat="45.14295" lon="4.44304">
        <ele>1108</ele>
        <time>2024-05-22T13:23:01Z</time>
      </trkpt>
      <trkpt lat="45.14297" lon="4.44296">
        <ele>1110</ele>
        <time>2024-05-22T13:23:35Z</time>
      </trkpt>
      <trkpt lat="45.143" lon="4.44291">
        <ele>1110</ele>
        <time>2024-05-22T13:23:40Z</time>
      </trkpt>
      <trkpt lat="45.14307" lon="4.44265">
        <ele>1110</ele>
        <time>2024-05-22T13:23:57Z</time>
      </trkpt>
      <trkpt lat="45.14312" lon="4.44252">
        <ele>1111</ele>
        <time>2024-05-22T13:24:07Z</time>
      </trkpt>
      <trkpt lat="45.14313" lon="4.44245">
        <ele>1111</ele>
        <time>2024-05-22T13:24:11Z</time>
      </trkpt>
      <trkpt lat="45.14315" lon="4.44239">
        <ele>1111</ele>
        <time>2024-05-22T13:24:15Z</time>
      </trkpt>
      <trkpt lat="45.14316" lon="4.44232">
        <ele>1111</ele>
        <time>2024-05-22T13:24:19Z</time>
      </trkpt>
      <trkpt lat="45.14318" lon="4.44227">
        <ele>1112</ele>
        <time>2024-05-22T13:24:22Z</time>
      </trkpt>
      <trkpt lat="45.14318" lon="4.44207">
        <ele>1112</ele>
        <time>2024-05-22T13:24:33Z</time>
      </trkpt>
      <trkpt lat="45.14321" lon="4.44194">
        <ele>1113</ele>
        <time>2024-05-22T13:24:41Z</time>
      </trkpt>
      <trkpt lat="45.14324" lon="4.44186">
        <ele>1114</ele>
        <time>2024-05-22T13:24:47Z</time>
      </trkpt>
      <trkpt lat="45.14324" lon="4.44165">
        <ele>1114</ele>
        <time>2024-05-22T13:24:58Z</time>
      </trkpt>
      <trkpt lat="45.14327" lon="4.44152">
        <ele>1115</ele>
        <time>2024-05-22T13:25:06Z</time>
      </trkpt>
      <trkpt lat="45.14329" lon="4.44147">
        <ele>1115</ele>
        <time>2024-05-22T13:25:10Z</time>
      </trkpt>
      <trkpt lat="45.14334" lon="4.4414">
        <ele>1115</ele>
        <time>2024-05-22T13:25:17Z</time>
      </trkpt>
      <trkpt lat="45.14336" lon="4.44134">
        <ele>1115</ele>
        <time>2024-05-22T13:25:20Z</time>
      </trkpt>
      <trkpt lat="45.14335" lon="4.44122">
        <ele>1116</ele>
        <time>2024-05-22T13:25:27Z</time>
      </trkpt>
      <trkpt lat="45.14341" lon="4.44084">
        <ele>1117</ele>
        <time>2024-05-22T13:25:51Z</time>
      </trkpt>
      <trkpt lat="45.1434" lon="4.4407">
        <ele>1117</ele>
        <time>2024-05-22T13:25:59Z</time>
      </trkpt>
      <trkpt lat="45.14341" lon="4.44064">
        <ele>1117</ele>
        <time>2024-05-22T13:26:03Z</time>
      </trkpt>
      <trkpt lat="45.14343" lon="4.44058">
        <ele>1116</ele>
        <time>2024-05-22T13:26:08Z</time>
      </trkpt>
      <trkpt lat="45.14343" lon="4.4405">
        <ele>1116</ele>
        <time>2024-05-22T13:26:12Z</time>
      </trkpt>
      <trkpt lat="45.14349" lon="4.44031">
        <ele>1115</ele>
        <time>2024-05-22T13:26:27Z</time>
      </trkpt>
      <trkpt lat="45.14352" lon="4.44025">
        <ele>1115</ele>
        <time>2024-05-22T13:26:31Z</time>
      </trkpt>
      <trkpt lat="45.14354" lon="4.44019">
        <ele>1115</ele>
        <time>2024-05-22T13:26:35Z</time>
      </trkpt>
      <trkpt lat="45.14357" lon="4.44013">
        <ele>1115</ele>
        <time>2024-05-22T13:26:41Z</time>
      </trkpt>
      <trkpt lat="45.14364" lon="4.44">
        <ele>1116</ele>
        <time>2024-05-22T13:26:52Z</time>
      </trkpt>
      <trkpt lat="45.14367" lon="4.43997">
        <ele>1116</ele>
        <time>2024-05-22T13:26:56Z</time>
      </trkpt>
      <trkpt lat="45.1437" lon="4.4399">
        <ele>1116</ele>
        <time>2024-05-22T13:27:01Z</time>
      </trkpt>
      <trkpt lat="45.14373" lon="4.43986">
        <ele>1117</ele>
        <time>2024-05-22T13:27:05Z</time>
      </trkpt>
      <trkpt lat="45.14377" lon="4.43979">
        <ele>1117</ele>
        <time>2024-05-22T13:27:10Z</time>
      </trkpt>
      <trkpt lat="45.14383" lon="4.4397">
        <ele>1117</ele>
        <time>2024-05-22T13:27:18Z</time>
      </trkpt>
      <trkpt lat="45.14386" lon="4.43965">
        <ele>1117</ele>
        <time>2024-05-22T13:27:22Z</time>
      </trkpt>
      <trkpt lat="45.14387" lon="4.43959">
        <ele>1117</ele>
        <time>2024-05-22T13:27:26Z</time>
      </trkpt>
      <trkpt lat="45.14389" lon="4.43953">
        <ele>1117</ele>
        <time>2024-05-22T13:27:30Z</time>
      </trkpt>
      <trkpt lat="45.14384" lon="4.43946">
        <ele>1117</ele>
        <time>2024-05-22T13:27:46Z</time>
      </trkpt>
      <trkpt lat="45.14381" lon="4.43943">
        <ele>1117</ele>
        <time>2024-05-22T13:27:50Z</time>
      </trkpt>
      <trkpt lat="45.14363" lon="4.4391">
        <ele>1114</ele>
        <time>2024-05-22T13:28:15Z</time>
      </trkpt>
      <trkpt lat="45.14353" lon="4.43872">
        <ele>1113</ele>
        <time>2024-05-22T13:28:39Z</time>
      </trkpt>
      <trkpt lat="45.14351" lon="4.43867">
        <ele>1113</ele>
        <time>2024-05-22T13:28:43Z</time>
      </trkpt>
      <trkpt lat="45.14349" lon="4.43861">
        <ele>1113</ele>
        <time>2024-05-22T13:28:47Z</time>
      </trkpt>
      <trkpt lat="45.1433" lon="4.43817">
        <ele>1112</ele>
        <time>2024-05-22T13:29:20Z</time>
      </trkpt>
      <trkpt lat="45.14327" lon="4.43803">
        <ele>1112</ele>
        <time>2024-05-22T13:29:28Z</time>
      </trkpt>
      <trkpt lat="45.14323" lon="4.43796">
        <ele>1112</ele>
        <time>2024-05-22T13:29:34Z</time>
      </trkpt>
      <trkpt lat="45.14319" lon="4.4378">
        <ele>1111</ele>
        <time>2024-05-22T13:29:44Z</time>
      </trkpt>
      <trkpt lat="45.14317" lon="4.43775">
        <ele>1111</ele>
        <time>2024-05-22T13:29:48Z</time>
      </trkpt>
      <trkpt lat="45.14316" lon="4.43768">
        <ele>1112</ele>
        <time>2024-05-22T13:29:53Z</time>
      </trkpt>
      <trkpt lat="45.14315" lon="4.43761">
        <ele>1112</ele>
        <time>2024-05-22T13:29:57Z</time>
      </trkpt>
      <trkpt lat="45.14315" lon="4.43752">
        <ele>1112</ele>
        <time>2024-05-22T13:30:04Z</time>
      </trkpt>
      <trkpt lat="45.1431" lon="4.43739">
        <ele>1113</ele>
        <time>2024-05-22T13:30:16Z</time>
      </trkpt>
      <trkpt lat="45.14309" lon="4.43733">
        <ele>1113</ele>
        <time>2024-05-22T13:30:26Z</time>
      </trkpt>
      <trkpt lat="45.14309" lon="4.43727">
        <ele>1113</ele>
        <time>2024-05-22T13:30:30Z</time>
      </trkpt>
      <trkpt lat="45.14305" lon="4.43724">
        <ele>1113</ele>
        <time>2024-05-22T13:30:56Z</time>
      </trkpt>
      <trkpt lat="45.14301" lon="4.43711">
        <ele>1113</ele>
        <time>2024-05-22T13:31:06Z</time>
      </trkpt>
      <trkpt lat="45.14299" lon="4.43703">
        <ele>1113</ele>
        <time>2024-05-22T13:31:50Z</time>
      </trkpt>
      <trkpt lat="45.14294" lon="4.43697">
        <ele>1113</ele>
        <time>2024-05-22T13:32:00Z</time>
      </trkpt>
      <trkpt lat="45.1429" lon="4.43677">
        <ele>1114</ele>
        <time>2024-05-22T13:32:13Z</time>
      </trkpt>
      <trkpt lat="45.14285" lon="4.43674">
        <ele>1114</ele>
        <time>2024-05-22T13:32:18Z</time>
      </trkpt>
      <trkpt lat="45.14284" lon="4.43668">
        <ele>1114</ele>
        <time>2024-05-22T13:32:22Z</time>
      </trkpt>
      <trkpt lat="45.14279" lon="4.43655">
        <ele>1115</ele>
        <time>2024-05-22T13:32:32Z</time>
      </trkpt>
      <trkpt lat="45.14268" lon="4.43633">
        <ele>1116</ele>
        <time>2024-05-22T13:32:52Z</time>
      </trkpt>
      <trkpt lat="45.14267" lon="4.43624">
        <ele>1116</ele>
        <time>2024-05-22T13:32:58Z</time>
      </trkpt>
      <trkpt lat="45.1426" lon="4.43617">
        <ele>1116</ele>
        <time>2024-05-22T13:33:07Z</time>
      </trkpt>
      <trkpt lat="45.14259" lon="4.4361">
        <ele>1116</ele>
        <time>2024-05-22T13:33:12Z</time>
      </trkpt>
      <trkpt lat="45.14254" lon="4.43607">
        <ele>1117</ele>
        <time>2024-05-22T13:33:19Z</time>
      </trkpt>
      <trkpt lat="45.1425" lon="4.43604">
        <ele>1117</ele>
        <time>2024-05-22T13:33:23Z</time>
      </trkpt>
      <trkpt lat="45.14239" lon="4.43596">
        <ele>1117</ele>
        <time>2024-05-22T13:33:34Z</time>
      </trkpt>
      <trkpt lat="45.14236" lon="4.43592">
        <ele>1117</ele>
        <time>2024-05-22T13:33:38Z</time>
      </trkpt>
      <trkpt lat="45.14228" lon="4.43579">
        <ele>1117</ele>
        <time>2024-05-22T13:33:49Z</time>
      </trkpt>
      <trkpt lat="45.14226" lon="4.43573">
        <ele>1117</ele>
        <time>2024-05-22T13:33:53Z</time>
      </trkpt>
      <trkpt lat="45.1422" lon="4.43566">
        <ele>1118</ele>
        <time>2024-05-22T13:34:01Z</time>
      </trkpt>
      <trkpt lat="45.14216" lon="4.43557">
        <ele>1118</ele>
        <time>2024-05-22T13:34:09Z</time>
      </trkpt>
      <trkpt lat="45.14214" lon="4.43543">
        <ele>1118</ele>
        <time>2024-05-22T13:34:19Z</time>
      </trkpt>
      <trkpt lat="45.14212" lon="4.43538">
        <ele>1118</ele>
        <time>2024-05-22T13:34:23Z</time>
      </trkpt>
      <trkpt lat="45.14213" lon="4.43531">
        <ele>1118</ele>
        <time>2024-05-22T13:34:28Z</time>
      </trkpt>
      <trkpt lat="45.1421" lon="4.43523">
        <ele>1119</ele>
        <time>2024-05-22T13:36:16Z</time>
      </trkpt>
      <trkpt lat="45.14205" lon="4.43518">
        <ele>1119</ele>
        <time>2024-05-22T13:36:23Z</time>
      </trkpt>
      <trkpt lat="45.14202" lon="4.43512">
        <ele>1119</ele>
        <time>2024-05-22T13:36:44Z</time>
      </trkpt>
    </trkseg>
  </trk>
</gpx>